GFSSE_850_rhum_000.txt.gz
RH
27 30 40 68 85 82 78 81 81 87 82 70 62 45 66 84 88 84 89 91 94 98 88 70 74 79 84 87 86 87 86 90 78 85 76 40 50 83 89 54 50 85 55
25 32 40 80 85 70 83 84 82 84 70 73 62 60 83 93 87 84 84 84 96 99 87 83 88 89 86 86 87 87 89 93 85 69 51 33 34 73 98 58 68 92 75
22 30 42 80 77 80 79 76 77 77 78 77 60 95 85 86 92 95 81 92 96 99 62 76 85 91 89 91 88 92 87 89 86 64 43 53 82 64 75 67 82 88 84
22 28 70 84 86 82 83 68 70 76 76 75 58 96 97 92 94 94 84 98 76 71 61 51 67 91 88 94 87 89 95 90 61 49 63 77 81 72 40 36 56 87 91
24 28 44 86 78 73 79 80 80 72 69 60 58 84 91 92 88 91 94 92 67 64 56 47 40 73 75 89 82 93 97 96 89 50 81 82 92 85 47 74 70 68 92
28 31 30 65 67 77 81 81 75 78 75 56 46 75 85 92 88 91 89 86 69 63 60 55 46 44 54 59 60 87 96 91 95 92 78 83 70 95 61 47 92 39 78
30 39 35 62 75 72 63 69 69 75 86 80 54 77 82 84 89 86 93 91 87 81 55 62 80 75 61 49 38 41 92 97 92 97 88 77 86 87 57 81 81 87 52
33 38 56 65 81 61 75 86 84 83 90 87 58 66 87 82 92 86 88 90 98 92 73 91 98 91 95 92 86 68 54 91 99 97 90 87 72 41 52 95 77 95 91
31 38 49 80 71 77 85 86 89 83 94 92 80 53 64 87 88 82 88 96 91 93 90 63 90 88 93 89 96 86 78 85 88 86 88 90 83 38 51 95 98 88 96
29 35 50 80 96 98 97 69 82 91 88 67 53 36 38 47 52 58 58 66 57 63 54 39 37 46 58 81 57 49 46 41 57 88 85 85 44 24 37 48 64 97 92
24 31 37 55 92 96 97 92 57 75 59 48 36 27 25 62 68 38 42 39 38 40 42 41 43 46 48 49 48 46 46 49 76 67 57 29 15 16 20 26 34 49 84
26 26 36 42 53 84 71 80 92 93 87 89 55 56 50 62 63 33 35 38 41 43 46 49 51 51 50 76 88 76 78 87 80 73 54 39 30 18 13 16 20 22 28
31 27 28 35 45 51 54 77 88 69 64 53 41 46 47 44 48 48 50 52 56 62 60 70 67 76 76 79 86 89 91 87 83 77 60 50 53 49 35 16 15 19 20
30 36 34 31 34 43 48 45 55 52 46 49 45 44 46 50 54 58 64 70 71 83 87 85 93 91 87 93 94 94 92 93 90 84 68 48 49 56 56 51 38 19 18
32 36 36 35 33 36 42 45 46 51 51 53 54 61 65 68 72 77 86 85 88 93 92 95 94 97 98 96 88 89 88 94 94 92 84 65 54 52 55 56 56 53 42
30 31 30 30 32 34 38 42 46 51 58 58 62 66 69 72 77 81 81 84 86 94 88 89 90 84 83 90 88 93 94 97 96 94 94 83 70 62 60 63 59 58 58
28 24 22 21 23 32 38 44 48 52 56 60 63 68 73 74 76 78 77 77 96 93 84 91 90 93 97 99 99 99 99 98 96 95 96 95 89 71 62 61 66 68 66
24 22 19 19 23 30 42 47 51 54 58 62 66 72 74 74 74 75 80 90 84 82 87 92 94 94 96 97 97 93 99 96 94 94 94 90 91 78 72 64 61 62 66
27 24 23 27 30 39 46 51 53 57 64 66 70 72 72 73 74 75 74 72 65 65 77 71 83 83 75 91 94 92 91 90 90 89 90 92 89 79 70 70 69 66 62
29 26 23 23 31 42 51 58 58 65 69 72 74 75 72 67 60 54 50 45 40 38 40 45 60 63 66 70 72 72 82 75 77 80 79 81 87 96 90 89 74 78 73
29 26 27 32 37 44 56 60 68 70 73 71 67 63 54 43 36 35 34 33 31 31 33 35 52 56 57 59 60 60 58 58 58 57 82 73 57 68 78 80 91 96 93
26 24 24 26 31 40 53 61 66 67 66 60 48 39 38 38 34 31 32 35 36 35 35 33 37 45 57 57 59 59 52 53 47 57 49 54 55 56 66 86 91 94 96
26 27 26 26 28 34 43 53 54 50 45 43 42 37 32 32 36 38 38 36 32 27 22 16 24 35 52 49 56 56 56 56 64 57 57 52 57 60 53 61 70 69 68
30 30 31 31 32 35 38 38 38 38 37 35 33 34 37 39 40 39 35 29 20 12 6 3 4 14 50 50 52 52 58 58 62 65 52 56 52 64 58 62 64 63 62
33 33 35 35 36 36 34 33 32 32 32 33 36 40 42 42 36 30 24 16 8 3 2 4 7 11 38 45 47 56 59 58 58 62 68 50 48 47 47 47 53 62 61
37 38 39 38 38 37 36 34 32 32 35 40 44 46 40 35 32 29 22 10 2 3 6 8 10 11 14 16 37 52 59 57 56 50 47 49 50 46 42 48 56 62 63

GFSSE_850_rhum_003.txt.gz
RH
54 36 34 61 82 78 74 78 78 83 80 67 66 58 72 93 98 92 89 83 92 98 92 85 86 80 76 84 88 84 84 86 85 79 76 72 36 50 95 89 43 87 85
42 51 35 63 75 77 78 85 78 80 78 72 62 68 96 98 91 90 84 83 93 98 83 90 97 93 82 83 86 86 83 88 92 76 64 48 46 49 93 75 51 88 81
58 73 41 78 85 69 79 89 78 75 75 67 59 93 86 87 84 73 82 84 97 98 58 69 86 90 85 84 90 88 89 89 76 62 52 37 77 78 69 70 50 80 80
58 75 92 78 74 83 83 77 69 67 68 66 59 95 87 86 87 90 87 89 86 72 64 48 40 60 83 88 87 87 92 94 79 57 37 75 75 75 73 46 33 71 87
59 67 81 79 92 86 84 76 75 67 64 54 54 85 85 86 89 84 89 96 86 84 65 58 41 30 41 73 81 79 86 92 83 71 84 79 84 86 84 67 72 59 80
60 69 35 90 83 74 75 83 77 72 74 55 44 81 83 85 92 82 89 89 93 86 60 52 55 51 46 41 47 53 86 98 87 92 89 78 66 60 93 64 39 76 57
59 71 30 57 62 72 79 79 74 75 68 72 48 71 84 81 92 87 84 87 93 86 74 58 65 84 86 84 75 61 45 54 85 90 87 88 76 77 66 39 60 68 91
63 71 58 41 60 63 68 88 81 83 83 81 53 48 78 79 82 96 83 93 88 92 92 75 58 78 87 84 85 81 70 57 53 80 72 83 86 52 27 25 39 74 85
66 58 79 44 60 68 86 90 87 86 88 81 65 44 43 80 85 86 77 77 67 70 70 42 34 34 44 56 54 40 38 36 34 40 68 78 79 50 17 21 27 59 82
59 56 75 82 87 86 90 67 74 87 86 67 55 31 26 41 54 52 56 54 41 37 39 39 41 41 43 44 43 44 42 41 39 60 72 56 43 17 12 13 18 24 41
57 60 66 75 84 86 87 90 63 61 62 42 39 32 20 41 84 73 61 32 35 38 42 45 46 46 45 44 48 61 60 53 62 80 69 57 42 32 23 13 12 16 20
63 66 76 73 83 87 87 90 90 92 92 86 91 86 83 77 80 37 38 45 49 51 53 53 53 51 51 56 80 79 68 82 85 79 67 51 43 46 47 40 25 12 13
50 59 58 77 82 87 89 90 86 88 89 84 85 86 86 69 81 83 81 75 64 65 65 84 81 87 92 90 89 89 85 86 85 81 71 65 52 46 50 52 51 44 28
47 55 62 50 50 83 88 76 85 86 86 83 85 87 88 87 91 92 93 97 92 97 97 97 98 98 97 95 93 92 92 92 90 89 85 84 76 69 61 60 59 55 54
47 55 59 61 66 64 70 90 89 86 84 84 91 94 95 96 96 97 97 98 99 99 99 100 98 95 93 93 93 92 91 91 91 91 91 88 88 85 79 74 72 74 67
48 56 57 56 63 77 84 90 92 89 87 91 94 97 94 92 93 92 98 100 99 99 99 98 97 98 97 92 94 96 89 87 88 88 89 88 86 85 81 72 67 67 72
46 34 29 27 44 74 86 93 92 94 91 96 97 97 93 94 98 99 100 99 97 97 97 94 91 91 87 85 83 84 87 88 88 85 83 83 86 88 87 87 82 69 67
39 32 23 22 28 65 82 93 89 92 94 97 96 97 99 96 82 97 99 95 86 84 79 77 70 67 69 70 72 78 79 79 78 78 77 76 77 80 79 80 85 86 79
30 28 25 36 52 74 86 90 92 92 92 98 99 98 90 78 78 77 59 47 55 57 54 52 53 57 57 56 59 59 54 63 68 62 64 71 69 71 78 76 75 69 67
49 38 36 48 69 82 86 90 94 90 79 72 70 67 59 44 34 33 34 33 36 47 53 48 56 60 57 58 57 54 59 49 51 57 60 61 63 66 59 49 64 78 69
60 66 65 70 78 82 86 84 77 72 71 67 58 40 34 33 30 32 38 40 40 39 51 46 48 42 45 51 48 53 41 47 43 53 56 46 41 46 49 49 58 72 77
54 51 56 68 82 78 73 75 72 69 61 42 38 34 30 34 39 40 39 34 30 28 33 24 28 23 40 39 46 47 48 48 46 35 42 47 43 54 57 50 52 56 59
36 29 29 33 41 50 56 55 52 51 56 44 34 33 38 41 40 34 30 26 23 20 14 10 24 32 45 44 44 45 47 48 51 53 45 44 46 37 47 52 45 43 45
31 30 30 31 35 49 53 51 50 44 32 32 36 42 44 38 35 32 29 28 20 11 7 6 16 18 42 43 40 37 44 45 49 47 42 45 40 38 34 42 41 37 35
33 33 34 33 34 34 33 32 32 32 33 39 44 42 39 39 38 34 30 25 13 6 5 7 9 12 31 46 38 42 43 47 48 42 42 41 39 39 40 40 44 45 47
36 36 36 36 35 36 36 35 35 36 40 42 41 43 45 40 37 35 32 15 6 5 6 8 10 15 30 44 38 42 40 43 49 44 43 44 49 52 56 50 53 58 54

GFSSE_850_rhum_006.txt.gz
RH
58 32 34 57 81 83 76 82 83 80 80 70 67 53 73 95 90 90 88 87 86 97 96 89 96 89 80 87 89 81 82 87 87 83 64 58 57 31 53 97 51 91 94
35 29 32 67 77 78 78 84 80 82 81 73 56 56 94 93 87 86 86 80 88 96 67 93 97 95 89 87 82 81 84 88 84 62 61 50 36 76 68 63 52 96 96
48 34 38 77 88 78 77 90 82 79 75 67 64 80 79 85 93 76 78 78 93 93 66 54 93 89 84 82 84 92 92 89 81 56 35 48 67 74 76 66 50 62 83
52 45 42 76 78 78 87 86 70 65 69 65 62 96 88 87 87 90 87 86 82 73 56 49 46 42 57 78 91 89 91 98 86 70 39 65 78 79 79 77 49 44 77
54 74 70 69 82 89 84 82 77 68 65 56 54 89 84 84 82 84 90 94 83 80 60 43 43 34 31 49 68 78 74 88 90 68 68 84 66 77 92 84 69 45 69
58 54 42 60 84 82 83 81 80 68 71 54 42 85 82 78 89 80 86 90 87 74 65 50 47 50 56 52 50 40 37 44 42 41 56 90 85 49 74 93 70 43 35
62 54 35 30 57 63 71 80 74 66 72 70 44 82 82 80 80 87 81 86 89 60 55 48 33 35 51 64 62 60 37 26 22 18 19 48 75 71 40 33 21 30 27
62 51 31 25 36 50 57 67 76 72 79 76 50 59 76 79 80 87 96 81 79 49 36 35 32 29 31 40 38 46 33 33 31 21 21 25 44 55 40 20 17 18 21
62 57 38 33 43 35 44 47 82 86 82 79 52 41 37 67 80 85 79 60 35 32 32 34 37 38 38 39 40 41 40 38 36 34 26 21 24 29 20 13 13 16 19
67 68 66 42 48 42 47 47 55 64 75 64 43 26 25 42 50 43 46 38 34 34 36 38 39 41 42 43 43 45 52 52 48 42 40 39 38 35 31 23 12 10 13
58 72 77 79 77 69 68 80 77 44 38 32 30 33 24 50 67 61 55 37 39 43 45 46 48 49 50 52 56 64 65 60 56 56 56 60 62 56 50 47 43 32 15
52 58 71 78 83 85 86 80 67 56 59 57 56 67 66 76 78 72 51 54 54 54 55 59 60 64 68 67 66 72 71 72 75 76 76 75 70 71 64 54 51 52 52
41 57 67 71 79 80 86 81 91 87 79 87 86 85 83 69 76 76 77 81 68 68 74 76 84 86 85 89 93 91 92 93 92 91 89 86 85 86 85 86 86 79 69
39 53 62 69 70 84 88 83 87 86 86 85 84 86 84 89 90 95 94 88 96 97 98 97 99 96 95 94 90 90 92 92 90 90 92 93 93 92 91 92 92 93 93
40 49 57 59 68 76 90 91 86 86 84 85 85 93 94 96 98 95 96 95 98 96 94 91 89 89 88 87 88 85 82 86 87 89 89 88 90 90 87 86 89 92 91
46 52 58 60 70 78 86 92 92 88 86 87 92 97 98 94 92 97 98 95 87 91 90 91 87 84 81 84 77 76 81 77 75 75 78 77 76 84 85 80 75 74 79
44 47 48 59 66 78 86 93 94 92 92 96 97 98 98 99 95 98 96 93 90 88 82 80 56 52 52 54 58 61 68 71 69 63 67 58 67 73 73 70 73 78 76
42 37 31 30 46 73 86 93 91 94 96 96 95 97 98 95 94 97 85 59 58 50 45 40 42 41 41 39 47 53 51 50 44 47 51 58 64 71 74 76 80 60 68
49 36 35 36 48 77 88 88 90 92 96 96 96 95 82 74 69 48 33 31 36 40 41 40 37 37 33 31 45 37 37 43 43 52 57 62 62 59 60 53 51 48 58
52 47 48 58 75 85 91 90 92 94 95 89 77 65 46 33 30 32 37 39 38 34 33 30 26 25 23 34 23 32 22 43 34 43 50 45 41 30 31 32 43 53 60
69 67 62 66 78 85 93 94 89 73 70 65 49 36 31 32 37 38 36 32 29 27 26 22 20 16 16 17 27 18 25 26 38 32 21 21 21 35 48 52 42 35 35
70 73 79 81 86 90 86 76 69 68 51 39 32 31 35 39 38 34 33 32 31 29 24 17 15 11 14 16 30 24 43 29 33 28 48 25 47 42 30 17 23 32 33
53 48 60 66 65 69 68 66 56 44 38 32 33 37 41 38 37 36 33 30 30 25 18 11 10 10 12 14 16 31 40 44 42 40 27 38 19 25 21 18 28 38 28
48 45 46 52 55 56 54 50 41 33 31 35 40 40 39 39 40 40 36 32 29 21 15 11 11 11 10 14 19 18 19 34 43 45 36 36 34 34 33 43 35 55 49
48 43 42 41 46 50 48 37 31 32 36 40 39 42 43 44 46 43 40 36 32 24 16 11 10 10 10 17 31 30 24 32 24 40 51 43 44 42 44 47 52 38 33
45 38 35 34 34 33 34 34 35 36 39 40 42 46 46 47 46 45 42 37 29 20 13 10 9 10 12 19 24 27 28 39 38 46 51 46 50 49 50 50 48 40 48

GFSSE_850_rhum_012.txt.gz
RH
61 45 52 70 87 86 82 81 79 82 76 63 48 46 69 75 86 87 88 90 88 76 88 92 89 87 91 90 88 83 80 82 83 80 61 49 45 56 36 40 48 55 63
54 32 38 66 84 80 81 82 79 83 72 63 43 82 95 96 93 95 92 89 84 65 47 90 90 86 85 82 85 85 85 83 69 62 36 39 44 44 59 69 64 53 77
33 26 37 64 86 82 81 82 82 80 58 49 44 70 91 89 88 84 91 94 60 44 35 36 66 64 78 77 76 75 78 70 66 50 34 45 53 62 66 73 69 51 54
29 26 38 61 73 74 77 82 81 52 46 47 79 88 90 83 90 92 93 78 65 42 34 29 30 34 33 44 51 60 58 80 64 46 49 38 48 59 69 89 90 66 42
36 29 34 56 77 74 66 69 63 49 45 44 50 87 89 86 85 86 89 75 76 53 32 28 30 33 30 29 32 40 38 50 37 31 40 52 48 58 84 86 95 86 54
41 39 43 52 63 73 74 72 65 46 42 33 43 82 85 83 84 81 79 72 80 63 32 32 29 28 35 43 45 46 50 43 40 32 28 29 54 56 70 94 94 87 44
42 45 41 51 54 57 65 66 62 51 46 32 43 66 72 81 82 85 78 80 79 37 36 38 39 39 38 38 41 46 47 45 45 44 43 36 35 53 60 94 97 95 96
47 52 56 41 47 51 63 68 57 56 59 38 39 56 60 74 80 80 89 85 54 36 38 40 42 44 44 45 46 47 48 52 57 61 60 51 47 40 48 84 96 95 92
54 54 53 36 40 47 57 59 55 62 65 49 43 35 38 55 73 79 76 44 40 41 42 45 48 53 57 64 65 65 63 68 69 70 68 66 66 66 64 64 94 96 95
56 57 51 37 37 36 39 46 54 62 59 45 37 27 26 45 58 44 38 44 47 51 57 67 68 75 77 80 85 88 90 89 89 86 84 85 87 88 86 81 81 92 93
58 55 50 47 43 42 48 57 66 61 46 41 33 29 28 38 48 43 50 56 64 71 71 74 76 78 85 90 93 90 89 90 91 90 89 89 89 92 91 89 92 90 88
42 43 48 48 52 53 59 66 71 61 60 47 40 50 54 54 59 62 68 79 83 81 81 85 87 90 88 88 90 85 85 84 84 84 83 82 87 89 86 90 88 89 91
26 41 47 47 58 59 61 69 70 65 65 70 71 67 70 70 72 79 86 95 98 88 87 90 84 86 84 84 82 79 77 76 82 80 78 79 79 80 84 86 87 85 82
28 34 44 52 56 66 73 75 78 80 76 71 76 77 78 83 90 95 96 97 93 88 86 84 83 81 81 83 82 76 71 63 71 73 76 77 75 79 80 82 76 78 80
24 28 42 53 60 66 77 81 80 84 84 84 87 88 90 90 92 95 98 96 88 85 78 82 86 86 74 52 43 39 40 44 54 61 62 59 45 56 56 64 70 72 77
22 28 43 56 67 78 87 91 89 88 86 87 86 89 94 97 96 98 95 90 86 82 84 86 72 45 35 36 36 35 34 37 46 49 47 43 48 52 60 60 54 59 67
24 26 46 60 68 79 88 95 92 88 86 85 85 90 92 95 96 94 92 89 86 85 69 48 37 37 35 30 26 22 21 22 24 28 36 53 57 55 50 48 46 46 50
33 32 52 63 65 78 89 92 87 89 85 85 87 90 92 96 97 94 91 89 53 34 36 35 31 27 24 23 21 21 21 21 27 42 35 36 38 40 38 35 34 35 40
42 46 55 58 62 75 88 93 89 84 84 86 90 90 94 95 98 95 54 34 35 32 29 26 26 25 24 23 22 22 21 22 31 20 26 12 14 10 22 29 31 31 30
40 49 55 58 68 77 86 91 89 88 88 89 91 90 93 78 41 35 35 31 29 28 26 25 25 24 22 22 22 19 16 25 12 25 5 6 3 10 11 6 4 4 6
44 43 42 45 63 74 90 89 85 86 87 91 92 79 36 35 36 34 33 36 38 37 33 28 26 24 22 20 19 18 11 8 11 19 6 6 6 6 4 5 4 4 4
49 55 52 49 69 83 88 89 87 87 90 90 60 34 37 37 35 38 42 46 45 41 33 28 25 21 18 16 16 16 14 11 17 8 13 6 12 6 5 4 5 5 7
63 69 63 68 77 88 94 88 89 91 86 49 34 37 38 37 41 44 48 49 46 38 32 26 21 18 16 14 13 16 24 32 23 20 10 13 12 10 8 7 8 10 15
72 82 82 86 92 95 95 92 91 80 51 34 37 38 36 41 46 49 50 48 43 35 27 21 16 14 14 13 11 16 20 27 33 33 19 10 16 13 11 12 13 19 21
78 85 87 87 87 88 86 72 65 42 32 37 38 37 40 46 49 50 50 47 40 31 24 17 15 14 12 11 14 17 18 20 23 38 44 38 20 13 12 16 19 22 24
85 87 91 92 91 78 64 47 34 32 35 36 38 42 46 49 50 50 49 45 36 27 22 17 14 11 11 14 18 21 22 24 26 32 40 42 42 38 41 32 26 27 45

GFSSE_850_rhum_015.txt.gz
RH
49 55 97 79 86 87 84 80 74 78 72 54 46 52 54 75 86 86 84 87 82 72 78 89 87 87 91 86 74 73 77 78 82 83 75 49 52 47 51 41 43 56 52
41 36 70 82 82 88 81 80 75 82 77 54 47 76 84 92 82 92 91 90 78 55 45 89 87 80 90 87 86 86 82 73 71 69 51 40 44 45 45 49 69 47 74
36 27 38 88 89 86 83 82 79 85 70 48 47 95 96 92 91 82 93 66 48 41 35 50 68 67 82 81 81 78 72 75 66 56 56 42 51 58 62 65 74 67 62
26 23 32 63 85 89 79 85 84 79 51 46 48 77 85 90 95 94 77 72 69 44 34 33 35 42 42 52 52 52 62 62 55 51 47 48 55 62 59 75 88 82 69
27 26 33 47 75 76 77 78 73 57 48 46 84 91 95 92 85 85 71 74 78 51 33 28 30 33 32 31 33 38 39 36 36 34 30 36 50 59 61 99 93 93 81
30 28 33 46 59 67 69 61 64 52 47 41 55 84 88 87 83 85 82 79 76 44 34 37 36 34 36 38 37 42 43 44 44 44 43 36 29 39 70 77 93 90 90
35 34 35 45 57 56 65 61 64 53 38 30 42 74 83 86 83 90 81 83 80 41 39 41 42 42 43 43 45 46 50 50 57 66 68 65 53 37 40 58 96 93 95
42 40 40 41 50 58 58 65 66 52 46 31 41 57 68 80 82 83 86 90 60 40 40 42 45 48 51 58 60 63 63 72 75 75 76 74 72 71 65 58 71 97 99
54 51 48 43 44 57 58 61 62 52 55 41 34 40 49 65 76 78 81 48 41 43 46 54 58 69 73 76 81 85 86 90 90 89 87 88 88 90 91 90 83 82 92
56 57 55 46 40 46 47 51 54 59 62 45 39 33 32 54 73 53 39 46 53 62 69 72 76 79 84 91 93 93 92 91 94 93 91 90 91 91 87 85 85 87 89
58 59 59 51 38 45 44 48 56 57 57 51 39 31 31 46 44 47 52 64 73 80 81 88 88 89 88 89 91 93 92 90 89 85 88 85 84 87 86 86 83 91 90
53 52 57 53 44 45 46 53 68 71 57 52 42 36 51 58 59 62 70 76 86 84 91 94 91 85 86 85 85 83 82 82 82 81 81 82 78 80 83 88 100 97 90
29 44 48 50 52 52 53 65 76 69 68 60 53 67 67 67 71 79 89 95 93 91 92 90 86 87 85 82 83 82 81 75 71 72 75 73 78 81 81 80 78 78 78
28 33 40 50 56 59 67 73 77 72 73 71 80 84 83 83 90 94 92 94 89 89 85 78 77 81 84 86 82 67 56 52 50 57 68 68 67 59 54 66 64 69 72
32 32 36 48 56 63 71 81 85 82 82 80 87 88 89 91 94 91 94 95 92 85 81 80 81 87 84 58 42 38 39 38 38 43 53 56 53 49 49 54 67 67 70
30 26 28 42 54 65 74 85 90 88 90 88 89 89 92 95 96 96 94 90 87 83 81 84 83 57 40 37 36 32 28 25 27 30 33 38 44 48 50 50 51 51 52
28 27 23 33 54 66 77 89 92 91 89 84 86 87 88 90 94 94 89 88 86 87 85 51 39 38 33 28 25 22 21 21 22 26 34 44 50 51 50 48 43 42 41
27 27 26 36 58 71 83 88 86 85 84 85 84 87 88 89 93 90 92 89 86 42 37 34 29 25 22 21 21 21 21 21 22 36 38 29 23 23 23 29 32 31 30
28 30 29 45 62 78 90 85 88 87 86 87 88 89 87 91 92 93 87 48 35 30 28 27 25 24 24 23 22 21 19 19 22 26 17 6 8 5 10 21 9 5 4
35 37 44 59 73 84 91 91 86 91 93 90 90 88 87 92 94 60 36 32 33 34 36 33 29 27 25 24 22 19 15 15 21 12 22 7 7 6 9 4 4 4 4
38 48 57 69 76 76 85 91 86 91 94 94 88 90 89 68 37 35 34 38 43 45 40 32 29 26 23 22 21 19 13 11 8 14 22 7 6 6 8 4 5 4 4
37 41 51 61 65 76 84 88 82 85 89 87 90 87 41 37 36 37 41 46 47 44 35 31 27 23 19 17 17 17 13 12 10 14 8 9 8 7 6 5 5 5 5
38 43 46 49 55 78 91 90 85 84 84 86 86 42 37 37 38 43 47 49 48 42 33 29 24 19 17 15 14 19 17 21 16 15 11 10 10 8 7 6 6 6 6
46 53 59 56 66 92 92 85 82 81 80 85 52 36 38 36 43 48 50 49 48 41 32 27 22 18 15 13 12 16 19 23 26 26 18 12 12 11 9 8 8 8 7
58 61 68 68 90 95 92 87 85 85 87 62 36 38 36 42 48 50 50 50 47 40 32 25 20 17 13 12 15 19 19 19 21 33 38 21 14 12 12 12 11 9 11
68 75 80 86 92 96 95 94 93 92 70 35 38 37 40 46 50 51 50 50 47 37 28 24 19 12 11 14 18 21 22 25 28 33 40 38 36 24 20 12 14 15 19

GFSSE_850_rhum_018.txt.gz
RH
41 43 97 92 90 94 90 82 72 69 65 53 47 47 64 76 84 86 84 83 73 57 89 92 90 96 96 84 83 77 77 80 80 75 73 64 42 53 56 59 46 40 44
33 34 95 85 94 87 88 83 72 74 80 52 50 73 76 80 82 84 87 88 61 53 48 83 89 91 91 92 88 84 84 77 60 63 51 38 39 49 51 46 50 54 62
28 32 81 88 83 84 78 79 76 80 79 47 90 88 92 91 92 92 84 59 50 43 39 56 67 64 87 85 81 80 68 63 54 64 46 42 50 54 58 73 69 74 59
24 27 44 88 85 83 79 79 80 80 56 42 87 94 91 95 93 91 68 73 61 37 31 33 39 44 49 55 51 46 42 49 39 37 31 43 41 49 50 60 78 93 81
23 26 38 88 89 71 69 78 76 58 49 44 57 85 83 87 76 76 76 78 61 36 32 29 30 31 30 30 34 36 37 36 38 38 34 28 26 40 49 71 89 94 90
23 27 31 51 66 62 66 62 60 53 46 44 61 89 93 85 94 98 89 82 64 37 36 38 38 37 38 40 41 40 43 46 52 58 61 57 46 32 33 50 55 98 98
29 31 30 40 52 62 65 57 57 46 35 32 50 80 88 86 87 77 84 84 74 43 45 46 46 48 49 52 54 58 55 61 70 71 69 66 63 62 50 43 46 94 95
39 36 36 40 50 55 64 63 60 52 39 28 42 69 86 85 83 81 82 87 61 47 48 52 56 62 70 74 74 80 83 88 90 87 87 86 83 86 84 79 76 70 92
53 48 42 38 40 54 60 66 65 56 47 35 43 57 64 79 83 84 82 64 44 51 62 74 81 83 86 90 90 90 90 91 92 94 92 93 94 92 88 87 85 80 79
58 59 54 51 42 42 50 66 64 60 58 47 43 43 46 63 75 77 50 50 63 72 78 84 84 86 85 86 87 87 89 89 92 95 91 90 89 89 87 83 85 81 81
56 60 60 57 51 45 47 54 62 62 62 58 51 40 35 48 56 52 56 70 76 82 84 92 87 86 86 85 85 87 86 85 83 82 82 80 84 80 82 90 92 94 95
45 49 57 60 56 48 53 52 57 66 62 57 48 38 36 47 56 67 72 81 88 88 97 93 91 87 90 87 84 85 85 84 82 80 76 76 75 79 81 79 78 86 85
36 42 46 52 58 56 54 52 61 78 73 63 51 53 58 59 66 79 90 98 92 90 88 87 82 79 81 82 86 87 78 64 55 55 57 64 68 68 67 65 71 75 79
34 38 46 50 57 59 59 60 70 80 72 64 61 72 72 76 88 97 91 90 91 88 86 78 78 79 84 90 81 60 44 40 40 41 44 48 58 62 59 67 72 62 62
34 34 35 42 52 60 64 72 82 82 80 80 85 87 89 92 95 97 88 92 90 84 80 82 84 86 83 60 39 37 36 33 30 30 33 38 43 45 46 47 53 55 62
31 31 31 32 42 57 67 77 83 87 89 87 90 92 92 90 89 92 93 90 85 82 82 86 82 48 38 36 32 28 25 22 21 22 26 33 40 46 47 47 47 49 48
31 31 29 30 31 54 66 82 90 90 91 91 87 89 86 86 88 92 92 90 85 88 87 47 36 32 28 24 21 21 22 22 21 24 30 35 36 35 37 40 40 40 39
31 30 28 29 27 48 70 87 91 85 85 87 84 86 86 89 91 89 88 88 88 55 35 30 28 26 24 22 22 21 21 20 20 25 32 21 16 14 11 14 20 21 17
31 30 29 28 29 53 78 92 89 83 83 88 83 85 94 94 85 88 89 82 38 32 32 33 32 28 25 23 22 21 18 17 18 25 28 16 7 6 5 9 9 4 4
31 30 26 31 36 65 81 89 84 86 90 89 90 93 95 89 84 86 70 34 34 40 41 34 27 27 26 24 22 20 18 14 13 24 18 15 13 8 6 7 8 5 4
34 28 28 32 48 72 81 88 84 93 92 95 97 95 90 87 88 43 35 37 43 42 40 31 26 26 25 24 22 19 15 11 11 10 10 24 10 9 8 7 7 6 5
36 32 33 39 60 78 82 92 88 75 95 96 96 91 87 83 38 36 38 44 46 46 41 34 28 26 25 23 20 17 14 13 10 10 10 10 10 10 10 9 8 7 6
35 35 38 50 72 81 89 96 95 82 95 96 90 87 84 38 37 38 45 48 48 47 44 38 30 27 25 20 14 16 16 18 17 15 12 12 13 12 10 9 8 8 8
34 38 43 50 69 84 93 96 82 76 80 80 77 80 47 37 38 45 48 49 49 48 46 39 30 26 21 15 13 15 19 22 25 24 19 14 13 12 11 11 10 10 9
37 39 46 52 55 68 93 94 76 78 78 78 77 64 37 38 43 48 50 50 50 50 46 38 29 22 15 13 15 17 18 20 20 30 31 18 13 13 14 14 14 13 12
43 49 56 62 62 77 97 79 80 80 79 78 77 40 38 39 47 50 50 51 51 50 44 36 25 16 13 14 18 21 22 23 22 30 36 35 39 28 18 15 15 15 16

GFSSE_850_rhum_021.txt.gz
RH
36 54 90 92 84 84 80 75 57 58 56 51 45 50 71 80 81 83 84 80 77 65 78 87 95 95 93 87 90 82 77 75 75 62 48 52 38 36 46 60 58 47 44
31 46 98 90 87 92 86 79 64 69 75 49 41 58 67 80 84 87 91 78 53 60 84 81 89 87 91 85 85 76 73 74 61 51 47 41 32 39 44 46 42 50 54
29 36 84 92 93 87 83 75 73 73 64 51 82 88 83 89 87 93 87 52 46 37 36 56 76 86 91 90 84 75 69 52 43 39 33 38 38 43 50 75 60 78 57
28 34 57 91 84 79 76 75 75 70 46 56 88 90 94 91 82 67 71 64 46 36 32 36 44 49 69 67 62 51 42 38 32 31 27 25 38 39 40 43 79 80 84
28 39 56 88 82 78 71 73 74 56 43 36 97 93 72 69 73 80 79 67 42 35 31 32 34 35 32 31 35 38 40 43 46 50 50 42 31 25 32 48 83 87 91
26 38 57 96 92 70 62 66 63 49 42 39 72 88 92 90 88 90 88 81 58 42 43 45 45 44 44 46 48 54 64 55 62 68 67 63 54 45 34 35 47 57 86
27 40 54 98 94 64 57 56 56 46 39 38 71 89 87 82 81 86 78 83 60 46 49 51 52 55 57 61 63 64 65 75 81 82 81 78 74 74 69 57 50 58 96
28 36 49 86 70 66 62 57 55 50 38 31 56 85 89 83 80 83 81 81 54 50 54 58 66 72 80 84 88 88 87 90 91 90 87 88 86 82 84 82 81 77 70
38 41 41 53 65 71 63 60 57 50 38 31 47 67 85 84 84 79 76 74 48 56 71 76 84 82 82 81 84 85 88 89 88 89 84 84 87 88 86 84 81 80 78
51 54 53 50 58 77 67 66 62 56 47 38 40 50 60 75 80 83 71 50 66 75 78 83 82 81 88 88 83 84 83 84 83 83 79 76 75 78 76 85 85 85 89
56 58 62 61 58 56 67 68 66 62 60 51 43 38 39 58 72 60 52 71 81 82 85 90 86 86 84 85 86 86 87 87 86 84 83 81 78 81 81 73 74 81 88
46 55 62 64 65 61 60 67 64 64 60 58 47 42 37 47 54 58 68 83 90 90 93 88 85 86 83 82 82 85 86 79 65 57 58 55 61 66 70 78 79 73 73
38 48 55 62 68 68 54 62 62 67 71 59 49 39 43 58 66 71 84 92 93 90 84 82 82 77 78 82 85 80 63 46 40 38 39 43 47 58 66 69 63 56 55
33 38 46 53 62 67 64 60 59 69 80 68 51 54 65 68 76 86 94 86 90 86 84 83 77 80 84 84 67 41 36 36 35 34 33 33 38 48 55 60 60 52 64
34 33 35 40 46 57 64 64 64 74 79 71 60 73 77 85 91 94 89 90 86 84 80 78 83 85 66 42 36 34 30 27 25 23 23 25 31 36 40 43 43 47 60
33 33 33 33 36 46 59 66 71 83 84 78 82 86 89 91 87 86 87 87 84 81 81 82 83 41 35 30 25 23 20 20 20 21 23 28 33 39 42 45 48 49 47
31 31 31 32 31 35 51 69 79 88 90 86 86 86 88 86 84 89 85 84 85 81 85 53 34 29 27 25 23 22 21 20 20 22 26 31 33 30 24 19 20 24 27
32 32 32 32 30 31 43 71 85 91 85 85 84 84 84 84 88 90 84 85 86 83 36 32 31 31 28 24 22 21 20 19 18 22 27 25 12 8 7 6 8 10 7
35 33 32 32 29 32 39 77 83 91 84 86 88 83 83 89 94 88 82 85 77 34 33 36 33 26 21 21 21 20 19 18 17 21 28 29 23 14 11 8 7 8 8
36 34 32 32 31 31 39 77 82 93 90 94 91 87 90 95 90 87 84 78 35 35 38 37 29 24 22 21 21 20 18 16 14 18 34 14 14 22 13 10 9 8 8
36 34 33 32 31 34 45 75 86 90 88 97 95 95 97 93 87 87 73 35 36 42 42 38 33 28 24 22 20 17 15 13 13 13 12 12 10 13 11 10 10 9 8
37 36 34 33 36 40 51 67 78 84 92 90 98 99 96 89 85 67 36 36 44 45 44 43 39 33 27 24 20 16 14 13 13 12 12 12 12 12 12 10 10 10 10
39 36 35 35 38 49 63 80 88 94 93 99 99 99 90 82 69 36 36 45 48 48 48 47 44 36 28 22 17 16 18 24 16 14 14 13 13 12 12 12 12 13 13
40 37 38 40 47 57 78 87 82 82 86 92 98 94 81 64 38 37 43 48 49 50 50 49 45 38 28 20 16 15 16 18 29 31 19 19 15 15 14 15 15 14 14
40 37 37 40 52 71 88 96 96 85 86 88 93 78 73 50 38 40 48 49 50 51 51 50 44 33 24 18 16 16 17 18 17 24 34 22 20 19 19 17 16 16 15
41 40 40 42 50 78 98 100 95 83 82 85 77 73 68 39 39 46 49 50 51 52 52 49 40 29 21 17 17 19 18 20 22 30 44 41 45 36 25 20 18 16 16

GFSSE_850_rhum_024.txt.gz
RH
37 65 89 85 81 72 66 64 52 54 53 49 47 70 79 85 78 79 83 81 79 71 72 82 96 74 82 88 85 81 73 69 62 56 41 34 35 31 32 42 57 82 54
31 89 82 89 79 69 76 65 55 62 65 48 42 60 74 83 87 82 86 68 61 62 68 85 92 100 98 95 94 84 75 73 61 39 39 35 31 33 39 42 39 83 40
37 89 91 86 87 88 76 66 62 66 46 56 71 70 79 82 83 90 83 44 39 41 58 52 84 88 90 90 90 81 72 54 42 32 28 63 64 39 39 46 58 51 54
57 90 95 97 96 86 74 67 65 56 41 80 89 82 87 80 79 63 60 48 35 33 33 41 59 58 83 81 71 54 39 35 33 32 73 65 64 38 38 42 78 76 75
62 86 92 91 92 86 75 68 67 47 36 84 89 80 61 64 74 80 76 59 41 38 34 33 34 33 31 32 37 47 50 49 53 76 91 72 60 58 28 44 79 90 91
82 85 65 89 88 85 74 70 65 44 32 66 96 72 80 83 88 90 86 78 52 47 47 46 45 45 47 51 54 63 89 60 71 96 94 90 62 60 41 32 49 69 70
82 92 56 96 96 92 71 66 58 44 38 43 70 80 82 84 86 92 84 80 55 49 50 51 51 55 65 72 77 75 74 77 83 98 97 89 86 73 70 70 62 57 62
70 88 89 98 98 89 71 60 56 47 33 42 78 87 85 83 85 82 85 80 54 50 54 60 69 75 79 79 80 82 85 84 97 98 100 99 86 84 81 78 80 82 76
78 50 77 93 97 89 74 69 62 50 33 33 68 86 86 82 84 84 79 77 49 55 67 74 76 78 80 83 84 84 84 82 84 93 88 94 86 84 81 80 87 86 90
45 56 64 96 96 92 82 76 69 58 42 32 48 68 82 81 82 78 72 58 57 71 78 78 79 86 88 87 84 81 81 79 90 90 94 86 77 74 78 80 72 82 87
52 48 61 93 96 98 99 73 74 64 56 42 38 44 58 87 77 81 58 55 73 80 81 86 87 87 84 79 81 80 82 81 75 69 75 58 59 64 75 73 76 68 67
60 57 63 85 97 100 98 89 84 82 62 61 44 36 58 61 76 60 52 72 83 86 90 86 85 83 78 79 80 81 77 65 52 44 56 40 45 59 65 66 57 57 63
72 74 56 61 85 97 97 97 98 97 96 95 74 44 38 47 52 68 84 93 94 91 85 82 77 78 78 80 80 68 46 36 36 36 35 35 39 50 66 60 51 56 64
70 72 50 53 56 69 94 95 98 95 97 97 85 61 62 77 67 93 94 95 83 82 83 81 80 80 82 78 46 35 34 32 30 27 28 26 33 35 45 55 45 47 55
57 51 44 49 49 54 67 95 97 96 97 98 92 61 83 88 92 89 90 84 83 84 79 78 79 81 70 35 32 28 24 22 20 20 24 23 28 32 35 39 39 44 48
48 55 58 40 46 52 57 70 94 96 99 99 95 68 78 89 84 84 83 82 82 83 79 79 83 50 32 28 25 23 21 20 20 20 24 25 30 32 35 36 36 36 39
36 40 51 47 50 52 69 91 96 96 98 99 97 93 83 83 84 83 81 84 84 80 79 82 34 30 30 28 24 21 20 20 19 20 24 28 29 26 19 12 10 10 12
40 37 34 34 34 49 86 95 99 96 97 99 98 82 84 81 80 82 85 82 83 80 74 33 34 32 25 20 19 20 20 19 19 20 23 25 20 13 10 9 9 7 7
38 39 33 34 34 36 71 95 99 98 99 87 82 82 80 79 82 87 86 82 82 72 34 35 34 27 22 19 19 20 19 19 21 21 28 29 29 24 18 18 14 9 8
36 32 36 34 33 35 69 97 100 100 96 88 81 83 80 83 88 90 85 82 82 35 36 38 34 32 28 22 19 18 16 16 17 23 28 34 14 11 14 16 12 10 10
38 31 36 34 33 34 63 74 91 84 89 91 87 90 85 90 97 86 82 82 36 37 42 40 40 38 34 27 20 24 19 14 14 22 16 19 14 13 12 12 12 11 11
45 40 37 34 34 36 59 60 88 84 80 91 99 93 94 98 95 83 80 39 37 44 44 45 45 43 38 30 21 25 26 25 25 18 20 14 18 14 13 13 13 13 14
44 44 37 36 35 40 51 86 88 89 95 98 100 98 100 97 89 71 44 37 43 46 47 48 48 46 38 31 22 20 23 25 27 23 21 19 16 22 19 16 15 15 14
42 35 40 38 38 42 47 53 61 72 90 98 98 99 98 95 64 49 38 40 46 48 49 50 50 47 40 28 23 18 17 19 27 26 28 32 31 29 32 26 18 16 15
37 36 40 40 45 45 42 56 80 98 100 92 96 96 97 77 47 39 40 45 48 49 50 51 51 46 38 27 21 19 22 28 35 37 34 30 33 35 40 44 44 36 41
45 36 43 42 45 49 56 68 89 98 90 87 95 97 92 64 45 40 42 47 49 50 51 52 50 45 35 24 20 19 20 30 30 34 33 34 37 38 40 44 43 44 42

GFSSE_850_rhum_027.txt.gz
RH
67 52 78 83 75 66 66 70 71 72 70 61 65 78 84 84 76 76 77 79 76 73 68 78 88 76 92 90 85 83 78 73 70 64 53 34 26 26 30 34 41 87 90
65 60 78 83 77 65 61 51 51 56 58 51 44 61 72 86 83 78 83 60 55 72 68 66 99 98 99 96 92 82 78 68 59 37 31 29 49 31 33 41 40 83 73
74 91 67 81 69 68 68 62 59 65 41 35 53 81 82 83 82 86 75 42 36 50 68 65 85 90 87 87 88 83 65 48 32 26 38 66 77 56 41 45 50 54 55
77 93 91 84 82 74 73 68 64 52 57 80 84 75 80 81 77 56 50 36 31 28 32 39 61 67 78 73 75 55 35 31 35 47 80 77 71 60 32 37 45 87 79
75 84 93 88 96 87 76 70 64 40 56 87 91 81 57 58 66 71 64 47 38 31 28 30 33 30 34 35 32 39 44 47 56 85 92 95 63 85 36 27 40 75 85
73 79 88 94 91 87 81 73 64 38 42 87 81 50 64 79 83 79 74 61 43 42 41 40 40 43 45 50 51 52 56 63 72 91 93 96 97 73 64 46 36 38 46
71 84 75 88 94 87 77 67 57 37 30 74 78 66 75 80 84 87 84 75 49 47 48 49 51 58 64 69 75 77 78 77 78 91 92 95 97 81 75 72 72 74 73
72 84 94 89 95 90 76 64 56 41 32 46 68 76 78 82 85 83 82 79 55 51 57 67 70 73 75 76 79 80 80 80 75 89 89 90 95 83 80 82 81 83 86
72 80 94 94 92 89 77 65 61 47 32 52 71 81 83 81 83 81 82 77 48 53 69 75 75 77 81 83 82 78 75 73 78 86 87 89 81 69 70 77 75 71 78
73 77 82 99 88 80 79 72 66 54 33 36 67 74 80 81 84 86 78 65 49 67 73 76 82 85 83 79 80 76 74 73 79 82 81 80 64 65 66 67 61 62 63
74 76 75 88 100 93 97 71 71 61 43 33 47 58 73 86 83 83 76 52 63 70 76 82 85 84 78 73 73 74 71 71 69 67 70 54 43 53 70 59 52 62 72
71 74 78 78 86 97 98 95 81 84 58 45 38 41 56 88 91 89 54 54 71 77 82 83 81 80 76 72 71 68 61 48 53 51 56 39 39 55 80 53 48 62 70
64 70 79 82 82 97 98 98 97 95 96 90 84 75 77 81 67 60 51 64 79 85 84 81 79 76 77 79 78 49 34 33 37 46 49 34 34 53 69 49 45 63 63
55 65 76 81 88 96 99 99 88 85 87 87 90 85 78 72 72 80 84 90 94 82 82 80 76 76 78 74 38 33 30 28 26 39 44 28 24 32 43 37 34 45 41
49 60 71 78 90 91 95 96 87 83 84 86 91 84 72 75 80 81 87 87 80 82 81 78 77 77 75 34 29 25 23 28 26 32 42 26 23 27 30 30 32 37 40
44 52 64 76 91 91 87 88 83 82 84 90 89 87 80 81 84 91 85 80 81 80 78 76 78 75 32 28 26 24 21 25 22 24 37 28 24 26 29 30 29 22 17
33 41 49 67 80 88 90 88 84 85 85 93 89 88 87 90 88 79 80 77 78 80 80 78 70 32 29 24 20 19 19 20 20 27 30 40 27 24 21 13 8 6 6
34 33 35 51 69 84 86 88 84 83 84 94 91 88 91 88 79 77 77 79 76 80 78 74 33 31 26 22 19 22 23 22 23 26 25 27 26 25 22 19 16 14 13
33 36 37 40 51 62 74 80 81 82 85 89 91 92 97 79 76 74 80 81 78 78 78 33 33 31 29 25 20 18 20 19 32 28 32 28 26 27 19 14 12 13 13
28 34 36 40 43 49 63 76 80 83 85 92 96 99 80 77 75 76 84 83 80 81 36 36 36 37 35 31 26 20 18 17 24 27 38 34 32 18 14 12 13 14 13
31 35 36 37 41 48 58 73 82 86 88 97 99 84 80 77 77 86 91 83 80 45 35 40 42 42 41 36 28 25 30 24 20 38 42 32 29 23 23 26 22 17 15
35 37 38 37 43 51 59 71 87 92 96 100 95 86 83 82 83 93 91 81 65 35 42 44 45 46 44 40 30 28 30 28 30 23 29 26 25 25 30 25 19 18 17
36 36 38 39 43 55 65 83 98 98 100 99 98 96 90 89 88 97 86 78 37 38 45 46 47 48 45 42 33 24 25 28 25 25 24 31 25 31 28 25 26 24 23
28 35 40 41 48 61 72 89 70 57 75 94 100 99 93 93 96 92 75 47 39 44 47 48 49 50 47 42 34 27 21 21 30 29 27 29 31 29 32 34 30 24 22
24 32 42 49 59 73 74 82 79 80 91 98 100 100 99 98 98 90 56 42 43 46 48 49 50 50 49 40 32 23 27 31 34 35 37 32 31 32 34 38 40 41 35
28 31 44 54 70 82 81 80 75 76 89 93 99 99 99 96 94 85 43 43 45 48 49 50 51 51 49 40 28 22 22 27 29 34 35 35 37 35 38 38 39 34 42

GFSSE_850_rhum_030.txt.gz
RH
56 42 48 48 54 58 59 65 72 75 76 77 78 82 84 83 76 76 74 72 76 74 64 86 71 83 92 92 79 78 78 75 68 58 46 31 26 22 23 29 41 93 95
39 44 52 41 50 46 45 43 45 45 47 47 49 69 76 84 80 79 78 39 54 70 60 76 90 96 97 96 86 83 77 58 40 27 27 48 57 45 34 33 36 60 75
47 47 49 41 49 48 46 47 54 51 36 34 71 73 84 86 82 78 40 32 38 62 58 60 76 75 76 82 84 75 52 31 26 48 66 66 67 61 38 34 35 60 53
66 53 52 45 47 55 58 59 60 38 50 62 89 77 79 82 80 48 32 27 27 28 36 41 67 78 80 66 59 39 26 34 56 79 89 75 78 78 45 25 36 74 83
88 54 51 64 57 60 58 59 53 40 86 88 81 70 50 58 51 48 44 36 30 25 27 30 32 26 28 28 29 36 43 54 80 90 93 86 79 75 63 40 33 43 72
80 90 70 69 78 79 64 58 47 34 85 91 63 50 64 73 75 70 56 44 41 39 37 35 37 39 43 47 50 54 60 68 88 90 92 93 98 82 73 70 72 66 59
77 85 87 70 93 83 76 61 42 29 73 88 50 56 70 73 79 77 68 51 44 44 45 46 49 54 60 66 72 76 78 78 88 84 82 82 90 89 78 79 79 80 84
73 81 79 73 84 78 69 54 38 28 29 73 69 63 65 74 83 87 71 54 43 45 49 55 62 68 74 80 81 78 72 68 76 87 84 86 90 81 71 82 81 80 79
76 82 64 70 65 74 56 46 42 29 26 47 59 67 72 76 76 74 69 60 43 51 57 66 69 78 82 81 80 74 72 70 85 84 83 89 85 69 66 59 83 88 83
76 82 70 70 62 72 60 49 42 36 27 44 56 71 76 77 84 80 74 57 42 56 66 70 76 79 78 70 72 72 70 75 75 75 80 77 59 48 52 45 50 60 57
74 79 86 71 82 80 73 54 46 39 28 32 50 64 73 78 79 78 63 48 51 62 70 76 79 78 75 70 69 69 63 63 59 63 55 51 41 64 71 45 49 72 61
73 75 80 86 86 94 94 66 61 52 37 28 35 50 68 87 86 78 73 47 60 69 74 78 77 75 74 73 75 74 49 38 47 43 38 43 37 58 64 46 50 59 57
70 73 74 80 82 90 97 96 77 54 53 40 32 36 55 89 91 85 60 51 69 75 77 78 75 76 77 76 73 44 33 31 34 38 35 33 32 55 53 40 44 48 42
62 69 76 78 81 84 89 98 91 81 79 74 72 62 52 80 68 72 69 86 88 84 79 81 74 75 73 67 34 30 26 26 26 26 25 26 25 28 37 30 32 33 33
54 60 70 79 82 84 88 97 91 92 87 88 88 80 79 68 59 78 89 88 90 79 80 78 76 76 71 37 28 25 24 24 26 27 25 24 26 24 27 28 28 30 32
41 53 64 74 83 88 91 91 82 86 82 85 88 82 74 71 77 82 84 84 78 79 80 77 76 78 40 27 24 18 16 18 20 25 22 24 23 23 24 26 25 17 8
35 44 55 68 78 87 95 87 85 83 81 84 86 90 75 79 82 83 82 72 77 79 80 79 78 46 28 24 19 17 17 17 18 22 22 24 22 20 20 17 13 11 13
33 34 47 58 72 78 88 89 88 84 83 82 86 88 81 85 84 84 74 77 77 76 79 79 68 30 27 26 22 19 17 17 19 23 23 23 21 21 20 22 18 12 12
29 34 34 47 59 66 86 89 82 85 81 80 84 89 84 89 83 75 75 76 80 77 78 79 32 32 32 31 27 22 19 18 18 25 24 22 22 22 26 19 12 11 11
28 31 34 35 52 61 71 85 85 85 80 80 83 86 83 88 79 75 77 81 79 78 80 38 34 37 38 36 31 24 21 19 17 19 23 28 28 22 23 17 17 15 14
26 27 28 35 38 41 65 79 84 82 76 77 82 82 82 85 76 76 79 82 72 78 60 33 39 42 43 41 35 26 24 26 24 20 22 25 23 26 21 19 18 18 18
33 32 28 34 37 39 42 65 77 80 78 78 81 90 90 83 79 80 83 86 81 78 36 38 42 44 45 44 40 28 26 27 30 27 24 25 27 24 23 23 23 21 20
32 34 35 32 36 40 41 51 75 85 78 85 85 86 96 87 85 88 90 90 82 66 35 42 45 47 47 47 43 33 24 27 24 22 24 23 26 26 28 28 25 26 26
25 30 32 36 36 37 43 54 72 83 78 85 88 94 98 91 92 93 94 92 80 46 39 45 47 49 49 49 46 37 26 22 20 20 23 25 24 30 29 27 28 26 26
23 24 28 33 38 39 45 58 77 79 72 75 92 97 99 100 100 98 96 85 73 38 44 47 48 49 50 50 47 37 27 23 23 28 29 25 26 25 25 26 26 30 33
24 22 24 32 36 40 51 67 82 72 71 80 93 98 99 99 100 98 94 79 59 41 46 48 49 50 51 51 47 37 27 23 23 28 31 27 28 25 27 24 22 25 35

GFSSE_850_rhum_036.txt.gz
RH
86 62 62 60 56 56 58 63 66 78 82 82 81 81 75 76 75 72 68 70 68 61 67 46 73 96 83 71 73 70 68 64 56 47 41 36 32 25 22 24 29 39 59
57 58 55 56 50 47 54 64 69 73 84 82 86 84 76 74 69 56 32 82 67 86 82 89 88 94 74 72 73 60 55 39 30 26 24 28 31 30 25 30 35 38 42
61 56 48 51 48 44 40 39 37 42 53 77 84 72 67 73 69 23 27 74 71 80 82 83 76 74 72 64 77 42 26 30 38 43 43 41 50 44 28 27 35 82 56
51 50 42 41 36 35 31 26 22 23 29 36 55 78 80 72 38 20 21 43 55 62 78 74 74 74 73 71 28 28 40 53 63 64 63 59 59 61 46 28 33 50 75
50 43 39 37 32 27 28 26 20 25 52 86 78 73 64 43 24 22 20 20 28 46 71 77 75 73 40 28 38 52 69 76 85 88 84 82 80 77 70 66 54 49 58
53 44 40 43 38 36 30 21 31 40 58 66 52 37 30 27 29 29 28 22 22 24 25 31 28 30 38 48 58 66 81 88 87 87 84 84 86 88 76 79 80 81 90
55 48 41 49 47 43 32 23 32 40 52 49 28 31 34 35 34 33 34 34 32 31 32 36 42 52 61 67 74 77 84 89 85 81 84 84 84 79 71 80 81 78 78
54 55 50 54 55 48 40 26 23 26 41 32 42 48 45 46 44 38 38 39 40 42 47 53 57 62 70 73 72 65 68 78 80 82 81 81 82 84 66 74 82 86 90
71 56 67 58 63 58 48 32 24 24 33 33 41 52 58 71 55 42 39 40 44 49 55 59 67 74 74 72 68 69 75 80 83 85 83 82 87 80 76 73 75 68 62
80 78 78 78 66 68 55 41 29 21 26 37 43 54 66 75 67 53 45 39 48 54 58 68 72 69 65 65 67 66 65 69 69 70 78 77 73 69 60 62 83 89 96
86 86 82 87 70 64 58 48 37 25 23 33 50 56 70 70 66 62 52 40 50 57 62 67 70 69 64 62 65 65 59 54 51 53 59 58 57 72 60 87 84 86 87
84 77 84 79 78 63 63 53 45 33 24 25 41 50 66 72 70 70 54 41 52 61 66 70 69 68 69 70 71 73 55 36 35 36 38 41 56 65 54 74 64 47 45
73 78 77 76 71 65 67 60 50 40 30 26 35 48 59 62 62 65 61 44 54 62 70 70 72 73 74 72 71 55 33 30 28 27 29 30 35 47 45 45 40 32 31
66 71 75 74 76 78 71 67 61 45 38 28 31 45 53 57 56 58 62 45 49 63 69 70 71 69 72 70 56 32 26 22 21 22 22 23 27 29 32 31 31 28 29
62 65 66 71 73 76 81 76 64 50 49 40 30 36 46 48 55 67 70 57 53 69 73 69 70 71 73 69 34 27 23 17 17 18 19 21 24 26 29 27 26 26 20
64 62 63 68 69 71 75 79 76 67 53 51 44 33 33 38 51 62 78 69 78 80 80 74 74 74 75 61 28 23 18 16 16 17 19 19 22 24 24 23 22 14 12
48 67 66 65 67 64 68 72 76 75 72 63 67 62 54 42 47 62 66 72 82 86 80 77 77 77 77 38 26 22 19 18 17 18 18 19 20 20 20 20 20 21 16
33 35 61 69 66 64 64 67 70 75 77 65 78 77 72 71 62 58 64 74 84 87 82 79 80 81 76 30 27 25 22 19 19 18 19 20 20 20 20 20 18 16 14
32 32 32 55 72 62 64 69 69 70 77 69 79 84 80 83 72 67 73 76 86 88 78 77 78 80 62 31 32 30 24 22 17 17 20 21 20 21 20 19 18 16 16
29 30 30 30 48 64 62 62 69 69 77 64 72 81 84 84 83 73 78 82 89 86 77 76 78 78 33 35 36 32 27 21 20 20 21 20 22 23 21 20 20 18 20
28 26 26 25 28 48 64 62 64 66 75 74 82 83 84 87 85 84 81 84 88 86 76 78 78 63 34 39 40 36 27 26 24 24 20 22 24 24 24 23 22 21 22
31 29 28 25 26 29 52 57 58 53 62 68 74 82 82 84 81 85 82 83 88 83 79 82 78 38 37 41 41 40 31 32 28 26 25 24 25 24 23 23 22 24 25
31 31 30 29 26 26 32 51 57 64 60 63 68 78 74 79 82 72 80 82 85 79 78 81 75 35 39 42 43 41 37 32 31 29 24 24 26 25 25 25 24 26 25
27 27 29 29 31 32 32 48 56 62 64 60 58 62 74 78 67 65 84 86 85 79 81 83 74 37 42 44 45 45 45 43 35 27 27 25 24 26 26 24 24 24 24
26 26 25 26 28 29 34 34 44 57 58 59 56 56 61 68 69 70 78 85 85 83 83 85 74 39 43 46 47 47 48 46 42 35 28 26 25 24 23 21 23 23 21
23 25 26 25 25 25 27 35 34 38 56 58 61 56 54 65 68 71 77 85 88 83 86 89 72 41 44 47 49 49 49 47 44 36 30 27 24 22 20 22 23 21 18

GFSSE_850_rhum_039.txt.gz
RH
68 88 89 83 81 76 85 72 79 83 84 82 79 76 75 69 68 69 69 68 66 55 52 46 89 87 71 71 72 69 64 60 58 51 46 41 37 29 21 20 24 33 45
46 67 62 89 90 58 54 60 68 78 80 76 93 88 71 72 66 55 40 76 60 65 57 79 94 77 72 72 74 59 61 51 41 34 31 30 32 25 20 25 31 41 39
52 53 44 55 73 72 66 73 81 84 85 80 88 88 67 69 67 22 59 75 76 96 92 94 94 74 73 59 75 44 29 31 34 38 36 44 43 36 23 26 44 93 64
52 45 39 42 55 54 54 58 58 58 77 88 72 58 69 69 32 20 54 94 96 95 87 82 76 75 69 69 29 27 41 59 53 61 61 55 57 58 48 33 36 53 74
54 40 28 33 45 47 44 41 36 36 37 39 57 70 68 44 17 17 26 73 72 78 76 74 76 67 61 29 37 53 66 70 66 70 81 72 81 79 69 64 60 64 68
50 44 26 28 38 36 32 30 29 30 50 70 64 49 30 19 21 18 18 21 42 64 77 76 69 30 33 40 52 67 77 84 85 86 85 82 87 81 82 81 84 90 92
55 50 32 30 32 33 34 24 29 44 69 55 32 24 20 22 24 25 24 21 22 24 24 28 35 45 57 65 72 77 80 84 83 83 80 83 83 71 71 72 73 75 76
56 52 40 36 37 39 34 25 39 45 51 30 24 24 23 26 26 29 30 31 32 33 37 45 56 63 74 74 71 69 76 81 78 76 80 78 76 78 67 75 86 88 88
65 53 42 42 47 47 42 27 40 38 44 28 34 32 37 35 31 31 34 36 40 44 54 60 67 74 77 72 65 64 68 75 78 80 80 82 80 75 68 63 67 61 56
80 68 51 44 51 53 48 36 33 35 51 32 40 43 51 60 38 36 35 39 45 54 60 69 76 72 69 66 66 65 68 69 68 66 73 78 70 65 60 72 77 86 55
83 76 64 65 56 50 51 43 34 33 52 40 40 50 59 61 52 43 38 39 48 57 65 72 72 70 67 64 64 64 61 60 56 53 56 58 65 55 77 83 79 79 68
82 76 79 78 79 67 60 50 40 32 39 45 45 50 59 62 57 51 45 39 50 58 65 69 70 68 68 69 70 71 68 46 39 40 42 50 72 54 78 66 62 54 44
70 71 69 79 83 77 68 55 44 37 30 36 47 50 57 66 68 70 59 42 51 61 63 67 67 67 70 71 68 64 40 32 30 30 32 51 49 42 61 42 36 34 33
67 66 70 72 76 73 71 60 50 42 36 30 36 44 54 61 66 71 65 47 50 60 64 69 70 68 68 69 65 41 30 25 24 24 24 26 28 31 34 30 29 27 28
70 70 70 71 70 72 74 71 64 57 46 36 29 38 50 54 55 63 67 62 50 62 68 72 71 69 68 71 62 32 25 20 17 17 19 21 24 26 26 25 24 23 19
67 68 69 68 69 71 73 76 74 68 60 48 38 30 38 49 56 64 69 69 55 63 75 75 73 72 71 73 58 28 22 17 16 17 17 19 20 23 23 22 20 16 16
66 66 65 65 68 68 70 73 78 76 74 58 51 44 33 38 46 61 72 75 66 79 84 80 75 75 74 76 43 26 22 19 17 17 18 19 21 22 21 20 20 19 17
54 66 65 67 70 71 70 71 72 65 70 77 72 55 46 38 38 54 66 75 74 87 88 82 79 79 79 77 35 27 25 22 19 19 18 20 21 21 21 20 18 17 15
31 32 32 35 53 69 72 73 70 66 64 68 76 66 63 63 63 53 66 69 74 90 90 85 80 80 81 74 31 31 28 24 22 18 20 21 20 20 20 19 19 18 16
25 28 30 30 30 34 63 72 71 71 71 71 74 71 68 73 75 78 72 67 79 87 91 87 82 79 79 66 33 35 31 27 20 19 22 21 21 23 23 22 20 19 20
32 26 24 28 28 28 30 54 74 66 68 73 73 73 67 75 80 78 74 69 79 82 86 87 82 78 78 49 36 38 33 27 25 23 24 21 24 26 24 23 22 21 20
31 31 30 26 27 28 28 29 52 62 64 62 65 64 70 74 67 72 76 78 75 81 90 89 82 78 78 39 39 40 35 33 30 27 26 25 27 27 25 24 24 22 22
26 30 32 32 30 29 29 29 40 59 65 63 64 66 72 66 70 65 61 79 80 79 85 87 82 78 77 40 40 41 38 36 33 30 31 28 26 28 27 25 26 24 23
23 20 24 28 29 30 31 32 31 38 52 58 58 58 63 69 69 66 65 64 81 80 85 87 82 80 77 40 40 43 43 41 35 36 33 28 27 27 27 28 27 24 22
24 25 24 27 27 28 29 34 35 42 44 48 56 57 60 60 63 66 63 60 75 79 87 93 83 82 79 46 40 44 45 45 45 43 35 34 29 27 27 26 24 22 23
21 21 22 25 26 27 27 28 36 46 50 57 64 61 61 59 59 63 70 66 68 84 88 96 87 84 79 58 42 46 47 47 47 46 43 37 32 29 26 24 23 24 23

GFSSE_850_rhum_042.txt.gz
RH
46 76 98 95 81 76 77 77 79 85 92 86 84 85 82 77 70 65 66 70 61 55 58 62 92 74 71 70 64 63 64 61 59 56 54 48 40 31 21 22 30 32 38
34 77 98 85 76 82 82 85 88 86 87 80 72 75 74 68 66 59 49 62 50 55 51 91 95 86 70 68 72 61 60 54 49 43 37 32 28 22 21 28 45 39 36
42 57 86 76 77 92 98 91 81 82 81 82 97 90 60 60 58 21 77 69 81 80 88 99 98 74 70 51 65 40 40 36 32 32 34 40 36 29 25 31 60 68 66
46 42 49 68 85 98 99 100 86 85 87 87 97 97 59 62 26 34 81 82 97 99 100 99 78 70 66 54 30 28 32 42 48 53 51 55 56 60 48 41 50 58 65
50 37 34 45 45 96 98 80 64 82 84 88 93 77 64 41 17 22 72 66 98 88 83 76 70 69 53 28 34 44 51 57 63 72 71 72 82 83 75 71 75 83 85
52 41 31 32 43 43 51 46 45 65 84 85 69 61 39 18 16 17 30 41 61 70 68 71 70 38 32 41 51 57 69 76 83 83 78 82 81 77 89 77 86 87 90
50 48 35 30 31 36 38 32 31 33 39 66 54 37 19 19 19 16 17 29 56 70 68 52 31 38 48 55 63 70 78 79 81 81 77 75 84 71 71 74 80 88 91
54 50 39 33 28 26 31 30 26 32 93 66 38 24 21 21 22 23 22 20 22 24 28 38 52 62 68 70 70 72 80 83 79 76 78 77 85 73 65 74 89 85 83
65 54 40 32 29 32 38 29 32 34 64 49 27 24 25 26 26 27 29 30 32 36 43 55 63 68 72 72 68 68 71 80 83 82 81 82 85 70 65 54 56 53 52
68 62 46 34 33 34 35 30 37 40 54 39 33 32 39 33 33 33 34 36 39 46 52 58 70 67 62 62 65 68 72 73 72 69 72 72 72 64 72 77 81 72 60
75 66 58 40 36 37 37 35 34 47 49 40 42 44 52 58 40 36 36 40 46 52 57 71 70 61 61 61 62 63 61 58 53 51 53 63 61 76 80 73 71 67 52
78 76 68 52 48 46 44 43 35 31 32 47 38 48 54 62 56 46 43 42 53 59 75 80 70 67 64 63 66 69 68 50 38 37 38 51 56 68 74 49 45 42 33
65 72 72 70 73 72 65 56 45 34 29 37 43 43 51 63 65 63 54 45 53 59 64 68 70 70 68 69 69 67 52 33 30 28 30 55 42 52 58 35 29 25 24
50 60 72 73 78 78 78 75 60 43 36 30 37 47 52 59 67 66 62 54 47 59 65 70 72 70 68 68 67 59 34 28 24 23 24 26 28 32 30 29 26 25 23
66 64 65 72 74 77 78 73 69 58 48 38 31 35 48 53 63 66 65 56 46 58 64 70 71 70 68 69 70 54 30 25 19 18 20 21 23 28 31 28 26 23 18
63 61 66 68 72 74 75 76 74 72 66 54 45 34 38 49 58 63 67 63 62 53 66 72 75 73 71 70 71 54 28 21 18 17 18 19 21 24 25 23 21 16 17
65 64 63 65 71 71 72 75 78 77 76 72 66 50 37 43 53 62 64 65 67 59 62 75 77 74 73 72 74 52 26 22 20 18 18 19 21 23 22 20 19 19 16
46 68 68 68 71 74 73 73 73 73 62 74 73 62 53 44 45 55 62 72 77 71 72 82 82 77 77 77 77 50 27 25 22 20 19 19 21 21 21 20 19 17 16
27 35 57 68 71 69 71 74 73 72 72 70 73 72 72 65 51 43 56 68 81 79 77 85 86 80 79 79 78 49 30 29 25 23 19 21 21 21 21 20 20 18 17
27 26 29 33 34 34 35 51 69 70 72 72 70 76 78 74 66 52 47 58 75 77 76 88 89 84 81 80 76 45 33 32 28 21 20 22 21 21 24 24 22 20 19
31 31 30 28 29 31 31 32 38 56 69 70 68 65 71 75 74 73 70 64 71 69 66 82 90 87 82 80 74 40 36 34 31 24 23 24 22 22 24 24 22 21 20
29 30 31 32 30 29 30 30 30 30 35 48 64 62 61 69 73 73 66 72 78 71 73 82 89 88 83 78 70 39 37 36 35 29 26 26 25 25 26 26 24 23 22
23 22 26 30 32 33 32 31 31 35 36 38 50 59 55 64 64 66 69 70 80 74 74 78 85 87 85 79 76 40 40 38 36 34 31 29 30 28 28 28 26 25 24
21 23 22 20 27 30 32 33 34 32 33 31 31 38 56 60 57 63 69 68 63 78 80 80 86 90 89 82 78 54 39 39 36 36 35 32 33 30 29 29 28 26 26
23 24 25 24 22 24 29 30 32 33 36 43 37 39 54 61 56 58 59 67 61 67 79 83 86 89 91 87 83 71 41 42 44 42 39 40 35 32 31 30 29 28 26
37 30 24 24 26 27 27 27 28 28 30 38 47 55 54 62 61 61 62 59 60 59 69 76 87 94 94 91 84 69 45 42 44 45 45 45 43 37 34 32 30 27 25

GFSSE_850_rhum_045.txt.gz
RH
48 61 90 97 80 72 76 77 79 78 93 99 97 92 91 89 82 72 67 66 57 53 56 83 84 83 59 64 70 68 66 64 65 56 58 56 48 35 21 22 24 27 29
38 69 98 93 76 71 80 76 82 86 89 95 90 88 84 76 67 62 48 48 44 48 60 96 90 92 58 64 66 60 60 58 52 48 43 35 25 19 22 29 35 33 37
46 58 98 87 70 77 83 87 86 88 85 86 86 66 78 68 58 24 53 56 64 68 93 98 94 72 52 51 56 42 51 46 40 35 32 34 31 26 28 35 52 62 52
44 38 63 74 85 84 95 93 84 81 81 92 95 66 53 53 23 59 83 92 94 97 99 92 74 62 60 34 28 28 32 36 39 40 45 50 49 53 45 49 62 68 68
42 30 36 64 68 76 92 97 88 81 83 90 89 46 50 28 20 66 83 94 98 100 99 83 62 55 34 24 28 38 46 50 56 60 59 68 77 83 78 81 88 89 91
48 37 33 54 88 93 96 99 77 85 78 81 65 49 38 18 18 40 60 88 96 90 74 59 57 35 29 38 45 56 68 71 74 72 72 76 76 97 78 74 81 94 90
55 46 40 35 65 53 54 84 57 72 70 72 68 44 21 19 17 20 28 47 65 63 63 65 33 35 42 53 63 69 72 73 76 73 68 74 77 74 78 87 90 91 90
58 51 44 49 55 29 42 39 36 33 33 56 51 29 20 22 21 19 22 46 60 64 44 32 40 51 59 67 69 70 73 75 73 73 72 77 84 69 76 78 81 82 81
58 56 47 34 37 38 33 28 30 32 67 62 45 22 22 22 25 27 24 23 25 26 34 47 56 62 67 66 62 61 65 73 77 76 74 74 87 68 82 56 51 48 45
61 58 50 37 35 31 29 25 26 32 80 52 33 25 27 29 30 32 34 35 36 41 50 56 62 66 62 60 61 64 67 70 70 68 68 64 73 68 77 81 70 56 49
63 63 57 46 35 33 34 30 27 33 40 56 32 34 40 37 36 37 38 40 45 55 58 69 70 63 61 61 62 62 61 59 56 54 55 54 60 74 83 70 66 53 41
60 65 62 53 40 38 39 38 32 28 28 42 34 42 49 59 45 41 39 43 50 57 63 82 67 62 61 62 65 67 67 57 42 40 41 48 54 77 56 44 45 42 28
67 68 69 64 50 48 48 46 44 36 30 34 38 40 50 58 65 52 45 41 50 55 72 78 68 65 64 65 68 68 61 36 31 29 32 38 53 72 38 29 29 24 22
71 69 71 72 62 62 67 67 63 52 40 35 36 39 40 48 62 66 57 50 44 52 60 65 67 65 64 66 66 64 47 30 25 23 25 30 31 32 25 24 23 21 19
72 59 60 66 68 70 70 74 78 75 58 45 38 41 43 44 52 66 69 63 56 49 58 62 66 67 67 66 66 67 44 28 23 19 20 22 23 26 26 25 22 20 17
72 67 63 63 66 72 58 68 78 77 70 61 50 43 39 44 48 59 69 70 69 50 56 64 69 70 69 67 68 70 50 27 20 18 18 19 21 24 26 25 21 17 17
56 63 64 66 70 71 72 71 74 74 74 73 68 60 50 42 42 47 60 67 70 67 56 62 70 73 71 70 70 72 56 27 22 20 19 19 20 22 24 22 18 19 17
29 32 46 63 66 67 67 70 69 66 66 72 74 77 74 61 45 42 50 59 68 72 65 60 72 78 74 74 74 75 64 29 25 22 20 20 20 21 21 20 20 17 16
25 26 29 39 64 68 67 69 67 67 68 70 73 74 76 76 61 50 46 53 65 74 78 69 76 82 79 76 77 78 68 31 28 25 23 21 21 21 20 20 18 18 16
26 26 28 29 38 63 70 72 71 67 66 72 68 69 72 76 77 69 59 53 63 70 79 82 80 88 85 79 78 78 67 34 31 28 25 20 21 20 20 20 21 20 19
32 34 31 30 29 32 41 49 44 40 42 56 61 56 60 68 70 77 72 64 55 62 66 77 80 90 90 84 79 77 63 36 34 31 27 22 22 22 21 22 22 21 21
25 27 31 32 32 32 32 32 33 33 33 35 44 54 56 59 59 66 71 70 63 56 64 78 78 82 92 87 79 75 51 43 35 35 31 26 24 24 23 25 26 24 24
23 26 25 27 30 31 32 33 34 34 38 37 40 35 47 56 59 58 60 61 69 71 67 71 72 75 88 90 83 74 52 40 36 36 35 30 28 28 28 28 28 28 27
27 26 26 24 24 25 31 35 36 35 36 31 30 30 30 39 51 56 57 62 64 66 77 75 72 75 85 94 88 82 77 59 38 36 36 35 32 30 32 31 30 30 30
43 38 32 27 26 26 26 33 35 34 34 34 34 34 35 36 45 52 59 62 60 62 65 70 79 79 82 94 94 85 76 70 67 39 38 38 37 33 35 33 33 32 32
38 41 39 37 35 30 30 31 35 37 35 36 37 36 38 39 43 49 51 63 63 61 61 62 68 85 85 91 97 93 87 83 71 43 42 41 41 39 37 35 35 34 32

GFSSE_850_rhum_048.txt.gz
RH
48 49 78 93 87 83 74 80 81 80 85 91 99 91 90 90 88 78 64 61 58 56 64 81 62 53 51 78 74 72 67 65 66 58 56 53 46 32 21 22 36 73 45
52 75 82 96 96 77 78 80 78 78 94 99 100 94 92 85 72 64 50 48 47 53 88 90 89 61 42 59 64 66 64 62 58 53 46 36 23 18 22 28 30 34 30
80 94 83 94 66 76 78 78 82 88 90 88 88 84 82 72 62 26 38 55 56 61 94 93 83 55 37 54 58 53 54 51 45 38 33 70 28 26 31 42 49 42 37
92 95 94 80 72 82 88 89 87 89 86 96 92 62 69 56 30 59 84 85 87 95 99 92 71 51 40 29 28 33 38 35 35 39 86 89 85 48 53 66 72 69 62
92 92 94 76 75 75 88 91 89 83 85 97 94 40 51 27 42 89 93 91 98 100 93 82 65 40 23 24 33 42 46 49 50 74 93 95 92 88 85 83 88 90 90
91 91 70 75 90 90 96 98 90 78 80 92 62 32 29 16 40 76 90 98 97 98 90 73 48 27 29 39 49 61 63 67 75 93 95 81 100 90 72 75 98 94 86
91 91 73 75 88 95 99 98 95 83 87 86 64 34 19 16 21 44 77 77 98 87 63 50 33 30 39 50 59 64 65 66 91 90 93 98 89 82 77 82 84 80 84
94 94 95 94 99 100 100 94 88 89 91 76 63 36 19 17 17 20 37 67 70 60 55 38 32 46 58 64 66 67 68 67 89 92 93 99 74 70 88 75 74 75 80
93 79 92 84 99 97 91 55 51 59 84 68 46 28 20 21 19 18 32 52 58 49 32 37 50 61 67 66 61 60 64 70 91 91 92 99 86 69 75 63 52 49 48
85 78 86 93 92 91 63 41 39 37 71 91 56 24 25 26 27 26 23 24 27 30 41 55 59 67 66 61 61 65 66 72 93 82 90 95 78 71 81 87 78 58 45
91 93 94 91 92 89 82 41 38 39 89 79 55 26 28 48 33 34 36 35 37 50 55 70 66 63 58 58 60 61 61 72 82 84 86 65 73 79 81 77 65 47 36
66 75 89 91 90 66 47 59 37 71 85 88 54 32 57 93 88 77 41 43 48 90 86 80 69 60 57 58 60 63 67 61 75 83 88 54 73 69 54 44 38 34 25
57 63 63 77 86 58 50 65 84 95 94 94 89 82 86 94 87 66 71 46 74 69 91 84 76 64 61 61 63 65 63 48 62 79 88 40 76 53 28 26 26 23 19
66 67 67 66 68 51 50 48 75 90 92 92 78 84 88 82 95 96 94 92 93 94 99 96 86 64 62 62 64 63 58 37 48 67 90 39 46 28 26 23 23 21 19
62 67 71 69 78 67 57 79 80 86 70 75 63 53 87 84 93 96 97 96 92 93 94 93 66 64 64 64 65 65 64 39 31 62 82 31 30 26 26 24 22 20 18
88 81 69 66 74 95 69 70 73 74 83 75 68 60 44 69 65 74 93 98 96 94 92 79 63 66 67 66 66 66 66 49 29 36 70 60 26 25 26 28 23 20 16
63 78 92 79 63 64 68 74 75 77 70 70 73 90 65 54 56 55 68 94 94 95 78 63 61 64 67 68 68 68 69 60 29 26 24 72 42 26 25 25 21 17 18
34 40 60 83 72 71 63 64 64 70 65 63 72 75 74 67 56 54 69 93 96 97 79 60 57 63 69 70 70 71 72 68 34 26 24 22 31 51 23 23 20 19 17
30 31 29 31 62 71 50 62 64 67 67 66 71 66 63 70 76 68 64 85 95 94 80 71 62 62 72 76 73 73 74 72 43 28 26 23 22 22 30 19 20 18 17
29 27 27 27 35 48 78 59 66 62 64 71 67 65 69 62 64 78 73 80 88 86 84 74 74 69 76 82 78 75 75 74 57 31 29 26 24 20 21 19 19 19 19
33 33 33 32 28 32 68 70 58 67 63 62 59 56 66 62 64 67 70 75 68 65 85 68 75 82 78 86 83 77 75 74 65 36 32 29 27 22 22 20 21 22 21
26 27 29 31 33 33 37 75 40 46 59 62 59 52 53 57 55 61 61 65 71 71 77 77 72 81 87 88 86 67 61 65 71 53 34 32 30 24 23 22 23 25 25
23 23 24 26 28 31 32 38 76 89 86 46 39 37 36 39 50 54 54 58 63 72 69 64 59 65 89 83 90 75 68 65 54 53 41 35 33 29 26 26 25 27 29
40 36 30 27 26 26 29 33 42 75 86 64 42 35 32 33 35 47 57 52 56 58 62 66 64 61 83 83 87 88 79 58 46 46 40 36 35 32 30 28 29 30 32
40 40 38 35 31 27 27 27 29 60 84 88 89 90 51 36 34 36 38 55 54 58 59 59 68 68 68 85 74 83 87 82 65 52 47 45 40 35 34 32 32 33 34
41 39 38 39 39 36 33 30 29 31 67 88 92 93 81 65 46 42 45 47 56 57 58 59 63 72 77 82 84 84 85 88 82 74 55 57 41 39 38 36 34 36 35

GFSSE_850_rhum_051.txt.gz
RH
80 40 43 84 86 86 78 75 77 82 86 86 90 92 92 92 90 79 65 65 63 59 66 66 51 58 56 80 82 78 69 64 64 59 55 51 40 23 19 24 65 66 82
81 50 56 82 94 80 78 79 79 83 87 96 98 100 94 90 73 60 52 54 49 57 89 81 64 45 42 57 72 66 64 63 59 53 44 43 20 18 24 29 30 26 43
80 91 72 94 83 74 80 82 79 82 96 93 94 85 84 76 59 27 41 50 48 75 93 91 67 40 33 55 56 58 58 55 47 38 66 68 31 31 41 48 43 32 34
78 94 93 81 70 76 84 80 83 89 90 86 52 61 75 56 27 80 81 67 80 96 95 85 66 41 27 33 34 42 43 37 33 65 79 80 79 57 65 73 76 72 60
78 88 92 64 69 82 86 86 90 94 95 98 64 47 48 23 58 90 91 92 93 96 88 81 56 27 20 22 28 32 37 42 60 84 90 75 96 86 83 88 92 88 88
75 81 82 72 76 87 93 94 93 90 93 98 72 39 23 24 74 88 91 92 95 85 85 77 40 24 30 37 47 55 55 66 86 88 90 88 96 90 87 90 95 85 83
72 85 75 81 81 89 96 98 96 91 92 98 44 25 17 22 50 73 90 98 97 92 79 50 26 30 40 51 61 63 65 73 87 87 87 91 83 86 84 81 82 80 82
74 83 93 77 88 91 96 97 98 90 96 97 64 27 17 16 18 28 68 77 93 79 52 40 30 43 54 60 62 64 64 65 85 85 89 93 70 80 82 74 64 72 78
80 81 93 90 100 98 96 99 97 84 94 92 61 29 20 17 17 22 36 66 66 56 46 30 42 54 60 59 55 56 60 73 83 87 87 86 80 69 63 61 44 41 44
84 80 80 91 91 100 100 99 89 69 61 65 57 33 22 24 20 18 34 45 48 38 29 41 50 59 57 53 53 57 60 67 87 89 87 88 74 80 76 69 49 38 34
85 82 77 79 89 89 90 72 55 45 48 95 68 33 24 27 28 25 23 24 24 29 41 57 56 58 53 51 53 55 58 80 78 79 83 76 70 77 72 68 42 36 30
88 83 81 80 82 84 82 83 46 48 70 99 85 42 34 81 59 60 43 33 33 64 73 59 63 58 56 58 54 57 67 70 73 78 82 74 72 56 57 46 34 33 25
73 86 88 85 83 83 80 81 79 81 91 99 92 90 82 83 85 62 44 36 41 49 72 65 72 60 60 64 68 68 66 65 62 75 78 55 56 48 33 26 26 25 20
95 85 66 89 89 85 80 80 73 80 87 82 85 78 82 84 91 92 85 56 56 90 93 88 90 80 67 58 61 64 60 57 58 66 77 63 54 31 24 22 22 20 18
91 96 81 72 93 93 87 79 77 77 86 87 85 80 77 84 86 89 88 87 85 86 88 92 92 82 71 62 60 60 59 57 55 67 78 64 28 27 21 20 20 20 17
79 87 97 72 64 96 94 90 86 84 85 92 90 87 79 80 86 88 87 88 88 84 85 86 88 84 70 62 59 60 58 56 53 61 71 59 30 23 21 21 21 20 17
60 68 81 87 57 69 92 72 90 93 90 89 94 95 86 71 76 87 88 87 89 90 88 87 86 82 69 60 57 61 63 62 57 53 60 75 45 22 22 23 22 20 17
39 43 57 73 90 95 94 88 66 95 97 95 91 94 97 93 73 79 82 86 87 91 95 90 90 84 69 61 62 60 63 67 65 51 52 58 65 38 26 21 22 20 17
36 38 38 43 61 79 86 97 67 65 80 95 97 95 94 97 96 91 86 85 87 89 92 94 92 84 70 64 62 60 64 68 70 60 44 39 44 54 41 23 20 19 18
30 32 34 35 36 49 64 78 87 63 57 70 99 95 97 94 87 93 92 92 90 89 91 98 94 89 71 66 64 61 66 70 71 69 49 39 36 29 36 29 21 18 18
36 37 36 37 37 38 47 60 79 66 36 42 65 84 95 85 91 98 90 92 94 91 89 91 96 93 78 73 68 65 65 72 73 72 64 41 37 32 27 24 21 19 19
31 31 33 36 38 39 38 42 54 73 38 29 36 58 78 88 78 77 86 80 81 83 90 96 96 91 85 77 69 68 68 68 75 73 69 53 37 35 31 25 22 22 22
47 28 24 26 30 37 38 40 44 65 86 83 58 44 58 70 87 100 81 82 85 94 89 84 94 92 81 77 76 72 72 68 61 61 67 63 42 40 38 30 26 24 23
48 39 37 32 28 26 27 33 39 52 69 82 86 91 81 62 52 59 72 94 97 100 99 90 85 92 93 80 76 80 71 64 65 57 58 56 50 42 41 37 30 29 27
44 38 38 40 50 38 30 28 30 33 38 58 75 84 85 90 81 56 56 84 93 95 94 100 100 93 82 90 71 72 81 77 64 56 55 52 45 41 40 42 35 35 31
63 47 40 38 42 53 44 39 35 32 37 54 63 80 84 89 92 96 91 84 94 98 100 100 100 98 86 89 90 79 73 78 78 77 69 62 58 52 46 43 39 38 35

GFSSE_850_rhum_054.txt.gz
RH
73 39 37 72 76 81 72 76 76 79 86 85 86 88 88 88 90 79 64 65 58 65 67 55 58 64 61 87 84 75 66 64 63 58 51 39 22 19 27 54 49 64 87
55 37 54 81 80 84 72 76 82 85 94 93 96 98 92 87 70 58 48 51 48 86 76 70 49 30 45 61 73 67 65 62 54 47 46 26 23 30 37 37 30 31 59
63 45 51 86 97 75 78 82 84 91 98 94 93 83 79 65 39 29 45 42 57 92 90 80 57 36 29 57 57 63 60 51 46 74 78 77 43 46 56 59 44 36 38
79 61 64 78 87 78 79 82 83 96 96 87 53 60 67 40 70 66 62 53 78 92 88 76 52 23 23 31 43 43 40 40 74 83 86 88 79 73 74 79 82 71 68
88 82 62 85 71 85 86 80 88 97 84 42 41 51 43 35 86 88 86 88 94 92 84 80 35 20 20 25 29 34 42 70 88 88 74 84 89 82 86 93 83 87 86
86 92 69 57 77 84 97 97 91 88 95 61 45 38 19 63 88 91 88 92 89 84 83 74 26 26 33 42 50 50 66 83 85 89 82 88 89 88 85 93 86 89 88
79 86 77 64 80 90 95 95 95 93 96 93 41 24 17 44 73 82 88 98 89 89 83 43 25 35 44 52 54 54 62 82 85 90 88 77 86 90 75 74 73 72 72
75 83 81 63 72 86 96 96 96 93 96 92 46 20 16 22 28 58 73 84 84 86 53 34 32 43 51 52 53 54 61 85 85 81 84 80 70 80 69 62 50 57 70
76 84 66 65 84 89 97 96 95 91 95 89 51 21 17 16 16 23 51 56 65 52 40 27 39 50 52 50 49 54 62 83 83 85 88 84 79 64 60 57 43 40 39
79 82 83 63 55 85 98 98 97 89 88 81 55 23 19 18 17 22 30 45 45 39 27 32 42 49 48 47 49 51 58 78 82 80 86 82 65 74 59 51 32 24 25
83 78 82 86 72 83 90 84 89 95 70 58 58 34 20 21 20 19 36 44 39 28 26 36 42 46 45 47 48 50 57 78 80 83 84 82 49 60 52 43 31 21 21
84 80 77 80 85 90 92 93 65 43 40 45 54 47 22 25 29 24 23 23 25 28 32 41 43 44 44 46 48 52 61 68 73 76 79 77 54 44 40 34 25 21 18
82 82 80 78 81 84 85 81 64 38 37 44 85 49 26 64 74 50 36 32 31 32 35 44 50 50 49 44 50 54 60 61 65 72 65 64 45 28 30 18 17 18 16
66 82 82 84 83 82 81 75 75 62 77 67 80 79 52 78 82 76 45 37 33 35 40 43 54 65 54 55 55 59 55 56 55 61 61 62 55 21 25 19 16 16 16
85 68 71 85 88 86 83 78 76 76 86 83 88 85 75 76 85 84 71 73 62 44 75 77 82 68 70 60 59 58 58 55 50 54 56 65 55 25 22 18 16 16 16
82 83 76 61 71 86 89 79 78 75 78 85 84 83 79 78 82 83 87 84 81 73 89 89 90 93 86 63 59 56 58 57 55 55 54 53 50 33 21 19 18 17 17
68 71 73 59 54 70 92 91 83 86 83 84 87 90 87 77 80 81 78 88 87 86 77 84 87 88 87 72 59 56 57 58 58 55 50 47 39 36 23 19 18 20 17
45 48 73 74 72 66 71 94 85 86 94 91 90 92 92 85 78 75 79 76 87 89 89 82 84 87 87 77 64 55 56 60 61 60 56 48 40 34 30 22 19 20 19
33 38 44 50 72 84 84 83 87 75 84 95 96 91 94 93 88 85 74 70 72 83 90 90 87 88 86 80 67 58 59 59 63 66 61 54 43 33 29 31 24 18 18
27 30 33 36 39 49 67 82 84 77 64 76 82 96 95 92 83 92 89 84 81 79 84 90 86 88 88 83 68 64 60 59 62 67 68 62 47 37 31 29 28 21 17
30 32 33 33 35 36 36 51 66 74 71 65 51 57 82 93 85 74 78 81 85 85 84 84 86 87 89 89 77 70 60 58 63 68 70 69 62 47 34 31 29 24 20
29 29 29 31 34 35 36 36 47 56 62 58 54 43 45 70 99 93 85 74 70 81 90 91 86 86 89 88 80 72 63 59 63 70 71 71 68 61 42 34 31 27 23
41 34 31 30 31 34 37 39 38 43 52 81 73 50 33 40 66 93 97 99 75 69 82 92 89 87 86 90 88 70 68 68 64 64 67 72 70 64 58 40 35 31 27
48 40 37 35 31 27 27 34 40 41 41 57 82 80 70 64 53 57 84 89 97 99 99 88 96 94 100 96 92 84 72 66 67 62 62 61 65 62 61 50 39 35 31
52 41 39 39 42 47 37 33 30 30 34 42 58 72 81 88 88 77 70 74 97 97 98 100 100 99 100 100 90 86 80 75 68 64 58 58 59 59 57 56 46 41 36
58 50 45 44 44 47 55 52 49 42 37 34 33 38 51 70 83 87 88 87 100 97 98 99 99 97 97 99 100 98 90 82 79 68 60 61 60 59 56 54 51 49 47

GFSSE_850_rhum_057.txt.gz
RH
80 56 66 68 67 64 70 68 71 82 81 81 82 84 84 87 84 71 58 55 58 67 48 52 62 60 74 87 79 68 65 65 63 54 35 20 19 23 33 37 55 74 79
64 58 70 74 76 64 64 69 80 87 92 90 95 96 93 83 60 44 41 46 87 69 72 49 27 25 49 73 71 66 63 57 55 55 41 34 32 37 36 31 33 50 54
54 49 71 69 76 62 70 84 85 93 93 90 80 82 77 50 25 40 38 56 90 88 81 64 30 24 43 53 67 62 53 65 76 70 67 67 59 65 68 56 40 40 44
57 58 78 92 76 73 78 82 85 98 95 88 52 60 46 53 57 54 47 79 91 89 81 64 21 20 30 47 46 45 51 78 84 89 79 81 84 78 83 85 76 75 68
60 54 72 98 79 82 76 77 87 96 89 39 35 40 38 83 80 71 76 88 92 87 83 58 20 18 22 27 31 39 66 86 80 77 81 85 87 91 88 80 82 82 82
74 68 82 93 75 82 82 83 87 85 43 32 30 23 56 86 90 84 87 91 85 80 79 38 22 27 35 39 41 60 78 89 89 78 80 88 93 84 94 93 85 85 92
81 80 79 71 84 89 92 96 92 91 61 45 29 16 46 82 76 80 85 95 81 80 73 26 28 36 45 48 52 65 72 86 89 85 80 79 87 81 72 71 65 66 68
81 88 75 65 87 97 95 96 95 91 58 24 29 17 24 48 63 72 73 84 74 79 40 25 34 42 46 47 49 60 79 83 84 83 83 82 74 72 59 48 43 41 62
81 83 82 63 85 95 97 96 91 89 60 24 23 17 16 16 28 49 51 56 64 51 33 27 38 45 44 43 46 56 77 85 82 80 84 74 72 62 56 49 36 34 36
78 79 70 67 73 84 97 97 96 88 78 46 31 18 17 16 16 23 38 38 37 32 27 30 38 41 41 40 42 46 62 75 80 72 76 79 71 54 48 39 27 20 20
80 79 79 61 59 68 93 98 92 86 59 47 34 19 17 18 17 19 26 31 34 31 24 32 37 40 40 40 43 45 49 56 65 67 70 80 74 44 38 28 20 17 15
82 82 80 78 78 58 68 66 65 45 40 31 30 31 19 19 21 19 25 27 27 23 24 32 38 41 41 42 46 48 52 58 64 63 61 66 62 45 27 22 16 15 14
82 82 81 80 83 75 70 73 70 54 33 29 32 40 26 25 30 24 23 24 24 23 26 31 35 42 42 42 43 51 49 53 58 57 55 51 45 35 19 16 14 14 13
83 82 81 80 83 82 82 82 67 56 40 51 40 55 46 36 46 57 51 33 30 29 32 40 41 49 46 43 42 51 50 53 54 53 48 52 48 47 20 13 13 14 14
80 83 81 81 82 84 83 78 67 62 64 74 66 72 74 61 54 72 71 59 43 38 33 40 49 63 64 52 50 54 54 53 53 50 51 49 51 52 31 14 12 13 14
76 70 79 83 83 84 86 83 72 67 71 84 81 78 84 78 66 76 75 65 64 63 59 50 65 78 78 67 65 56 54 54 54 53 52 52 49 47 42 19 14 13 13
67 66 66 58 71 76 79 90 80 76 77 79 83 83 84 84 76 76 79 70 70 82 80 74 81 92 92 88 82 60 55 57 57 54 54 55 52 47 38 27 17 16 13
47 70 70 74 74 70 71 76 86 81 82 81 84 86 88 86 84 76 76 77 72 82 89 88 79 83 90 90 86 73 56 55 57 58 58 58 57 51 41 34 24 19 15
33 37 42 57 65 72 79 79 76 82 86 86 84 91 90 91 87 83 75 71 74 77 82 90 90 84 79 81 85 83 68 56 54 58 60 60 61 58 49 36 29 25 18
23 30 34 37 39 41 55 76 87 82 82 83 82 81 80 90 90 74 75 72 78 77 78 81 84 91 88 80 84 84 78 63 57 57 60 64 64 62 58 44 34 31 24
26 25 28 30 35 38 43 44 55 74 83 74 76 76 80 83 76 91 82 79 75 84 82 79 79 90 92 89 91 91 86 70 63 59 59 64 66 66 64 57 41 34 31
28 28 30 33 33 34 35 36 37 40 49 59 66 67 71 74 75 71 73 91 84 88 91 84 86 87 86 90 94 93 81 72 69 62 59 60 66 68 68 65 55 38 34
28 27 27 27 28 28 30 34 36 38 40 45 50 64 75 78 68 62 76 82 82 86 85 88 89 90 75 72 77 90 77 72 65 60 59 58 63 69 69 68 63 50 39
34 35 33 31 31 30 31 35 38 40 41 42 44 53 78 84 77 73 66 72 80 80 85 82 86 87 80 80 85 98 92 74 65 63 59 58 62 68 67 65 62 57 47
44 42 40 40 42 41 36 35 31 30 30 30 33 42 58 68 80 83 84 73 67 70 76 82 89 86 88 98 92 94 97 93 82 73 67 63 62 62 66 66 63 60 55
60 53 48 43 42 43 43 42 46 42 40 38 36 33 33 41 52 63 78 80 83 83 84 83 85 87 97 100 100 100 99 98 94 85 77 71 68 66 65 62 66 70 67

GFSSE_850_rhum_060.txt.gz
RH
79 48 67 62 64 64 66 69 70 74 79 78 78 76 71 85 78 54 50 58 52 46 60 68 66 68 89 89 78 65 65 64 63 51 29 20 22 28 30 66 88 88 72
62 52 59 61 61 70 74 72 80 80 81 88 92 94 87 73 51 40 46 77 63 70 53 31 23 47 78 75 66 63 62 61 56 40 30 37 38 39 30 32 50 48 39
67 56 62 77 74 78 74 81 85 89 83 88 84 74 67 33 30 36 58 89 87 78 67 24 19 25 55 71 64 60 60 57 55 52 48 62 63 67 62 45 40 42 45
66 57 68 81 79 71 80 80 79 70 73 68 55 56 33 49 43 44 76 92 88 82 72 19 17 36 46 54 58 58 60 60 59 70 81 81 81 88 86 76 80 70 74
58 58 72 81 74 76 83 76 74 63 77 39 36 31 68 64 58 56 88 91 89 78 65 19 17 22 39 42 48 58 56 62 66 69 79 89 96 88 88 80 78 81 96
60 67 95 97 84 77 76 71 73 62 46 30 26 35 73 80 78 88 89 90 85 69 54 21 25 27 26 29 45 55 69 77 78 82 87 92 96 92 90 87 85 89 94
62 64 97 94 86 85 78 81 79 54 30 26 25 42 73 61 71 74 80 75 75 66 37 24 32 37 39 41 53 60 69 86 79 78 79 80 89 82 72 67 60 62 69
66 72 92 81 92 88 88 86 90 60 24 16 21 50 72 55 51 53 45 71 66 66 29 28 35 38 40 42 49 56 61 72 76 69 73 74 69 66 52 43 42 40 56
80 78 63 72 91 97 98 90 98 76 32 15 15 16 32 50 56 53 50 59 58 49 27 30 36 38 40 42 46 61 64 71 67 65 67 60 55 49 42 39 31 27 34
89 88 85 69 95 98 98 99 87 81 47 33 18 15 14 18 31 51 50 55 56 41 28 30 37 37 37 38 41 51 66 66 67 66 62 64 57 36 32 26 21 15 16
86 81 74 71 76 80 72 77 91 77 52 34 28 18 16 15 16 20 35 45 47 39 30 33 40 40 39 38 41 44 54 57 50 55 63 68 68 57 33 19 15 14 13
84 80 76 65 61 65 66 63 68 52 53 38 34 28 18 18 18 17 22 27 35 37 29 34 40 43 42 42 44 46 49 53 54 52 53 56 60 56 40 21 13 12 12
83 80 80 80 77 58 49 52 58 58 45 37 33 38 26 21 20 21 20 22 24 24 24 30 38 42 43 43 46 49 54 58 57 52 54 51 51 45 38 19 15 13 12
79 81 84 84 83 78 71 63 64 57 51 36 32 40 41 24 27 32 33 34 32 27 26 30 35 43 47 46 48 48 51 54 56 58 53 51 47 45 43 27 14 13 13
84 79 78 83 86 85 81 76 74 63 52 54 60 50 54 50 43 46 53 60 56 41 32 33 37 43 47 52 47 47 47 51 52 55 53 50 52 47 46 39 19 13 13
84 84 82 78 80 78 78 83 81 73 61 70 76 72 70 70 69 65 59 61 65 62 60 58 45 54 62 64 61 54 50 50 51 54 54 52 50 52 49 42 29 16 14
65 67 81 82 80 76 72 75 81 80 71 69 77 81 82 79 75 75 68 67 69 68 67 71 72 66 67 79 78 77 74 61 51 50 52 53 53 54 53 46 34 23 17
57 62 71 71 81 84 81 76 77 78 74 74 76 81 83 85 85 82 79 69 71 76 76 79 80 78 74 79 86 85 82 81 57 51 52 55 55 56 57 54 43 32 22
33 40 51 72 76 82 84 84 84 83 81 78 80 81 80 82 85 84 81 73 75 75 76 78 82 88 87 82 80 87 90 87 78 60 53 55 57 58 59 59 53 41 30
26 31 38 40 47 50 68 79 86 87 87 86 86 87 86 83 81 90 85 77 85 85 81 78 76 84 92 90 91 86 86 88 87 80 65 55 56 59 60 62 60 52 37
24 24 28 34 36 39 41 50 61 70 81 86 86 85 87 86 87 80 77 77 71 82 79 83 85 82 86 92 96 93 92 90 89 84 80 65 56 56 60 63 63 61 50
26 26 27 32 36 37 38 41 42 43 51 56 60 74 80 82 80 80 79 78 78 78 79 80 92 94 91 86 89 97 94 90 89 80 82 74 62 58 58 62 64 64 61
30 29 29 29 30 33 35 36 38 38 39 40 43 51 61 73 85 88 86 74 69 80 77 83 87 93 96 92 91 97 92 88 79 70 66 67 66 63 59 59 65 68 64
32 29 27 27 28 29 29 30 31 33 37 40 43 43 42 43 48 57 66 70 76 70 79 79 79 82 87 93 94 94 100 93 82 72 66 63 60 61 60 58 61 66 68
37 34 33 35 37 37 35 33 32 32 32 33 35 36 36 38 50 69 79 77 75 76 73 74 78 79 79 86 94 88 90 100 100 98 90 86 79 74 69 64 62 63 65
43 41 39 39 40 40 40 39 37 37 38 37 36 33 31 32 38 44 49 58 70 72 75 83 85 84 87 93 92 95 99 100 98 100 98 95 93 86 84 77 73 77 69

GFSSE_850_rhum_063.txt.gz
RH
59 74 81 60 64 73 74 72 67 70 76 78 77 70 73 73 60 46 57 49 53 71 66 67 67 71 91 90 75 66 65 65 61 47 28 22 25 28 56 93 79 69 51
44 70 62 58 59 70 76 72 78 76 78 84 90 73 72 54 44 43 72 61 66 47 30 24 52 80 84 71 66 66 65 62 54 35 31 38 44 35 27 38 36 33 33
48 58 60 56 59 74 74 82 82 89 92 92 55 54 36 30 30 48 83 71 74 66 24 16 18 62 76 71 67 66 62 53 47 40 51 60 69 65 54 46 46 58 63
50 55 65 66 76 80 75 84 91 93 84 68 53 28 39 37 44 69 91 86 78 63 19 14 27 37 65 66 62 57 50 44 60 70 75 79 90 88 75 76 74 79 97
65 52 82 77 79 72 79 77 77 69 68 39 28 31 50 48 57 78 90 84 80 54 18 14 25 38 44 49 48 43 35 45 59 77 82 93 89 87 80 78 83 94 91
67 63 86 80 71 80 83 71 71 46 39 27 22 51 56 60 61 84 88 85 71 46 20 22 20 24 34 35 34 37 51 58 73 78 87 94 92 91 85 88 87 94 93
60 70 94 82 74 81 76 68 62 33 19 23 40 82 86 72 81 85 84 80 54 43 23 28 33 31 30 33 46 54 62 66 64 72 82 86 92 74 58 57 48 48 73
58 75 97 95 89 84 78 73 65 38 17 18 27 87 67 85 84 73 69 62 58 44 25 31 36 38 40 44 48 51 58 62 58 66 68 68 64 56 45 40 36 34 41
63 60 88 93 89 90 87 81 63 51 21 15 15 18 35 77 68 64 58 67 60 47 27 34 39 41 43 48 50 56 62 59 58 55 57 54 50 43 39 34 29 23 28
74 69 62 78 92 98 96 90 67 56 34 20 16 14 16 22 43 52 60 65 62 49 31 34 41 43 45 47 54 60 63 66 63 58 56 63 59 52 36 26 21 17 15
92 88 82 63 83 90 86 83 75 68 54 35 31 17 16 16 17 28 41 41 44 40 33 31 41 43 43 45 52 67 67 61 61 52 58 64 64 55 44 27 18 13 13
88 85 80 77 81 80 79 71 72 67 61 52 45 32 18 18 17 19 26 37 39 37 31 26 34 40 41 44 48 51 61 65 60 60 60 61 61 56 48 35 19 12 12
81 79 74 72 73 74 74 71 67 64 54 47 42 39 33 20 20 19 20 28 33 34 30 25 30 35 40 41 44 45 50 54 59 58 58 59 61 57 48 43 27 15 12
81 75 79 81 79 75 65 61 61 68 64 56 42 37 39 36 22 23 23 24 26 26 25 25 28 36 40 43 42 43 44 47 51 53 53 55 56 56 53 48 41 20 14
83 77 78 82 82 80 78 73 75 73 64 56 48 48 40 42 30 33 45 49 55 54 41 33 32 36 42 46 49 47 47 46 47 50 53 55 54 55 56 54 47 36 17
82 79 78 79 80 79 74 74 74 77 72 62 64 63 61 60 64 60 56 56 58 60 61 60 59 46 50 56 64 62 56 51 49 52 54 56 56 54 56 58 54 45 29
75 78 76 76 77 79 78 76 75 75 77 66 63 69 74 75 74 75 74 69 66 69 72 72 71 72 69 70 71 75 78 75 74 70 57 55 57 55 54 58 58 54 42
69 75 77 80 83 84 83 81 81 79 77 74 68 69 73 77 80 80 80 74 77 77 76 78 78 77 78 80 80 77 77 80 81 81 81 63 54 55 55 56 58 59 53
39 59 73 80 82 82 84 85 85 86 84 83 80 73 74 78 77 82 77 75 82 87 84 81 82 85 81 81 85 87 89 88 85 85 83 81 71 57 54 56 58 60 61
27 34 42 61 77 82 86 92 92 90 89 90 86 79 80 82 85 88 88 86 89 94 92 90 87 86 86 84 87 89 91 93 93 91 89 86 80 76 63 55 57 60 62
25 25 31 38 42 51 72 79 80 75 83 86 84 88 91 92 92 93 94 94 94 94 90 84 90 92 91 91 92 91 89 90 91 89 89 91 88 83 81 67 57 58 61
27 27 27 28 34 36 40 43 49 56 65 65 73 86 89 93 93 91 89 87 84 84 80 78 83 93 93 92 98 97 98 93 86 81 78 79 76 79 81 85 68 60 62
29 29 29 30 32 34 36 37 39 43 46 46 49 52 57 69 78 84 84 86 85 86 85 68 76 88 90 92 96 99 96 86 84 83 78 73 70 67 66 72 73 64 62
30 30 30 30 30 30 30 31 34 36 37 38 39 39 40 42 44 45 47 55 67 70 65 73 72 80 85 86 90 92 100 100 100 98 94 85 76 70 70 70 72 70 68
32 33 32 30 30 32 36 38 38 36 34 33 34 34 35 37 39 40 41 49 59 74 74 74 74 77 82 89 85 93 98 100 99 100 100 91 96 93 90 86 84 79 73
40 40 39 36 36 38 40 41 43 43 41 39 38 37 37 37 36 35 35 37 46 60 72 71 73 89 88 87 88 90 96 97 100 100 99 98 97 86 81 89 96 89 94

GFSSE_850_rhum_066.txt.gz
RH
62 71 82 68 71 71 72 72 69 67 70 72 72 66 60 52 42 63 38 45 66 57 60 61 62 69 80 84 71 67 66 61 53 40 25 27 27 43 76 62 47 36 43
47 79 68 59 62 70 73 68 68 72 79 78 71 64 53 36 43 57 55 53 37 29 31 49 66 78 85 75 68 67 64 58 44 30 36 47 47 35 36 36 38 43 35
54 72 66 60 64 74 70 77 81 84 91 93 47 44 33 30 50 69 61 66 57 24 15 17 50 77 74 69 68 65 56 42 36 43 54 68 70 66 64 60 67 82 87
51 58 69 60 64 74 69 82 89 93 90 71 44 36 35 39 59 78 76 74 57 20 14 19 27 67 69 66 62 52 40 44 59 68 76 83 77 70 70 78 92 99 91
46 49 63 66 86 79 70 78 68 65 72 55 39 47 44 54 70 92 83 77 54 20 15 24 32 43 52 49 45 37 39 50 70 81 87 84 83 88 78 86 90 90 81
52 55 67 86 82 70 73 69 61 47 34 30 34 50 52 57 73 88 82 79 47 23 22 21 26 33 34 34 32 44 54 68 76 86 85 85 91 88 83 81 83 94 92
60 69 78 79 71 71 76 70 61 34 17 25 66 85 62 58 77 77 78 67 49 28 29 32 28 27 29 34 44 50 55 56 64 71 77 84 78 63 47 47 42 44 91
64 82 86 81 68 79 76 69 59 28 18 20 40 98 95 86 95 67 61 51 51 31 28 35 35 34 36 46 53 58 64 58 54 59 60 57 54 42 38 32 28 26 35
70 77 91 84 78 75 77 72 59 36 19 20 21 28 59 95 89 60 55 56 55 37 27 36 38 40 41 49 52 57 63 65 65 57 58 61 57 46 33 26 19 16 15
74 77 92 94 90 84 82 81 61 45 26 19 16 17 41 44 46 45 55 52 47 38 27 34 40 42 43 45 50 55 64 62 65 63 60 64 64 58 50 35 22 15 12
76 76 82 86 87 83 86 73 68 59 48 36 29 19 21 27 32 38 42 47 49 42 31 28 38 40 38 38 41 48 54 58 62 59 58 60 59 59 50 43 26 17 12
86 86 80 73 90 83 74 68 56 58 59 55 49 40 22 20 20 22 29 38 40 42 35 29 34 40 40 39 38 41 45 48 50 53 54 57 56 58 53 46 45 24 14
86 86 82 78 85 86 77 75 68 61 59 55 52 44 40 23 20 20 20 23 29 34 35 34 28 36 41 40 39 41 44 50 54 54 55 56 58 58 55 51 47 43 20
83 78 74 75 82 87 86 83 75 62 58 57 52 44 38 40 26 22 22 22 25 28 28 27 27 31 37 40 42 42 44 48 53 55 55 56 58 60 60 56 53 52 41
79 78 73 73 71 78 78 72 69 66 67 62 55 47 44 40 44 28 32 39 45 52 51 45 39 35 36 42 47 49 50 50 52 53 53 55 54 55 57 58 57 57 51
80 78 74 72 74 77 75 74 71 74 75 69 58 63 62 55 56 56 53 53 56 62 66 66 64 63 60 51 55 55 62 64 59 55 60 60 57 54 54 57 58 59 58
76 76 74 73 76 77 75 76 77 77 79 76 65 66 69 72 74 75 76 75 72 71 73 74 74 72 70 72 71 71 71 73 77 78 78 80 78 65 55 54 55 57 60
73 69 76 80 83 85 84 83 83 83 82 78 77 72 70 72 78 79 80 81 83 84 83 79 79 80 79 80 78 78 82 84 85 83 83 81 80 82 75 60 54 55 58
63 69 75 82 83 87 89 89 88 89 89 88 86 85 79 77 78 80 80 80 88 90 91 93 93 90 87 85 86 87 87 90 90 92 90 88 88 87 86 81 69 57 57
38 52 69 76 77 81 82 84 90 92 92 90 86 84 87 84 83 85 87 89 92 94 95 96 95 93 92 90 91 90 90 91 92 92 91 90 90 87 88 87 84 78 60
26 28 37 50 61 73 79 77 78 82 88 83 82 84 86 85 88 91 92 93 94 94 92 91 91 87 86 89 98 94 89 92 94 90 85 84 84 82 83 86 89 83 82
26 25 26 31 38 46 56 60 75 80 83 74 70 77 84 81 94 92 95 95 94 93 87 86 89 92 84 77 98 97 94 89 84 80 81 78 77 79 79 82 84 79 75
28 29 29 28 29 32 36 38 44 49 50 57 67 75 77 84 92 91 90 84 86 89 91 93 90 88 79 77 91 98 95 88 81 83 82 79 92 82 83 78 74 74 77
30 31 31 31 31 31 32 33 34 35 37 39 42 44 45 44 44 45 47 50 49 52 62 78 86 79 86 76 80 86 93 99 98 97 95 86 84 78 80 85 89 85 84
32 32 32 32 31 31 31 31 32 34 34 36 37 36 36 36 36 39 41 42 43 48 55 66 77 89 84 84 90 97 93 99 92 100 99 93 91 87 90 97 83 85 88
36 37 37 36 35 35 36 36 36 38 39 40 39 40 40 41 41 40 39 37 35 34 36 49 67 84 86 90 94 92 91 97 97 99 100 99 98 99 82 72 74 82 85

GFSSE_850_rhum_069.txt.gz
RH
54 66 78 69 72 74 75 74 77 77 74 75 72 61 50 39 62 37 59 64 53 52 54 57 62 66 80 76 68 66 61 51 37 26 28 29 33 41 35 34 36 42 56
46 79 82 74 76 73 72 70 67 70 75 74 64 47 34 47 47 56 45 38 26 32 44 50 58 68 79 72 67 64 54 38 30 34 48 53 47 44 44 58 70 76 36
49 87 75 82 68 73 74 65 68 80 81 48 42 36 32 54 63 57 63 46 22 13 15 26 60 68 69 67 65 56 39 34 46 57 76 73 64 66 65 85 90 89 76
56 75 68 74 80 72 65 76 82 96 96 54 39 34 41 59 66 67 68 48 19 13 17 19 49 66 66 62 53 39 37 63 68 82 82 69 66 70 88 92 90 87 75
54 70 95 81 80 65 73 78 93 83 80 52 44 42 52 64 80 80 76 46 21 16 21 26 35 55 51 45 34 36 46 60 76 83 77 82 85 83 81 87 84 86 77
51 74 94 77 82 66 73 70 59 53 48 46 47 43 54 68 82 84 73 45 24 23 21 24 30 34 34 32 41 48 61 70 81 82 80 84 82 75 64 58 55 71 85
58 77 73 94 84 66 67 64 54 39 24 30 58 48 51 69 92 81 74 47 28 26 29 27 28 29 33 39 45 49 53 59 70 73 72 71 70 60 42 34 31 32 63
57 74 80 96 79 72 70 64 46 31 23 23 65 71 59 82 96 76 67 48 36 27 33 35 32 34 40 46 46 48 51 52 51 53 55 53 50 38 30 24 18 16 20
61 78 80 83 76 81 78 69 52 27 21 18 27 77 98 98 98 65 56 46 40 27 31 34 35 36 41 44 48 55 57 54 52 51 54 55 52 47 41 29 18 14 13
77 89 90 86 78 78 76 75 65 34 20 17 19 20 31 48 35 50 49 50 48 37 28 34 36 37 37 36 39 42 45 44 48 50 48 51 51 49 46 42 28 17 12
84 87 92 89 95 84 78 76 73 50 31 19 18 20 30 35 40 46 40 45 47 40 31 29 37 38 37 38 40 43 47 50 52 53 53 55 56 53 50 47 44 32 15
88 89 93 92 90 87 72 68 65 60 53 44 40 36 21 20 22 24 30 37 40 40 35 30 30 37 40 40 40 43 44 47 49 51 56 56 59 60 53 49 49 45 28
81 83 85 95 91 88 73 66 60 60 59 59 55 48 40 28 20 20 21 23 28 35 38 34 30 31 38 42 43 44 44 46 47 51 53 54 54 58 59 53 50 51 45
84 87 88 86 82 91 86 78 75 65 60 56 57 49 43 38 35 23 23 23 25 31 32 29 29 29 33 41 45 48 47 47 48 49 52 53 52 54 58 57 52 52 54
81 86 84 79 79 85 87 84 77 64 62 66 59 53 45 41 41 45 28 33 35 43 55 55 50 43 39 41 43 46 50 54 56 55 55 54 56 56 55 57 55 53 54
81 84 79 75 70 73 77 74 69 69 74 74 62 57 62 59 51 56 47 49 53 59 66 69 68 67 67 67 65 65 66 67 70 71 71 71 76 77 68 58 57 58 58
67 82 80 76 78 78 78 77 75 75 79 78 73 66 68 72 76 76 77 78 78 78 75 74 75 75 74 78 75 77 79 80 80 79 78 79 82 84 84 78 65 58 59
69 79 83 80 78 78 79 80 80 81 81 81 80 80 74 72 74 80 82 82 87 88 88 87 87 85 84 84 81 80 84 85 85 84 86 87 88 89 88 87 84 73 62
70 78 87 86 84 85 86 85 85 86 88 87 87 85 84 83 79 79 79 83 88 90 92 93 93 94 93 90 89 85 84 85 87 88 87 88 89 90 89 89 90 86 76
64 63 67 75 76 79 83 84 84 85 85 86 85 85 86 88 89 86 83 84 88 91 93 95 95 95 93 89 86 82 79 80 85 86 83 85 86 85 86 88 94 91 86
58 48 47 52 57 62 66 68 71 69 74 82 86 87 87 88 90 89 87 90 92 92 93 90 88 87 83 82 91 78 69 68 81 85 79 76 74 76 79 84 90 92 87
27 29 28 31 40 47 52 60 64 60 58 71 81 83 80 80 83 84 84 86 87 91 89 88 92 93 92 90 98 89 98 82 79 81 79 81 80 77 79 83 83 81 81
28 27 26 26 29 34 42 50 54 50 51 57 63 68 70 72 78 79 79 84 84 85 77 77 88 97 100 98 88 88 95 80 81 85 84 78 77 79 82 81 76 81 84
29 30 31 31 32 35 36 37 36 35 37 38 39 42 47 52 53 52 50 48 48 50 52 52 61 81 99 96 90 82 81 99 99 91 93 87 85 77 80 79 79 82 88
31 33 33 32 32 32 32 32 32 33 33 33 34 35 36 38 38 38 38 38 39 40 41 41 46 59 80 98 98 89 95 100 100 100 98 91 85 94 81 78 77 76 79
35 37 36 35 35 34 34 33 33 32 34 35 37 40 41 42 42 41 41 41 41 40 40 39 39 43 58 94 100 94 91 99 98 99 94 90 90 86 92 83 78 78 78

GFSSE_850_rhum_072.txt.gz
RH
71 94 78 69 69 78 79 83 82 83 80 76 71 54 47 52 38 57 56 54 56 76 78 72 72 74 76 67 66 58 41 30 29 38 34 36 40 39 52 69 90 78 30
79 94 83 70 71 76 77 79 76 76 73 71 58 38 49 45 49 44 34 27 37 47 47 56 61 73 71 66 60 44 29 30 43 62 60 58 57 60 84 86 89 68 29
86 99 79 71 76 78 81 76 72 79 55 48 42 34 55 54 63 64 38 18 14 14 23 56 63 65 64 59 45 29 36 54 67 80 71 92 71 87 89 89 84 70 39
90 99 99 79 77 84 74 69 78 81 49 43 35 42 60 63 68 64 38 16 14 18 21 51 60 60 55 44 30 35 62 69 78 77 96 93 95 85 88 84 81 73 80
92 94 98 74 84 78 69 78 91 63 58 44 38 50 64 80 81 61 36 20 18 25 25 41 51 45 40 31 38 43 60 74 75 99 100 99 99 79 65 62 86 84 85
91 91 88 85 82 71 76 75 68 54 48 48 43 54 68 78 80 62 37 24 23 23 27 30 33 32 30 38 42 54 63 74 96 98 97 89 93 50 43 39 45 74 89
88 96 88 87 78 72 75 67 57 36 25 48 47 53 63 77 82 58 46 30 26 26 25 25 28 29 35 39 42 47 52 61 93 88 89 92 44 34 28 23 23 27 52
90 100 90 95 82 71 72 66 43 26 25 34 55 53 65 80 98 69 50 40 27 31 30 28 29 32 37 40 43 46 44 46 76 87 66 74 45 42 36 25 17 13 12
94 100 91 96 85 79 73 67 43 23 26 43 64 53 74 91 98 70 57 50 38 28 33 33 33 34 36 36 39 41 44 47 85 59 56 88 47 45 42 37 24 16 12
100 100 97 97 91 89 80 72 57 26 23 34 34 48 65 55 38 52 53 49 45 32 29 35 36 37 37 37 39 40 44 47 85 56 78 64 50 48 46 42 41 27 15
100 100 100 100 100 100 97 75 67 39 22 22 27 27 31 68 44 48 49 52 50 46 32 29 36 38 39 38 38 40 43 66 80 81 80 53 51 49 48 48 46 43 29
98 100 100 100 100 100 97 83 82 60 42 34 30 24 54 44 57 37 39 42 45 44 39 32 29 36 42 43 42 40 46 46 53 68 72 52 51 52 50 49 50 50 46
93 88 100 100 100 99 97 98 97 87 67 58 53 48 42 27 21 22 24 26 30 36 41 39 36 38 37 40 43 45 44 44 52 51 53 49 49 52 53 52 50 52 52
88 86 87 96 92 98 100 96 98 94 68 68 56 52 47 41 39 26 26 25 24 29 36 36 38 34 30 34 39 44 45 47 51 56 59 50 49 52 54 56 54 51 54
96 82 90 94 95 95 96 99 98 96 66 71 62 58 53 48 44 49 44 28 31 33 45 58 56 55 47 48 46 46 51 57 60 67 64 63 60 68 70 63 59 58 55
91 97 97 93 97 98 96 95 97 95 85 69 63 58 58 64 56 51 53 38 47 54 61 68 71 71 71 70 69 72 72 77 74 74 75 76 75 77 78 77 74 65 77
78 82 92 83 88 95 96 93 97 84 76 74 73 66 64 69 75 74 74 76 77 78 75 73 73 73 72 75 75 79 83 81 82 82 82 81 84 82 84 84 83 81 72
69 78 85 80 80 81 94 84 89 82 79 78 76 75 73 70 71 75 80 82 86 87 88 87 86 85 84 87 89 97 96 88 82 84 83 82 82 82 84 84 87 89 85
67 75 82 87 86 84 84 85 83 82 83 83 82 81 80 80 80 78 76 78 83 85 88 89 91 91 93 98 97 90 89 89 80 82 79 82 81 79 84 87 84 92 92
69 74 79 74 82 86 87 87 85 80 79 78 78 80 83 86 86 85 84 84 86 86 87 91 94 92 86 92 93 85 77 80 74 69 67 81 87 75 75 77 82 84 92
70 67 68 70 73 79 79 79 80 75 74 75 80 84 88 88 88 86 86 87 89 89 92 93 94 94 92 94 90 91 97 80 71 69 85 85 78 78 78 79 83 83 84
31 54 55 56 61 68 67 68 66 66 72 73 65 78 84 84 83 84 85 83 86 86 86 86 93 93 96 99 98 100 97 71 71 77 79 78 79 77 80 81 79 80 80
31 28 28 36 33 42 50 51 55 61 64 66 61 64 67 70 70 67 67 73 77 84 83 85 85 98 98 98 98 100 95 70 75 83 80 83 82 83 84 80 79 81 81
31 30 28 28 28 33 42 47 50 55 55 46 43 43 43 43 45 49 54 57 57 55 51 50 52 52 58 90 92 100 99 96 98 90 84 87 85 84 84 92 74 76 83
32 31 31 31 33 35 37 38 36 34 34 34 34 34 35 35 36 38 39 40 40 40 39 38 38 39 43 57 97 97 99 100 98 96 98 90 84 78 85 94 82 76 78
34 32 34 36 35 34 33 33 33 32 32 32 33 34 36 37 38 39 40 40 40 40 40 39 39 39 40 46 70 87 94 97 97 91 96 93 87 84 82 89 92 75 81

GFSSE_850_rhum_075.txt.gz
RH
86 66 66 64 66 86 79 83 87 83 79 77 61 61 48 59 70 59 58 80 95 91 88 80 71 74 67 64 52 29 25 33 44 41 44 46 57 82 86 87 88 39 24
82 67 66 67 68 78 78 80 80 78 76 70 45 51 44 42 40 35 36 44 50 49 57 58 61 68 64 56 32 27 36 61 69 64 75 71 84 87 84 81 63 32 28
81 91 72 70 74 80 78 77 74 75 53 53 39 49 70 57 45 23 14 14 14 22 47 56 60 62 57 38 31 46 62 78 76 82 84 90 90 90 83 77 66 69 73
81 86 96 70 73 79 80 68 74 48 46 40 42 60 86 63 53 28 15 15 17 23 52 58 58 52 40 28 38 61 74 74 82 92 88 87 97 67 64 76 81 82 87
86 92 86 80 72 81 66 72 75 53 48 38 48 60 78 80 62 35 19 20 22 23 47 50 45 35 29 36 40 60 70 77 92 91 91 92 92 41 44 47 71 86 91
82 86 92 76 78 72 70 86 56 56 52 42 52 64 84 84 65 38 23 21 22 24 33 35 32 28 31 38 48 55 66 76 88 90 90 88 32 27 25 24 28 50 79
72 94 84 82 82 71 71 61 49 47 41 46 53 67 84 86 61 38 26 25 24 24 26 28 28 33 35 38 39 44 50 68 87 89 90 58 38 33 24 17 14 12 22
75 94 87 91 81 79 73 63 44 27 42 48 53 69 84 91 74 47 32 24 28 28 27 28 30 34 35 35 39 40 41 50 83 88 92 55 41 38 35 28 19 13 10
88 95 96 89 84 86 79 66 38 24 36 49 49 64 93 96 93 59 43 34 26 31 32 32 32 33 36 36 38 40 43 50 84 81 83 82 44 42 40 38 36 22 14
88 89 97 94 93 83 78 72 38 30 33 48 51 59 86 62 37 52 45 40 34 27 30 33 34 34 36 36 36 38 41 50 90 80 89 52 46 45 44 43 42 39 27
85 89 98 95 98 98 98 71 53 33 36 46 39 34 51 80 49 48 41 44 42 38 30 28 32 35 36 36 36 36 39 78 82 86 86 56 48 46 46 46 45 45 44
86 93 95 94 92 97 96 75 83 36 29 59 58 26 89 90 93 87 39 39 40 41 40 34 29 32 40 72 55 41 53 72 77 81 80 50 46 47 45 45 47 47 48
91 93 94 88 95 96 91 88 88 90 76 73 78 82 75 74 52 25 52 26 30 33 40 44 37 44 85 51 58 66 52 43 67 75 76 50 46 46 49 49 46 48 48
98 94 93 91 91 94 99 92 81 83 86 85 89 87 84 72 63 72 72 77 54 77 84 92 85 80 73 49 70 72 71 50 62 70 71 57 53 52 58 61 58 52 50
98 95 96 91 96 93 95 89 82 81 86 87 92 90 86 83 80 77 74 68 67 62 71 81 84 79 77 74 76 78 78 77 75 75 71 63 65 65 68 70 70 68 63
94 93 98 97 98 94 97 94 93 82 84 88 92 96 69 85 77 61 74 54 53 52 76 86 88 89 88 87 87 86 85 84 86 84 78 75 71 73 74 76 76 77 76
96 97 95 98 97 92 96 96 86 84 84 90 93 96 65 66 70 68 71 88 73 80 81 86 86 86 87 87 89 92 90 88 88 89 91 90 85 71 76 81 83 84 83
94 91 96 95 96 91 93 95 93 86 89 91 92 94 96 78 64 67 74 79 89 92 88 92 95 95 94 94 92 90 90 90 92 92 94 95 96 83 80 75 81 87 89
93 94 97 99 97 94 95 94 92 90 91 90 92 94 98 98 90 75 80 84 90 97 98 96 98 98 97 95 94 93 93 92 94 94 94 92 94 98 95 91 88 82 87
90 94 97 89 96 98 96 98 98 99 98 94 93 93 98 97 99 96 94 94 98 98 97 98 99 99 99 96 97 97 91 91 96 96 86 89 86 89 98 88 82 82 81
72 86 93 90 81 97 98 96 97 98 98 98 97 96 98 100 99 100 96 99 99 96 98 98 96 98 98 98 98 96 87 95 91 87 87 85 83 90 92 80 77 81 82
37 66 75 90 96 97 100 93 95 96 95 97 97 77 84 85 88 87 86 90 96 99 99 95 98 100 100 100 98 93 88 77 70 69 80 80 84 84 84 80 80 80 80
30 34 55 66 66 64 77 87 70 71 71 76 79 76 56 60 67 74 76 76 76 93 98 99 100 99 98 97 98 95 87 76 72 73 78 83 82 85 86 86 84 83 76
30 30 29 29 35 36 35 52 60 72 79 83 68 56 47 42 42 42 43 46 50 55 57 57 54 55 86 88 78 78 87 83 94 85 80 76 80 79 88 88 92 93 81
31 28 31 30 29 29 33 43 49 57 59 50 40 35 34 33 34 34 34 36 38 40 42 42 41 40 40 44 64 91 84 83 84 92 99 78 75 81 83 83 90 90 86
34 32 31 31 32 33 35 38 40 38 35 34 34 34 35 35 34 34 36 38 40 41 42 42 42 43 45 47 50 83 99 99 99 99 92 96 84 84 77 81 84 85 85

GFSSE_850_rhum_078.txt.gz
RH
82 49 67 85 74 75 78 84 85 74 72 49 84 38 77 61 60 78 97 95 95 88 81 70 69 66 57 32 22 35 56 52 52 55 79 82 82 82 74 47 29 24 36
51 43 58 89 83 75 78 80 76 74 71 45 50 37 52 40 46 47 55 66 61 61 61 56 60 56 39 26 35 66 65 68 75 77 78 89 88 84 67 61 64 59 34
40 43 58 81 76 76 72 75 66 54 50 40 52 54 50 28 17 14 20 26 33 49 54 53 54 42 26 45 60 74 74 88 87 87 88 80 63 69 71 71 77 84 77
34 45 57 73 78 77 71 61 44 38 36 43 64 69 58 34 17 13 13 14 29 50 49 47 37 28 29 53 66 67 74 90 89 87 86 76 42 40 47 75 84 87 77
46 49 66 76 81 78 62 59 40 39 38 48 58 78 71 44 23 18 21 19 35 44 38 32 27 29 34 45 62 64 81 90 89 87 76 56 27 23 24 32 57 82 84
76 77 73 76 81 71 63 56 47 46 40 48 57 80 78 49 30 22 22 23 28 33 30 28 27 32 38 44 54 58 82 89 88 89 54 32 28 22 18 15 14 20 51
90 84 82 78 80 65 80 50 42 46 43 49 59 82 80 50 36 25 24 23 23 24 25 25 28 31 33 35 41 44 63 66 72 76 44 37 35 33 27 20 14 11 11
85 82 79 82 78 73 70 52 39 37 43 50 63 82 80 71 46 31 25 26 24 24 24 26 28 31 31 33 35 38 44 71 83 64 53 45 38 38 37 35 27 17 12
84 86 74 87 79 81 75 64 34 42 43 49 65 79 95 65 50 39 30 25 27 27 26 28 30 31 32 34 35 38 41 66 62 57 68 46 42 40 40 40 39 34 22
88 78 89 86 80 82 75 63 39 50 53 46 54 73 74 36 34 33 31 29 25 26 28 29 30 31 32 33 33 35 38 58 66 73 75 56 43 42 42 42 42 43 40
81 84 90 94 82 86 73 62 36 58 66 62 58 68 72 43 38 34 33 32 33 31 27 27 30 33 34 36 35 36 38 52 80 80 72 57 44 41 41 42 43 45 46
78 89 80 83 96 97 84 67 43 36 52 44 45 40 85 91 68 36 40 33 33 34 33 31 29 27 30 38 41 42 48 58 62 70 62 49 44 43 41 41 44 44 45
83 81 86 89 92 93 93 76 66 39 37 75 76 55 85 88 86 57 31 28 24 27 30 34 38 41 43 46 53 46 54 44 44 68 64 55 50 48 47 51 52 50 47
77 82 83 83 87 89 91 89 86 81 80 76 80 82 77 68 58 54 57 46 30 25 31 41 42 66 65 46 53 60 57 54 54 59 60 59 58 59 58 61 62 60 59
85 81 86 81 83 84 91 83 82 83 86 87 87 88 85 80 72 58 58 55 44 40 43 55 60 61 68 69 70 71 71 72 74 75 71 65 64 66 68 69 71 72 72
94 80 83 89 82 83 86 82 82 82 83 87 89 84 86 85 71 64 59 51 41 36 43 56 68 81 77 81 85 83 81 78 80 82 84 76 71 66 70 76 79 80 82
84 83 83 92 87 87 80 86 79 83 84 86 91 92 71 66 66 61 54 68 60 63 69 74 73 76 75 74 76 79 85 84 81 83 88 91 89 83 78 78 82 87 89
89 95 87 81 87 93 86 84 83 85 84 88 90 94 84 68 64 64 68 74 81 85 80 79 83 87 87 89 88 87 90 87 91 90 88 91 94 97 96 87 81 88 92
81 78 85 92 88 84 82 84 78 84 84 84 90 94 96 84 83 77 77 80 85 90 90 88 86 90 95 93 92 90 83 89 85 84 92 93 96 95 94 93 99 83 87
87 89 86 85 86 90 88 84 88 89 89 86 90 90 90 97 95 99 90 94 95 97 96 93 94 94 93 97 95 94 91 89 85 84 86 76 76 83 82 87 91 82 84
75 92 87 80 81 98 95 93 90 89 91 88 87 90 94 90 94 94 98 100 98 100 99 100 99 97 94 97 100 96 88 79 73 72 72 86 83 81 86 87 83 81 86
50 73 73 83 70 78 88 89 91 90 94 94 93 91 92 98 94 89 93 92 91 100 99 97 97 97 98 98 96 88 87 79 66 68 69 88 82 83 81 84 79 88 87
34 41 71 82 98 87 86 89 88 81 77 78 78 88 76 73 76 77 79 82 89 98 98 97 95 98 98 93 97 96 94 83 77 74 76 78 84 79 82 78 85 87 82
36 32 38 70 73 75 74 64 64 64 78 82 79 71 62 60 51 46 44 42 42 42 43 47 49 53 63 69 73 86 84 90 99 91 68 79 82 78 80 90 88 87 90
39 34 29 31 37 51 56 55 58 69 72 74 77 72 52 37 33 32 32 32 32 34 36 39 42 44 44 45 48 53 97 99 87 94 95 77 80 80 73 90 81 78 85
41 38 31 30 31 29 29 32 39 49 52 59 50 37 34 31 31 32 32 33 35 37 40 42 44 45 48 52 48 59 97 97 91 89 85 87 95 96 86 90 74 81 85

GFSSE_850_rhum_081.txt.gz
RH
86 59 60 65 68 72 78 79 74 69 62 74 58 64 63 88 89 93 95 94 90 81 70 63 58 40 19 37 58 52 55 78 83 89 88 87 71 56 55 50 37 28 49
75 55 59 64 70 74 81 75 75 63 61 33 73 54 52 59 78 90 87 82 74 62 50 47 42 23 33 62 57 69 75 76 79 80 81 69 77 68 67 76 74 65 34
62 57 60 71 70 76 76 68 63 45 39 38 31 21 25 33 41 50 55 61 56 39 42 41 25 39 55 63 69 83 86 86 86 73 50 49 44 75 72 88 87 67 62
43 50 63 72 72 70 67 51 42 37 39 61 42 27 18 12 12 14 16 20 35 41 35 28 25 45 54 60 67 83 86 83 85 78 56 32 23 24 28 69 84 78 77
45 49 72 76 74 67 57 39 37 39 44 64 64 37 22 17 19 16 18 33 33 32 28 26 31 42 51 55 66 82 87 87 64 55 33 25 20 17 15 17 32 56 55
52 59 79 80 75 62 53 41 38 41 46 58 85 43 25 20 20 19 25 30 28 27 26 28 33 39 46 50 58 73 79 80 60 46 36 34 30 24 20 15 12 12 19
57 75 82 83 73 62 54 46 42 40 44 53 79 42 27 22 20 21 22 24 24 24 25 27 30 32 35 40 46 56 55 53 49 49 42 38 36 35 33 26 18 14 11
69 78 82 83 69 86 59 47 44 42 48 58 79 67 38 26 23 23 22 22 23 23 25 27 28 29 31 33 35 41 59 57 57 48 50 42 42 40 39 37 34 24 16
86 82 83 83 71 83 60 48 38 42 50 66 84 76 57 44 30 25 25 24 24 24 25 26 27 28 30 31 34 38 50 54 53 51 54 49 43 42 42 41 42 41 33
93 79 78 80 71 64 60 40 40 43 47 59 78 74 37 36 31 30 26 24 26 25 26 27 27 28 30 31 33 36 44 54 58 61 56 56 46 42 41 41 43 43 45
86 80 81 76 76 72 59 38 41 52 47 53 65 70 49 38 34 32 32 31 28 25 24 25 27 29 30 32 33 34 42 51 57 63 60 54 49 42 41 42 43 42 43
80 78 88 80 82 77 65 41 34 48 50 49 55 64 65 49 46 38 32 31 32 31 30 28 27 26 26 32 34 35 41 44 46 55 55 52 52 48 47 47 51 51 46
82 76 78 80 80 76 72 56 33 35 43 43 37 69 70 66 58 50 29 25 24 24 26 31 34 37 40 36 32 37 41 44 46 48 54 55 58 58 58 58 60 60 60
79 74 87 77 82 91 88 74 73 46 43 58 71 80 81 83 65 44 35 35 33 28 28 34 36 38 44 49 51 51 55 56 59 62 62 63 63 64 67 67 68 69 70
74 74 82 77 79 85 84 86 85 85 74 74 76 81 80 77 57 49 46 44 40 36 33 40 48 56 56 63 64 64 68 67 67 70 70 71 71 71 71 72 76 80 82
72 74 81 82 76 78 85 93 82 79 83 86 86 82 83 75 67 60 56 52 48 39 42 49 57 65 68 70 73 76 72 74 76 78 81 79 82 84 83 86 85 85 88
64 75 78 82 79 80 78 80 81 83 81 84 88 85 75 73 69 62 57 54 58 54 62 66 70 73 75 78 76 80 82 85 87 87 88 92 89 92 95 95 90 84 87
75 76 80 88 81 82 82 79 80 80 83 82 87 82 77 61 63 63 66 65 72 76 77 78 81 81 83 86 88 88 86 85 79 84 91 93 96 96 92 90 97 86 89
64 76 76 88 80 80 82 82 79 81 88 84 85 84 90 82 71 69 69 71 77 83 89 87 86 89 93 91 90 87 86 85 86 87 85 84 93 93 92 79 82 82 93
73 72 76 80 81 81 82 82 82 86 87 84 77 82 88 86 91 87 87 84 90 95 96 97 98 92 91 90 91 91 92 93 88 77 66 66 82 83 79 82 82 88 84
64 67 73 77 81 81 86 81 81 84 84 84 86 95 91 98 97 85 88 89 93 94 97 99 94 98 97 95 95 86 81 85 81 71 63 67 87 86 79 84 78 83 78
66 66 70 80 78 79 79 83 80 77 84 85 83 89 86 91 88 91 95 100 100 98 97 98 97 96 98 96 91 86 82 80 77 66 66 69 76 86 79 80 83 77 85
43 63 66 66 71 72 75 78 91 88 88 81 79 75 81 87 90 81 72 65 64 90 100 98 97 96 95 93 92 94 88 82 83 76 80 85 84 82 79 80 73 73 71
39 38 51 73 66 65 69 72 70 66 63 65 68 67 73 79 76 74 71 65 50 42 39 40 45 53 52 50 54 61 92 100 98 90 83 77 86 85 89 88 84 82 84
39 38 37 34 70 68 65 66 63 62 70 76 81 81 77 67 62 43 35 34 33 33 33 34 36 38 43 44 47 44 51 56 79 94 95 75 83 87 89 94 96 93 75
40 40 38 33 30 61 72 72 61 59 55 60 64 65 66 53 36 32 32 33 33 34 35 38 40 41 44 46 46 48 52 59 82 93 100 88 84 94 100 99 97 94 77

GFSSE_850_rhum_084.txt.gz
RH
84 71 76 70 70 71 74 75 59 65 43 67 85 92 90 93 90 93 94 90 79 74 64 50 25 24 49 44 44 66 73 84 82 77 80 66 64 73 74 60 35 45 51
70 61 66 68 70 74 78 70 58 90 63 65 66 88 90 89 94 98 98 82 74 58 41 28 24 52 47 52 58 65 71 72 67 51 52 68 64 82 87 81 61 43 39
63 62 68 67 72 75 69 73 50 54 40 47 50 62 79 87 86 92 81 67 51 33 31 26 45 54 54 63 66 73 59 50 43 36 32 34 54 73 84 84 65 85 89
60 66 69 70 77 75 61 57 43 39 33 23 21 35 46 52 57 56 52 26 32 29 23 41 51 52 53 61 83 81 55 47 41 32 23 21 19 20 38 77 94 53 76
63 72 76 75 74 66 47 41 38 69 44 31 17 12 11 12 12 14 23 26 26 23 26 40 45 42 47 54 68 64 57 53 42 34 31 25 21 18 16 16 20 28 38
67 80 80 78 73 57 38 38 39 59 64 41 23 17 16 14 16 22 22 22 22 24 28 32 39 40 46 50 55 52 51 50 45 37 36 35 33 29 23 18 14 13 13
74 83 81 81 74 57 42 39 41 48 83 56 27 20 18 18 20 22 22 21 22 24 26 29 32 36 38 43 46 44 42 44 46 47 40 40 39 38 36 33 24 18 14
71 86 86 80 73 62 49 43 43 47 73 86 35 24 21 20 20 22 22 23 24 26 26 27 28 31 32 34 37 44 48 48 43 52 47 44 43 42 41 41 40 35 25
83 88 89 79 75 62 52 49 45 51 68 97 54 36 26 24 22 22 22 23 24 26 28 28 29 30 32 34 36 39 47 50 48 51 52 53 46 42 41 42 42 42 42
80 86 92 79 90 73 50 43 44 50 68 91 82 50 34 27 24 24 25 25 25 26 28 29 30 31 32 33 35 38 44 55 51 52 52 57 50 43 42 43 43 42 41
85 82 84 75 79 66 49 34 42 46 57 82 83 55 39 33 30 28 26 26 26 27 29 30 31 31 32 32 33 35 40 48 46 47 51 55 53 50 48 48 51 52 47
96 86 78 69 68 64 49 34 43 43 52 58 68 59 42 41 39 38 35 34 34 32 29 28 28 28 30 35 39 36 38 42 40 43 50 55 56 58 58 57 60 61 60
91 87 88 75 76 70 57 32 43 45 46 57 65 59 51 47 49 46 36 30 30 32 32 35 37 37 40 40 37 38 42 46 50 49 53 57 62 64 67 68 66 67 68
98 79 75 82 79 77 68 44 34 46 48 46 47 70 62 57 51 46 33 38 36 32 33 39 44 45 49 54 54 57 59 60 64 63 62 63 69 72 74 73 76 77 76
87 99 85 76 72 73 81 77 63 43 37 49 59 69 69 63 58 53 48 44 43 38 37 40 48 54 60 66 68 69 70 68 67 70 71 74 79 82 87 88 89 88 86
58 67 96 80 77 76 80 84 85 82 80 70 66 66 69 71 66 57 46 46 48 44 40 43 53 61 69 74 75 76 74 74 79 82 85 83 88 91 93 95 96 92 82
72 59 70 88 84 77 78 80 82 82 81 81 83 84 84 77 71 63 53 50 52 50 51 58 66 72 75 78 78 80 82 83 84 81 83 88 92 95 94 89 80 82 86
79 81 77 68 88 86 82 78 81 78 76 79 79 85 87 80 72 65 62 54 63 68 72 74 78 80 82 84 85 84 86 82 85 81 86 82 90 92 86 84 88 86 76
67 69 76 79 56 89 84 84 80 77 82 82 79 82 81 85 69 68 68 67 71 76 78 84 88 89 90 88 88 85 87 88 85 90 91 91 79 83 86 87 80 76 80
68 70 60 58 49 47 79 91 83 80 76 80 83 79 79 82 84 85 85 84 83 87 93 96 96 98 90 90 84 87 89 87 89 80 79 73 75 86 93 74 77 75 80
73 74 76 73 69 63 81 82 84 82 83 88 88 81 79 82 85 85 79 83 89 90 96 93 97 94 89 83 91 84 84 77 77 73 69 59 66 76 79 80 78 79 81
64 67 73 80 79 80 67 75 77 77 83 77 79 81 86 88 83 83 84 87 96 98 97 96 98 94 96 97 88 92 88 77 68 71 70 67 66 79 81 83 75 75 68
52 59 59 66 73 78 75 75 69 78 80 80 80 84 75 75 74 76 92 90 95 99 86 79 83 92 91 83 85 93 94 92 83 76 82 86 84 77 82 87 76 80 79
41 45 63 62 65 74 75 78 73 70 76 70 72 69 60 72 74 83 92 88 66 51 47 51 52 57 62 55 52 56 74 97 92 85 82 84 88 82 78 79 83 93 85
42 39 40 56 60 65 71 73 71 67 69 66 68 68 66 64 72 71 70 59 45 36 34 33 34 36 39 41 42 43 47 56 75 98 86 80 85 88 90 92 80 91 93
40 41 38 38 39 61 64 63 65 70 67 70 68 61 64 64 63 55 48 34 32 32 32 32 33 36 40 42 44 45 48 56 57 76 95 92 96 100 100 99 99 98 99

GFSSE_850_rhum_087.txt.gz
RH
85 75 79 75 69 70 78 65 43 60 87 88 81 68 64 67 68 88 92 77 74 68 52 24 23 40 40 54 67 77 73 62 67 65 55 69 89 83 61 38 38 36 44
77 74 78 84 70 74 78 53 58 42 82 91 83 89 81 80 88 93 91 77 66 48 27 23 46 39 48 56 60 61 51 37 31 32 43 72 86 79 74 63 74 76 67
74 74 78 76 69 77 75 61 73 75 66 90 92 92 93 94 98 99 80 65 44 27 21 42 39 41 47 49 49 40 40 36 29 24 25 30 61 77 90 86 85 92 92
70 74 74 69 76 78 70 59 46 61 55 74 89 90 90 93 94 76 62 35 25 20 33 40 40 41 45 51 47 40 40 32 28 24 22 19 19 20 32 71 73 53 92
70 71 69 73 78 72 67 46 37 27 27 49 59 67 70 70 65 44 20 21 20 30 33 33 36 36 35 38 36 38 37 35 34 33 32 29 25 22 17 15 16 16 33
73 74 71 83 76 72 73 42 52 76 21 15 16 22 23 20 16 19 21 21 22 29 32 31 34 36 39 39 40 42 39 37 39 38 37 37 36 36 32 25 20 16 15
79 76 83 82 72 54 60 46 82 62 32 19 17 15 13 17 20 22 22 23 26 27 33 35 37 41 45 46 44 44 44 43 47 43 41 41 40 40 40 40 37 29 20
83 82 84 81 69 45 43 45 82 89 55 26 20 18 19 22 21 22 23 24 26 28 31 34 37 39 41 44 41 44 46 42 44 47 47 43 41 41 41 41 41 41 39
83 85 87 83 68 52 44 46 65 92 80 38 24 22 21 22 22 23 24 25 27 27 29 31 34 36 37 40 44 43 46 47 49 50 49 49 46 43 42 42 42 41 42
87 87 89 83 73 56 56 47 54 87 98 71 42 28 25 24 24 24 24 26 27 27 29 32 33 36 38 39 41 44 42 48 48 50 51 53 51 50 48 48 50 51 47
90 89 90 78 86 68 60 50 48 66 96 90 70 47 31 28 28 28 28 29 30 31 31 32 34 35 36 38 38 39 46 47 45 48 51 54 56 57 58 56 58 60 60
90 89 89 79 93 78 59 43 47 55 74 82 71 52 42 38 34 32 30 30 30 31 32 32 32 34 35 40 45 42 44 44 43 44 51 56 59 62 63 63 64 66 67
98 91 85 82 79 73 61 41 47 50 59 72 66 51 44 44 44 42 41 39 38 37 38 38 36 35 40 46 42 41 46 51 55 56 56 61 65 70 73 72 70 72 74
76 94 98 90 71 67 65 44 51 48 54 58 64 57 51 49 52 52 48 37 34 32 35 42 46 47 50 55 58 59 60 64 64 63 65 69 77 84 88 88 89 87 82
50 63 98 84 92 68 66 48 50 56 50 55 58 57 61 66 63 55 44 46 46 39 39 46 47 53 57 63 67 69 70 68 69 72 75 80 84 89 92 95 97 94 85
71 65 82 70 74 76 63 64 42 40 43 48 47 53 56 61 65 60 59 54 51 49 43 43 50 59 67 71 74 75 75 77 81 83 84 85 88 91 95 92 85 86 82
68 58 59 68 81 76 72 68 76 77 71 63 63 67 64 62 66 67 64 58 58 55 49 53 61 70 74 76 78 82 85 86 83 85 80 82 83 80 88 80 75 74 80
64 59 56 68 74 89 78 71 79 80 82 79 79 81 81 81 78 74 71 64 62 67 65 71 76 79 81 84 85 85 83 86 81 85 84 83 80 84 90 75 82 81 79
62 65 69 57 48 66 64 90 86 86 82 78 83 76 82 81 84 80 70 68 66 75 80 82 85 87 88 90 82 86 78 86 88 90 86 86 90 84 76 83 86 79 75
79 80 71 68 68 72 76 83 62 94 84 84 75 76 78 80 83 72 72 73 75 79 83 88 93 96 95 88 80 82 84 87 79 78 83 80 79 80 79 81 78 74 76
78 78 81 81 81 88 86 76 62 79 92 89 82 79 82 78 79 78 80 83 81 85 89 94 86 92 84 87 91 83 81 76 73 67 70 66 58 58 70 82 83 80 79
73 71 75 76 72 71 68 57 69 64 62 85 76 80 80 79 82 81 81 81 84 88 96 96 94 91 93 85 88 88 90 77 60 68 73 72 67 69 80 80 89 78 78
71 69 68 68 73 73 77 75 83 80 82 84 80 68 75 72 80 75 76 77 77 86 98 98 96 78 80 76 83 97 91 87 87 79 77 78 82 82 77 77 78 76 81
44 58 66 64 63 68 73 78 77 82 80 83 71 77 76 74 70 69 60 64 66 76 96 79 61 57 56 50 55 57 67 78 99 81 81 82 86 83 79 78 81 77 87
42 43 45 66 66 64 70 69 72 74 74 72 73 79 68 64 74 72 67 68 75 77 70 40 35 35 36 36 38 43 48 52 58 86 96 87 78 86 92 90 85 94 94
42 40 42 43 59 63 67 68 69 70 68 70 71 68 63 66 76 64 56 60 68 51 34 32 33 32 35 39 42 44 48 55 61 66 78 80 80 92 88 91 98 96 95

GFSSE_850_rhum_090.txt.gz
RH
81 78 83 72 67 68 65 48 44 85 83 74 60 62 58 67 74 84 87 74 71 53 24 16 33 37 53 76 70 50 47 48 47 63 85 81 76 55 52 61 62 52 42
74 79 80 70 69 75 71 42 56 88 86 76 62 68 68 70 84 88 79 74 58 28 17 35 31 43 50 62 45 34 29 26 30 44 65 74 75 69 94 82 87 84 76
78 79 81 74 68 77 68 47 53 91 84 88 74 72 73 81 90 95 76 60 32 18 33 30 33 36 42 36 35 34 29 24 22 22 25 36 46 74 64 59 79 80 76
79 81 80 75 72 76 62 72 59 91 90 96 94 90 92 95 98 75 57 34 19 26 33 33 36 38 41 38 39 35 32 31 28 26 24 21 20 20 19 17 18 41 87
79 82 78 69 80 78 62 67 72 74 92 91 94 95 95 94 73 62 32 20 23 33 34 34 33 33 36 38 38 39 34 35 35 35 35 35 34 30 26 22 18 17 22
84 78 70 75 82 66 54 45 36 54 71 87 89 88 80 67 45 21 20 22 30 31 32 34 36 35 39 41 45 42 42 40 39 38 39 39 39 39 38 37 31 24 19
83 74 77 79 75 64 50 43 68 24 39 52 60 62 54 28 21 20 20 26 30 32 35 38 41 43 41 44 46 48 45 48 44 42 39 38 38 39 39 39 40 39 34
78 76 90 87 72 71 50 80 65 35 19 16 16 15 15 21 24 22 24 26 31 34 35 38 41 44 44 45 48 51 50 47 48 45 44 43 41 41 41 42 41 40 42
80 84 91 85 70 55 50 84 77 59 32 22 19 20 46 25 25 24 27 30 32 35 41 42 44 42 42 40 41 48 49 49 51 52 48 45 46 48 47 49 51 49 46
84 86 92 83 64 48 45 77 88 82 55 31 25 25 28 27 27 27 28 31 32 34 36 38 42 42 40 40 39 42 45 50 49 51 51 50 52 56 56 55 58 58 58
90 85 89 82 66 57 49 53 88 95 81 51 33 27 28 28 28 29 29 31 33 33 35 36 37 39 39 39 39 38 43 47 45 48 53 55 57 58 62 63 63 64 64
97 95 88 81 77 62 60 52 64 95 97 66 58 35 29 28 29 30 30 32 33 34 34 35 35 36 38 41 45 43 45 47 49 48 54 58 61 63 67 69 70 71 72
94 99 100 87 96 77 60 49 48 70 89 89 70 46 36 32 30 31 32 33 33 33 32 32 32 32 36 45 44 44 47 54 58 60 60 64 69 76 82 84 85 85 80
97 73 90 92 99 98 81 45 47 52 72 82 73 54 44 40 41 42 41 41 43 42 41 42 44 46 50 54 57 60 62 65 66 67 70 73 80 85 88 90 94 90 79
88 71 66 83 91 90 88 66 53 50 57 68 75 70 49 49 50 52 46 40 40 39 40 47 53 55 59 62 67 69 72 72 73 74 78 83 88 90 92 94 89 82 81
69 50 53 57 76 89 82 77 53 58 52 60 68 72 63 69 71 61 52 49 48 47 46 48 53 59 69 72 74 74 76 78 81 81 83 81 83 86 81 88 76 74 79
57 46 38 50 56 72 79 79 65 56 60 54 59 52 62 66 69 67 63 60 56 54 52 49 53 65 72 75 78 81 85 86 84 82 82 84 77 81 75 79 82 76 76
49 48 53 50 54 54 74 79 83 74 64 54 54 64 69 73 76 76 74 71 68 65 61 58 70 77 82 84 86 87 83 83 83 82 85 85 82 80 83 89 84 74 74
60 59 52 55 56 71 71 79 77 82 82 83 82 82 83 82 83 86 79 79 75 68 76 78 82 87 92 94 92 81 83 82 85 87 80 79 82 83 84 82 78 83 72
57 66 54 61 68 70 64 55 68 58 74 69 70 75 81 77 81 87 80 78 77 74 78 84 92 97 93 90 89 83 84 78 76 73 77 74 78 72 73 80 79 84 83
60 59 59 59 62 71 68 69 61 58 60 76 79 81 81 80 82 83 80 84 86 88 88 87 88 87 87 89 82 76 79 68 64 55 56 64 67 61 60 66 80 86 71
70 73 71 66 67 69 72 77 62 72 78 75 60 72 79 80 89 87 85 80 83 82 86 91 92 91 85 88 94 88 85 73 64 65 63 69 74 72 71 78 82 82 87
69 77 76 78 80 80 73 85 80 76 72 71 70 55 78 83 84 75 77 82 78 77 84 94 89 84 97 87 84 96 88 85 87 76 83 72 70 69 80 78 81 76 77
57 66 73 77 77 79 77 77 77 76 70 70 64 70 82 78 73 76 86 72 81 79 76 73 78 95 85 56 46 44 50 65 87 84 81 80 80 80 85 87 86 73 76
41 43 54 68 73 74 74 78 82 91 78 72 83 86 83 76 76 80 83 84 79 78 75 67 68 58 38 36 36 39 44 48 54 73 82 67 72 88 81 87 84 84 83
38 38 44 43 47 68 71 71 71 72 71 76 77 79 84 84 78 73 80 79 72 72 68 67 39 36 35 34 36 40 45 52 59 68 78 70 68 83 89 88 80 82 96

GFSSE_850_rhum_093.txt.gz
RH
84 83 86 73 59 60 57 43 47 76 79 47 60 67 63 73 80 91 81 73 60 27 50 57 41 86 66 46 40 37 36 60 75 75 77 56 70 73 81 79 71 61 56
75 83 87 68 61 62 55 40 70 80 78 46 66 62 59 73 82 87 74 68 36 17 31 32 54 78 42 30 25 24 26 34 49 55 58 67 85 57 68 87 82 65 65
74 86 88 69 78 68 54 45 80 86 76 61 60 58 73 80 89 79 73 48 20 30 29 35 45 43 31 31 28 25 24 23 23 26 29 28 30 22 34 53 50 55 76
76 86 85 72 84 74 43 50 81 90 82 69 72 71 74 88 95 75 54 26 24 31 30 36 37 36 36 34 32 32 32 31 29 28 26 24 24 22 20 18 20 34 63
81 82 82 72 80 74 53 43 81 89 99 87 79 78 90 94 82 57 31 20 32 30 35 40 38 40 40 38 35 36 37 37 37 37 37 37 37 35 32 27 24 21 24
84 86 78 71 80 70 66 60 87 87 98 100 99 98 99 87 67 43 21 27 30 32 37 35 37 40 44 43 41 42 42 40 40 39 38 37 38 39 39 38 36 30 25
87 84 74 83 81 64 59 45 71 89 92 96 97 100 83 59 28 22 24 32 34 37 39 42 45 47 46 46 47 45 47 49 48 42 38 38 40 40 40 39 39 39 38
85 79 81 87 72 61 43 40 38 66 77 86 87 81 68 34 25 22 34 38 39 38 41 45 48 49 48 50 51 51 48 51 52 50 45 42 42 44 46 48 46 44 42
81 76 94 88 71 59 58 68 38 26 33 44 49 38 32 28 23 24 32 39 40 41 42 44 46 45 45 45 47 50 53 54 54 52 48 49 49 51 52 54 54 54 53
80 85 91 85 66 59 91 67 70 40 24 20 16 66 25 26 26 28 29 34 39 43 45 42 42 39 38 39 41 45 48 51 49 51 52 52 54 56 58 58 59 61 61
89 96 90 79 55 52 88 87 84 67 37 27 25 27 25 27 27 29 31 32 34 37 40 39 39 38 38 37 38 40 45 48 47 49 53 54 56 59 63 65 66 67 68
99 100 88 78 54 47 60 87 86 90 67 37 29 30 31 29 28 28 30 32 32 33 35 36 37 38 38 40 42 41 44 45 51 51 53 56 60 66 74 78 79 78 76
95 95 94 80 70 65 52 65 92 92 79 58 44 31 30 29 28 28 29 30 31 33 35 36 37 37 37 43 47 44 45 54 60 62 62 64 70 78 83 86 88 84 72
96 82 90 78 84 77 70 59 63 86 94 82 63 54 36 32 31 31 32 34 34 34 36 37 38 38 41 50 54 57 60 64 66 67 71 73 79 85 88 92 88 83 75
95 78 85 72 91 86 68 53 53 62 81 91 82 61 49 48 44 44 44 42 41 40 39 39 45 50 52 57 64 67 70 71 72 75 80 84 86 88 88 87 81 79 76
68 84 72 73 69 74 69 61 49 56 60 84 89 77 59 54 57 58 56 47 45 45 43 48 55 54 59 66 72 73 75 76 80 81 82 82 81 78 78 74 75 75 71
55 83 67 62 59 62 72 69 54 54 55 56 70 78 79 70 72 74 66 59 57 56 52 49 50 57 66 72 76 78 81 83 81 81 82 81 83 79 75 76 77 82 74
70 64 62 56 56 43 52 71 71 48 50 61 58 68 64 71 66 70 72 67 66 62 60 54 58 65 74 78 82 86 83 82 80 78 86 81 82 78 78 80 72 80 76
76 54 55 50 42 42 49 54 62 73 69 49 51 59 65 72 80 82 80 77 79 71 68 68 70 79 86 92 94 89 81 78 81 80 77 83 82 81 81 82 81 81 84
70 63 62 50 43 44 50 61 65 67 66 69 73 74 79 85 88 87 84 85 84 78 72 80 84 92 94 87 88 85 78 70 77 64 68 57 54 62 67 62 72 83 85
63 68 53 62 55 45 48 73 60 54 54 56 63 76 79 82 86 90 88 90 86 81 77 89 89 84 89 78 91 74 80 72 55 49 52 45 51 61 62 59 63 82 91
81 74 63 58 56 55 57 72 69 54 56 51 59 76 77 78 74 87 90 89 85 88 91 89 89 87 88 89 89 96 90 75 58 58 62 69 68 62 65 72 77 87 92
69 58 60 63 55 57 65 64 67 48 59 56 66 74 76 76 86 81 78 83 99 100 88 92 92 96 96 96 98 96 88 87 75 58 70 74 67 59 54 73 82 85 91
68 58 58 67 66 64 66 71 70 74 76 74 76 82 87 80 83 84 83 92 99 98 89 86 84 85 80 77 75 48 47 58 94 82 69 77 75 73 75 79 87 92 83
60 64 68 74 89 79 85 88 97 99 80 68 87 87 87 83 92 91 93 98 94 87 84 84 81 75 77 40 36 35 38 40 44 60 83 59 74 77 76 75 82 91 79
43 43 46 51 65 77 78 78 81 79 82 71 83 83 84 76 93 88 97 93 94 92 76 68 74 74 48 33 33 35 39 45 52 59 68 58 66 62 74 86 88 86 77

GFSSE_850_rhum_096.txt.gz
RH
97 99 86 83 70 63 58 53 35 38 28 48 61 73 66 78 87 89 78 65 66 87 54 72 84 59 70 43 34 60 68 70 65 46 58 72 80 83 74 72 92 68 69
94 96 84 82 61 62 57 40 52 79 58 49 57 67 69 81 86 88 74 54 59 69 43 91 83 31 27 25 27 33 42 47 54 62 73 47 57 69 88 62 63 62 77
99 99 89 72 60 59 49 39 68 78 57 55 62 55 72 82 88 76 68 29 21 37 75 93 94 27 28 25 24 24 24 29 34 34 74 86 30 35 41 37 82 75 67
99 97 97 68 64 61 42 60 80 75 57 66 57 62 80 87 86 76 49 20 34 83 84 43 32 33 30 30 29 29 29 29 28 32 68 72 46 22 21 23 38 76 85
100 100 97 78 74 65 40 77 89 76 65 64 65 80 88 91 83 67 26 41 50 71 43 36 39 38 37 35 35 36 36 37 38 47 43 53 51 35 31 29 26 27 55
99 100 78 78 78 62 42 82 94 85 75 78 79 84 94 94 71 39 25 63 35 73 48 41 42 44 43 41 43 40 39 39 37 39 46 40 41 38 38 37 34 31 29
100 100 74 75 77 61 46 79 95 94 90 87 88 99 98 94 60 24 33 39 35 57 40 44 44 45 45 46 44 46 45 44 47 40 49 68 41 42 42 41 41 40 38
100 97 92 81 79 61 50 72 90 98 99 100 99 100 70 60 32 22 36 37 40 40 39 44 45 44 45 46 46 43 45 45 57 51 49 62 45 48 50 50 49 47 46
99 99 89 91 74 60 38 67 85 92 95 99 99 90 69 37 23 30 38 38 39 40 42 44 47 45 44 44 45 47 47 47 82 55 62 85 51 52 53 56 57 58 58
97 100 87 97 80 58 66 37 54 72 80 86 79 70 32 24 24 33 35 38 38 38 40 41 41 42 43 41 43 45 49 48 76 55 62 66 55 57 59 60 62 65 66
98 100 99 100 94 88 96 63 38 27 33 43 49 32 32 30 26 31 37 38 39 40 41 41 39 38 38 40 40 40 46 59 59 65 81 57 58 62 66 68 70 71 71
93 99 100 99 90 96 97 81 65 39 32 66 69 40 85 46 51 54 33 37 39 39 37 37 36 37 38 39 40 41 53 48 54 55 66 57 60 68 73 78 78 76 68
97 99 96 96 89 94 99 85 83 92 83 82 92 93 91 65 31 34 36 37 39 38 38 38 39 39 39 41 44 56 45 52 76 62 60 60 65 72 79 83 82 75 72
97 100 89 82 90 87 99 98 92 81 93 88 64 46 36 41 36 47 62 51 40 38 41 38 43 39 36 43 50 60 58 63 72 68 74 66 73 82 87 86 79 77 77
89 100 86 74 60 71 76 98 95 88 86 77 64 39 33 32 33 33 35 36 36 38 39 41 42 46 45 51 59 67 78 83 82 82 83 78 82 84 84 84 81 77 76
78 98 92 84 62 62 55 50 67 92 84 82 82 64 53 50 42 42 45 48 46 46 43 44 47 54 61 66 86 80 84 85 87 90 90 89 82 80 76 77 75 76 79
89 82 92 81 77 71 57 42 44 50 69 83 88 76 65 61 59 54 66 56 52 52 49 49 52 56 58 64 72 74 87 89 90 85 85 86 80 80 78 77 75 76 81
83 75 83 81 73 80 74 59 42 47 50 54 79 73 70 68 68 78 81 73 68 63 57 54 51 53 73 79 88 89 92 91 87 82 83 79 84 88 88 79 80 78 80
81 82 66 78 73 68 68 72 61 46 45 56 53 54 60 64 67 70 71 78 75 70 64 62 56 69 85 92 95 94 93 84 82 84 83 87 90 74 78 91 75 81 81
76 69 71 82 73 65 76 74 67 60 66 53 49 49 51 52 64 77 82 87 85 80 75 69 73 79 93 95 95 91 86 85 80 79 79 70 55 46 58 64 65 88 84
71 74 73 67 68 64 79 74 71 63 58 64 65 69 62 71 80 83 88 94 94 89 83 77 86 97 90 96 90 80 82 80 83 54 54 46 53 60 62 60 65 94 78
84 76 82 68 62 68 75 69 71 70 61 58 61 62 65 80 84 87 93 99 98 96 92 89 94 95 91 87 89 94 75 66 79 49 53 46 51 63 50 48 70 84 93
93 84 74 68 64 61 61 70 74 69 78 66 71 69 75 82 88 88 90 93 99 99 95 94 91 87 91 90 93 91 72 59 82 71 62 49 55 59 53 51 64 87 97
79 73 74 68 66 68 61 64 74 76 77 80 82 84 80 73 80 92 87 96 93 100 100 100 97 94 87 80 79 62 43 50 66 61 82 76 60 64 58 63 73 76 94
90 81 75 70 68 64 67 62 78 88 73 70 62 62 74 74 93 90 91 90 90 100 99 97 86 87 82 70 48 37 35 38 40 79 65 69 92 71 67 64 73 75 81
80 80 82 80 73 69 67 72 75 91 78 67 68 70 77 90 85 90 98 90 98 100 77 76 74 75 79 75 70 58 53 47 61 59 78 82 87 81 65 60 66 76 84

GFSSE_850_rhum_099.txt.gz
RH
84 86 87 80 68 62 56 50 46 42 43 63 74 74 67 74 88 85 72 58 83 55 85 80 78 86 32 74 78 75 68 44 53 65 84 82 79 66 69 85 94 81 75
81 89 91 83 71 64 56 50 36 27 34 48 68 72 68 80 85 84 65 72 87 53 84 65 44 36 28 45 52 54 50 53 56 56 60 54 69 59 57 64 68 80 82
82 95 92 93 67 58 56 44 41 56 33 46 59 68 62 83 85 79 60 69 73 57 82 42 25 25 25 28 31 35 36 36 54 79 78 59 35 36 42 76 73 81 83
80 99 98 89 60 56 51 37 68 81 50 56 61 62 68 86 88 75 47 33 43 87 92 42 29 27 26 26 26 27 28 28 42 66 66 69 33 23 28 46 68 84 80
92 98 100 80 61 58 45 49 79 75 58 65 65 60 77 89 86 70 23 41 90 97 39 31 32 31 32 33 34 34 35 37 54 76 84 79 44 32 30 29 40 64 78
93 98 98 73 65 61 41 74 84 69 57 72 64 72 84 93 84 50 33 92 89 69 36 35 34 34 35 36 36 37 37 40 70 82 74 49 38 38 38 36 33 33 36
93 92 96 76 73 63 44 84 83 67 61 67 76 88 88 91 68 62 72 75 94 92 39 40 39 39 41 42 41 41 43 51 78 85 89 53 42 43 43 43 42 41 39
93 95 96 78 80 60 48 85 89 70 74 83 86 91 96 87 47 34 72 82 98 51 43 43 44 43 45 44 43 44 44 53 81 85 91 47 46 50 52 51 50 50 49
96 95 99 75 85 64 48 86 95 85 85 88 92 100 100 81 34 66 72 91 95 42 45 45 45 45 44 44 46 45 45 54 82 85 85 71 49 49 52 53 54 56 57
100 94 97 96 91 84 66 86 98 96 97 98 99 98 80 53 31 55 72 90 90 50 48 48 45 42 41 40 42 44 45 51 85 72 88 55 52 51 54 58 62 64 65
76 93 97 96 98 92 87 80 92 99 100 100 100 81 45 29 39 61 73 71 62 50 47 46 43 42 40 38 38 38 44 74 70 76 84 56 53 56 62 68 71 73 71
64 74 94 94 90 81 89 53 62 82 97 99 93 78 73 64 83 91 49 46 44 44 47 47 44 41 40 52 37 39 50 68 70 72 79 55 56 64 71 77 80 74 70
67 82 80 99 86 79 93 76 79 62 77 86 96 94 83 84 80 93 44 46 47 50 50 44 41 40 62 71 75 73 71 70 73 76 67 60 62 68 76 81 78 74 78
75 72 68 100 84 75 88 84 79 70 74 82 88 82 82 86 93 92 52 44 44 42 76 63 76 73 57 64 76 76 78 79 78 78 77 70 70 77 84 85 78 81 75
52 70 94 99 84 86 89 86 79 72 72 75 84 84 86 86 82 84 82 81 78 71 76 71 68 70 61 75 74 65 81 79 76 77 82 82 79 82 81 81 77 74 75
63 76 84 98 85 81 87 92 93 85 79 84 83 81 81 81 81 80 81 80 77 62 68 72 76 81 81 82 79 80 78 79 80 82 82 82 84 83 78 76 74 75 82
56 62 74 100 76 87 90 98 95 90 96 94 96 94 90 76 78 54 86 63 57 50 59 64 81 83 80 81 84 82 84 81 80 77 75 76 79 82 82 74 76 69 76
58 49 68 92 75 85 95 69 86 92 98 88 94 92 78 53 47 43 49 53 51 49 51 75 82 82 77 79 82 81 83 84 80 75 73 77 76 82 85 86 87 79 77
67 67 75 83 76 71 94 93 91 82 82 87 90 91 90 62 56 59 65 73 66 64 63 84 82 76 73 82 83 78 81 80 76 74 75 78 80 85 81 73 80 66 66
70 81 72 78 76 74 95 95 98 94 79 62 54 60 88 79 81 74 77 91 98 89 82 90 86 76 79 79 86 83 80 78 78 75 76 76 77 49 49 55 62 82 71
83 74 76 85 84 86 87 90 96 98 72 59 62 61 62 68 85 91 80 89 97 96 96 88 84 81 90 88 85 78 78 75 76 77 68 77 72 54 61 52 47 96 81
80 77 70 71 66 80 79 84 81 89 91 87 73 70 70 72 69 86 87 96 100 99 94 94 90 90 91 90 83 80 77 66 71 67 58 61 56 52 60 44 43 76 98
86 88 81 85 84 88 86 82 85 82 88 99 98 89 84 87 93 88 90 92 94 97 97 99 96 90 93 90 84 88 70 58 63 60 80 59 52 70 56 48 45 64 86
96 74 82 82 87 80 89 85 80 77 81 73 81 86 80 78 83 85 82 82 87 85 100 98 89 98 90 90 79 72 66 76 68 54 64 70 61 62 66 58 61 59 70
98 96 90 89 92 88 90 91 85 83 86 90 87 80 75 80 82 82 80 79 87 91 90 96 90 91 95 82 62 56 42 49 52 69 69 62 78 78 58 60 72 74 67
92 88 81 86 84 89 84 89 82 76 75 87 95 96 76 73 74 70 75 64 67 96 98 88 72 77 89 90 81 78 77 68 77 72 72 70 76 75 85 66 61 77 82

GFSSE_850_rhum_102.txt.gz
RH
86 72 63 56 54 49 45 44 43 43 58 66 69 70 64 75 82 78 60 61 67 88 83 81 67 62 80 80 75 42 40 55 81 84 77 71 65 68 88 84 79 71 64
80 78 74 67 64 59 53 48 46 44 48 66 71 70 66 77 82 72 64 73 72 85 69 70 46 42 66 58 48 40 55 51 59 59 65 53 50 65 85 74 72 77 79
79 78 79 81 69 64 54 48 43 37 52 58 71 68 66 82 83 68 78 76 70 81 48 37 23 31 36 36 37 40 51 65 74 72 62 36 32 50 75 73 83 84 74
86 77 85 89 75 67 54 48 34 31 60 57 67 67 66 83 85 68 78 77 67 78 32 23 23 25 26 27 28 30 38 64 68 69 70 37 25 32 53 73 81 76 73
86 75 82 88 72 60 54 43 46 63 62 57 63 63 64 81 86 69 46 54 74 74 27 27 26 27 29 30 32 33 43 59 60 62 56 39 32 32 31 32 40 47 54
85 80 81 85 67 58 53 38 67 78 59 61 68 66 76 84 76 63 29 59 94 40 30 31 32 33 34 36 37 40 51 69 69 66 44 38 37 37 36 35 34 34 34
86 83 90 89 64 59 52 50 76 73 55 70 73 69 85 88 78 37 74 96 57 37 35 35 34 36 37 37 38 40 54 71 77 84 44 39 40 41 42 41 42 42 42
91 85 88 95 72 71 53 68 85 68 57 75 65 76 90 97 77 41 93 68 94 46 41 40 40 41 41 41 42 43 52 78 80 69 47 42 44 46 47 49 50 52 53
82 94 88 94 80 72 48 72 88 68 63 71 78 91 94 93 76 90 89 99 96 41 42 42 42 43 43 42 42 43 50 78 83 82 68 49 47 48 51 53 55 58 60
74 94 100 99 80 75 49 71 93 73 69 78 93 94 100 89 58 94 94 99 98 54 47 46 44 44 42 41 42 43 44 72 65 65 64 52 50 51 54 58 62 65 65
70 89 98 98 100 90 58 60 98 90 81 88 99 100 100 82 91 98 98 100 98 70 50 48 45 43 40 38 38 39 48 65 72 80 82 62 52 56 64 70 72 68 62
57 66 90 88 83 100 84 52 91 97 95 99 99 99 79 54 74 98 96 99 99 88 49 49 46 43 39 40 39 38 59 63 68 70 74 60 55 62 70 76 74 67 72
50 46 49 60 88 72 92 63 78 100 99 100 99 81 53 53 73 96 92 98 74 44 47 46 45 40 45 58 69 60 68 65 73 76 67 64 60 65 71 76 74 72 71
57 50 60 58 64 74 89 73 74 91 100 95 100 72 90 77 78 76 55 47 45 47 49 46 43 45 48 57 69 74 71 62 71 78 77 78 71 71 76 78 78 76 78
61 61 59 61 65 77 100 69 60 72 76 93 83 78 84 85 78 75 51 49 49 48 54 69 73 74 56 50 66 60 71 77 78 77 81 84 83 82 78 77 76 73 76
67 64 69 65 65 80 100 80 69 69 77 80 71 81 82 88 68 88 74 62 66 65 74 64 54 68 76 73 71 78 79 79 78 78 80 80 83 81 77 75 75 74 74
72 75 82 73 88 96 97 76 76 70 73 84 86 84 86 83 82 81 76 55 48 43 43 47 59 76 78 80 81 83 82 78 78 78 76 76 77 79 81 86 84 82 69
85 71 80 91 73 74 98 85 77 83 78 80 81 83 79 74 66 53 54 44 39 41 44 41 47 69 73 75 75 82 80 80 72 73 74 74 76 79 82 80 75 82 68
88 87 72 74 52 62 76 99 97 81 84 83 88 77 86 65 56 41 44 52 54 52 52 57 67 78 65 73 82 79 77 78 79 76 76 77 79 79 76 66 56 66 56
88 79 72 76 63 61 67 71 78 83 98 88 77 88 90 64 54 53 56 71 79 72 71 74 80 80 72 77 77 75 76 75 78 77 76 74 68 56 44 52 57 53 67
98 84 79 77 73 61 76 69 73 78 76 77 98 96 96 99 86 72 78 82 89 85 82 83 84 81 74 84 79 73 75 79 75 78 78 64 61 46 41 50 39 49 77
100 93 85 83 80 79 68 77 78 79 85 82 85 88 91 92 92 96 92 88 88 93 97 97 88 85 82 81 84 76 78 70 74 71 58 49 42 36 35 40 44 44 49
91 96 84 97 89 80 79 84 89 88 90 90 91 90 94 84 86 86 90 85 92 96 92 94 95 89 87 88 81 83 74 65 71 64 58 53 55 47 48 45 46 51 62
99 99 100 86 88 80 84 82 88 83 85 80 84 87 82 87 83 81 73 90 90 90 86 86 89 92 88 86 95 83 78 75 56 56 72 64 59 62 61 58 55 54 50
99 92 94 86 89 86 85 96 94 88 82 86 86 94 84 84 85 76 88 88 82 76 71 70 76 80 85 87 84 88 70 41 39 50 53 66 74 71 68 61 64 71 61
99 90 98 84 84 68 83 89 85 83 81 79 87 89 85 84 86 83 85 82 75 71 66 75 90 94 84 71 90 95 81 77 63 61 72 70 71 74 64 62 66 70 68

GFSSE_850_rhum_105.txt.gz
RH
87 56 43 39 41 42 43 53 60 62 65 66 65 63 72 78 77 69 43 62 88 88 89 47 76 81 84 39 36 39 68 80 78 74 56 59 81 76 76 81 71 74 66
74 73 51 46 45 40 40 39 41 52 64 65 66 64 65 86 79 62 47 83 92 82 90 45 79 76 63 33 39 57 54 51 56 58 48 44 59 66 70 71 71 76 77
76 77 70 54 55 52 48 45 44 43 55 65 68 65 64 88 78 63 51 83 85 67 58 32 41 42 34 42 45 60 72 73 64 40 34 32 42 56 82 86 76 74 76
85 80 75 69 64 60 54 48 46 44 55 60 70 69 62 88 77 74 62 82 80 46 34 25 31 32 32 34 49 64 72 73 62 44 31 27 31 48 61 80 79 66 72
83 82 78 79 70 66 55 49 42 33 56 57 66 69 67 86 77 79 74 77 80 36 23 24 26 27 29 30 33 50 62 66 64 52 37 32 32 32 34 40 40 43 42
82 83 81 82 71 66 54 48 36 42 61 53 63 68 70 86 80 81 74 64 74 28 26 26 28 31 33 35 41 54 55 50 49 45 37 36 36 36 36 36 36 36 37
78 84 88 86 73 57 52 46 41 70 65 64 64 68 72 86 84 66 58 61 65 29 30 32 34 35 36 37 41 49 53 49 42 47 41 42 41 41 42 42 42 44 46
74 89 95 93 82 59 51 44 59 77 64 63 70 68 73 86 76 48 74 74 49 32 34 35 37 38 38 41 44 51 59 55 50 48 44 45 45 45 47 48 51 52 54
75 93 97 100 88 73 61 46 71 82 62 69 77 70 82 94 76 39 77 83 37 36 37 39 41 41 40 42 44 52 66 70 54 56 51 47 46 47 50 53 57 61 61
69 82 76 99 97 86 66 52 79 86 58 74 79 78 94 99 84 43 53 91 48 40 39 41 43 43 41 42 43 50 66 71 62 61 58 48 50 52 54 58 62 61 54
64 72 75 97 98 86 76 80 87 89 66 80 75 91 100 97 88 95 96 97 56 44 44 44 43 41 39 39 40 44 57 64 70 69 70 64 52 55 60 64 68 64 70
54 64 74 96 99 97 92 82 99 94 77 77 80 99 100 100 82 95 98 99 84 44 50 47 44 40 37 37 38 43 57 58 67 65 68 60 53 57 65 71 72 71 71
53 57 61 67 93 90 86 82 86 98 93 86 90 100 94 100 97 94 99 97 99 60 46 48 44 40 39 45 50 55 65 59 72 74 69 71 64 64 70 76 75 73 77
44 60 58 54 71 74 72 83 75 95 99 94 96 100 100 94 91 99 99 99 88 41 47 48 45 40 43 47 54 68 64 57 72 76 77 77 80 77 74 75 76 73 72
50 49 59 60 57 50 62 68 88 86 99 99 96 100 84 53 81 98 92 63 44 45 46 45 43 45 47 44 60 66 66 76 78 78 80 77 80 85 77 69 73 75 72
62 59 58 60 55 53 57 58 82 98 90 100 100 90 74 49 63 79 64 46 45 45 47 44 44 45 48 46 51 62 73 80 79 80 80 78 80 81 81 82 80 71 70
62 68 66 61 56 82 83 55 79 100 94 93 90 76 79 79 76 70 50 46 44 45 49 50 57 57 59 68 70 78 78 80 77 74 74 71 74 74 78 84 85 80 75
64 75 79 75 75 91 84 64 96 94 76 82 80 86 80 89 86 60 56 44 46 51 58 53 52 59 72 81 80 80 78 78 74 74 74 72 73 74 78 83 81 61 64
64 76 66 78 99 89 77 69 90 89 78 84 81 86 86 87 77 82 72 66 55 52 51 49 54 61 71 75 75 78 82 76 75 75 75 75 76 76 80 76 50 43 50
57 59 70 92 100 81 70 63 85 95 77 76 84 84 87 85 77 76 67 58 54 57 53 54 59 70 68 64 76 79 78 77 75 78 78 76 75 72 54 34 37 36 34
82 80 73 84 99 89 76 80 84 100 90 85 78 82 84 72 68 71 66 74 70 65 62 64 65 71 73 72 79 78 75 71 75 78 79 73 74 46 32 32 34 35 37
80 72 83 87 98 86 81 94 90 91 89 89 85 82 75 78 82 76 73 83 81 80 83 80 76 74 73 74 87 84 77 73 76 78 77 74 51 39 38 39 34 36 40
83 78 94 96 99 82 88 96 82 78 79 77 66 85 86 89 94 82 84 88 88 84 82 83 84 84 81 80 82 85 80 74 74 78 75 62 54 52 51 50 47 43 45
90 85 77 100 100 91 90 89 90 87 79 84 77 68 73 79 80 91 92 90 83 83 84 83 80 74 81 80 83 85 80 74 72 69 68 71 71 59 60 59 58 51 50
75 85 84 99 98 98 91 88 92 87 87 86 81 82 77 74 78 84 84 84 85 84 74 77 66 76 77 75 80 76 85 79 79 57 65 63 65 66 71 68 72 66 67
91 92 99 100 100 100 100 100 97 86 85 82 79 83 84 78 81 84 84 77 78 66 70 80 74 70 71 74 88 86 81 80 76 50 49 62 66 75 74 73 77 73 72

GFSSE_850_rhum_108.txt.gz
RH
70 56 47 60 56 56 54 53 58 68 62 60 64 63 63 75 76 66 34 74 90 74 44 93 100 81 37 44 58 56 69 78 58 51 58 71 74 79 75 72 69 74 84
59 46 41 53 54 52 49 51 54 60 63 63 59 61 71 79 77 48 65 84 87 91 70 80 88 86 35 38 58 63 61 57 43 49 48 57 71 69 77 74 74 75 73
74 59 44 48 47 43 40 42 48 56 61 64 65 60 77 84 73 46 74 86 89 86 50 76 80 35 38 45 46 47 41 35 32 33 42 50 72 80 83 83 70 77 80
75 72 57 47 46 43 42 41 40 42 57 63 68 64 65 86 68 56 85 88 92 52 29 36 34 39 44 55 58 52 50 47 39 29 29 41 57 70 76 70 52 54 52
79 80 74 57 56 55 52 49 47 44 56 58 70 67 61 85 70 58 78 86 51 34 25 30 32 36 44 56 59 53 46 44 42 35 32 32 32 35 37 37 38 36 34
68 81 76 77 67 65 58 52 48 44 61 58 62 74 66 85 77 76 68 88 51 24 25 27 28 31 33 42 52 56 46 43 41 36 36 35 35 36 36 37 37 39 40
68 81 82 87 86 74 62 49 44 36 60 61 59 75 69 84 80 82 60 73 49 23 25 27 30 33 35 46 51 46 50 54 47 38 40 39 39 40 41 43 44 47 49
65 81 80 89 94 71 57 49 37 51 64 59 52 74 67 82 87 81 60 50 48 27 29 32 34 36 38 43 50 48 50 53 50 43 43 44 42 42 43 46 50 54 57
67 70 86 91 95 75 60 53 51 67 69 63 58 75 70 82 88 74 43 50 42 31 32 34 36 37 40 43 47 55 55 56 59 56 48 47 46 46 48 53 58 59 55
59 57 78 84 85 79 78 76 82 80 80 64 68 83 75 88 88 63 43 44 42 34 35 38 40 41 42 43 47 55 63 56 52 58 52 48 49 51 55 60 61 58 63
66 57 66 72 78 83 79 74 88 91 84 66 77 86 82 98 87 70 52 57 41 38 38 40 42 43 43 44 46 54 61 56 57 58 62 58 52 56 61 64 65 64 67
62 59 59 66 70 84 79 80 98 100 95 68 86 86 91 98 99 79 80 96 38 37 41 44 44 42 41 41 43 50 57 54 52 57 61 57 55 57 62 67 68 69 74
57 63 59 62 71 81 77 77 94 98 99 87 82 82 99 99 100 87 88 98 80 46 45 44 42 40 38 37 37 45 55 56 57 67 71 70 70 66 68 72 71 71 71
58 64 60 65 67 73 81 72 66 72 83 100 81 86 100 99 99 83 93 98 77 45 43 44 42 40 39 44 48 49 55 57 61 67 74 75 80 82 78 72 73 70 69
64 72 70 61 68 68 70 72 70 61 61 80 97 95 100 100 96 85 98 99 90 51 44 42 42 40 40 45 49 50 55 60 70 75 78 80 82 83 82 75 70 74 72
68 66 66 62 61 60 57 55 55 47 57 63 100 97 99 100 99 83 92 98 96 45 44 44 41 38 44 45 41 49 56 78 80 79 78 78 79 79 83 80 80 76 68
55 61 56 60 67 64 58 51 49 52 49 55 96 100 99 100 83 81 66 80 71 50 48 45 45 52 53 54 55 62 73 78 78 77 74 74 70 75 77 77 80 84 78
54 51 52 55 68 67 66 62 60 56 74 57 67 100 99 85 56 65 63 54 50 54 52 49 53 48 51 64 68 71 77 77 76 80 76 74 71 72 76 76 80 77 59
53 53 54 66 68 72 70 79 80 78 82 48 75 93 99 83 71 76 49 69 52 56 52 48 52 53 60 64 71 76 78 78 76 74 71 73 75 75 77 78 77 42 37
54 57 54 64 64 81 84 85 93 98 76 78 70 81 96 91 73 66 69 63 64 65 58 53 55 57 56 66 75 77 79 81 80 77 73 74 76 77 77 72 38 36 34
69 66 58 61 63 74 95 88 99 100 95 81 70 78 86 91 95 86 77 82 75 61 58 55 58 56 65 72 71 76 83 84 81 76 73 75 78 75 67 40 32 34 32
62 61 68 73 68 87 68 88 79 85 87 93 89 83 87 93 86 85 88 83 76 66 63 57 56 65 72 74 74 79 83 86 80 78 78 78 74 75 45 37 44 42 40
69 68 76 75 78 92 76 87 89 92 94 80 86 86 91 90 86 78 76 71 68 70 68 72 72 72 76 76 73 73 83 81 78 75 76 80 77 58 49 47 58 53 49
69 70 81 78 94 92 92 96 100 96 97 92 87 90 90 87 86 68 65 67 72 77 80 80 82 85 85 78 72 74 76 75 75 80 82 81 75 64 65 56 65 63 59
69 81 74 76 72 86 97 92 99 100 92 81 87 89 89 86 85 83 83 77 85 94 86 80 80 81 82 78 81 82 81 81 82 79 73 80 83 73 68 65 74 71 66
71 76 90 82 98 100 98 100 100 94 92 91 85 79 83 84 89 93 90 91 85 86 89 85 82 81 81 83 79 72 66 76 87 88 62 65 65 60 69 77 78 71 70

GFSSE_850_rhum_111.txt.gz
RH
69 63 72 68 65 61 61 60 64 60 53 54 59 59 62 70 76 61 38 56 42 37 84 98 42 47 67 69 64 77 66 43 48 64 70 69 76 74 70 70 81 82 82
62 60 56 63 63 59 56 60 68 65 58 57 58 59 61 74 76 43 70 90 60 79 90 89 66 38 90 55 61 69 58 39 43 54 64 71 69 72 72 76 74 75 76
52 51 50 58 57 60 56 61 61 69 64 61 61 60 67 78 71 42 80 90 85 77 82 94 54 34 43 55 52 45 36 33 36 46 51 77 83 77 80 81 81 80 72
62 45 40 49 54 57 57 57 56 60 64 66 64 65 78 80 62 61 82 94 96 56 56 69 30 33 40 42 44 44 40 34 29 36 52 62 64 65 61 58 42 43 38
74 58 46 45 51 47 43 44 45 53 59 62 69 62 67 83 62 70 85 90 68 42 28 28 34 35 42 47 51 49 47 43 35 31 34 36 35 35 34 35 34 34 36
80 71 62 50 46 46 45 45 44 47 57 58 69 66 65 86 65 72 81 77 44 26 31 32 37 42 44 43 44 46 43 42 38 36 34 34 35 35 36 38 40 42 44
70 81 74 58 56 58 57 53 48 46 64 57 60 74 70 87 80 62 69 80 30 25 31 32 32 35 36 39 43 47 48 42 38 38 39 38 39 41 43 46 48 49 51
83 85 82 80 72 69 66 58 49 43 46 58 62 67 71 82 88 77 62 80 31 24 27 29 31 32 39 43 47 49 52 45 38 40 41 41 41 44 47 50 53 54 49
81 90 91 93 93 88 76 58 48 40 47 62 62 65 72 79 91 82 65 61 35 25 28 32 34 36 41 44 45 52 55 52 48 43 43 44 44 46 49 53 56 52 52
72 80 88 99 99 85 70 62 57 70 60 68 67 64 77 81 91 87 72 56 48 28 31 34 36 37 40 46 48 51 54 52 54 49 46 46 47 51 55 58 59 60 61
70 74 79 82 82 88 72 66 56 74 84 78 74 69 78 85 96 92 71 48 58 32 33 36 38 40 42 44 49 50 50 50 54 56 56 51 50 53 57 63 65 64 66
70 65 66 66 73 76 78 67 63 77 87 88 77 79 82 87 99 89 70 45 53 37 36 39 41 41 42 42 42 49 49 51 54 57 59 57 55 58 62 66 67 69 72
74 72 68 63 64 74 74 71 62 61 98 87 82 83 89 92 98 85 75 60 49 38 41 42 43 41 40 40 41 45 52 54 55 63 65 68 70 67 70 70 71 70 72
74 77 68 66 75 75 78 77 69 56 97 93 76 93 93 97 97 94 86 62 45 36 41 42 43 41 38 37 36 40 50 56 55 64 69 76 81 81 75 74 70 73 70
64 68 71 70 73 81 81 82 72 56 69 73 73 83 98 99 98 96 94 66 56 43 41 44 42 40 38 41 46 46 52 59 55 64 74 80 81 84 81 78 70 69 68
54 70 68 73 72 74 76 78 74 67 64 57 54 57 85 95 94 96 93 69 71 56 47 49 44 42 39 44 50 51 55 65 68 74 76 78 80 78 81 82 74 77 76
48 60 69 65 64 69 76 72 67 56 63 70 52 56 63 94 99 95 94 72 68 61 50 58 51 46 40 45 45 44 53 66 78 77 76 75 76 76 77 78 76 76 81
39 52 56 60 57 57 60 62 62 60 56 50 63 58 68 83 93 100 98 85 63 85 58 54 54 46 44 50 49 52 60 73 76 77 79 78 73 73 72 72 76 78 82
36 51 49 49 50 51 61 64 62 62 63 62 60 73 77 72 99 100 100 86 81 78 63 53 54 56 54 51 54 66 73 77 75 78 77 74 75 74 74 76 75 76 54
35 54 55 58 59 62 68 71 68 68 66 72 64 72 88 87 91 100 95 90 84 70 62 65 55 66 61 56 66 74 79 77 79 82 80 80 76 74 76 78 77 61 34
36 47 51 61 58 71 73 71 66 62 67 86 88 78 92 93 77 92 90 77 77 91 51 60 58 67 68 66 76 79 80 79 82 82 83 82 76 75 80 79 70 36 36
42 43 47 61 65 62 69 78 81 79 90 99 94 88 92 83 67 88 75 59 60 55 54 67 66 63 67 72 78 79 75 75 82 84 84 80 79 80 79 75 50 41 42
44 47 60 68 68 71 68 81 85 88 88 98 99 99 94 93 85 78 80 75 74 73 72 70 68 69 70 68 79 75 81 81 74 79 81 81 81 82 80 69 48 55 59
47 52 70 77 82 77 72 84 81 85 79 83 95 98 95 85 83 82 88 86 72 82 79 66 74 74 71 77 82 82 78 81 80 77 79 80 82 81 80 62 55 57 66
56 68 76 85 78 76 83 86 92 90 86 82 92 87 99 100 99 93 88 92 86 83 77 78 81 85 86 85 85 83 79 81 88 90 77 74 82 83 81 69 61 59 71
61 66 74 86 80 79 82 76 90 96 96 97 96 92 92 96 94 96 92 88 74 68 63 62 72 83 88 89 84 81 76 76 83 82 83 85 80 86 88 78 61 71 80

GFSSE_850_rhum_114.txt.gz
RH
61 70 71 67 68 72 67 64 61 60 61 64 64 67 68 72 77 55 37 30 39 56 64 40 70 97 75 62 61 59 58 54 65 63 72 76 61 62 75 80 78 79 79
66 65 72 69 67 71 68 66 66 64 60 60 61 60 62 70 75 45 58 45 67 97 92 48 72 86 72 54 83 57 43 48 61 67 74 74 73 73 74 76 74 80 82
71 66 75 69 69 68 65 64 68 63 57 55 58 58 61 74 72 47 78 64 88 91 97 57 58 92 64 49 51 38 37 41 47 61 68 78 76 77 79 81 79 67 46
60 58 62 65 65 71 67 62 69 70 64 59 58 59 66 78 61 72 89 87 81 82 92 51 44 46 40 37 35 33 32 33 42 56 71 65 66 62 61 51 37 35 34
60 50 48 60 63 72 66 62 62 66 64 65 62 65 80 78 57 74 86 88 77 57 32 28 28 32 39 45 45 40 39 32 31 39 45 41 39 36 35 34 35 38 40
69 53 46 49 55 59 55 50 52 58 62 65 71 71 78 83 63 80 86 87 56 33 25 26 31 37 43 45 44 43 40 36 34 34 34 35 35 35 36 38 41 46 48
78 65 56 52 56 50 44 42 40 38 46 50 68 71 79 87 80 78 80 79 43 30 30 32 34 40 37 41 40 41 38 35 36 38 38 37 37 40 42 44 47 50 47
82 80 68 60 54 51 53 53 50 45 42 50 50 69 71 81 82 78 75 79 33 31 32 32 33 34 37 39 40 42 40 36 37 40 41 40 41 44 47 51 53 49 46
75 89 84 73 62 65 67 64 57 51 46 50 54 56 77 78 90 80 68 79 32 27 30 31 32 32 36 39 40 43 43 41 39 40 42 43 44 48 51 54 54 54 57
75 76 87 85 82 81 82 76 64 57 45 64 64 65 72 79 88 90 73 58 44 25 28 30 33 34 35 38 42 46 48 48 46 44 45 46 48 53 57 60 60 60 63
73 72 74 81 86 92 90 75 61 55 48 71 71 70 79 83 83 95 85 65 53 26 29 33 35 36 38 37 40 46 51 48 50 52 52 50 49 54 60 63 64 65 69
78 74 73 69 74 74 79 79 67 52 54 64 76 77 66 83 81 88 92 78 55 31 31 35 36 38 40 40 38 42 47 50 53 54 57 53 54 57 63 68 71 72 71
70 79 75 70 71 73 78 84 73 64 60 69 76 81 79 82 89 89 94 84 61 53 34 37 40 38 38 38 39 40 45 48 51 54 59 61 68 67 70 73 72 73 72
50 69 77 76 72 72 74 79 79 70 66 73 82 77 82 93 94 97 99 84 64 52 37 37 38 41 40 38 37 39 43 48 52 58 67 69 74 77 73 74 70 72 75
40 55 67 77 76 74 79 80 82 77 73 69 70 77 70 87 96 98 99 90 81 58 40 39 41 42 40 38 37 36 38 44 52 55 67 76 76 78 75 79 74 69 67
31 43 62 69 77 78 76 75 74 79 74 73 73 69 71 66 85 97 98 95 94 73 51 48 47 44 42 38 39 44 46 50 56 56 68 75 80 81 76 74 76 73 71
26 34 56 66 70 76 79 77 75 77 69 72 65 68 68 62 74 75 95 92 96 87 67 65 56 52 48 43 41 47 50 53 58 66 73 78 78 81 80 79 76 77 76
24 29 45 66 67 67 70 73 79 78 78 64 60 69 68 61 64 86 74 81 88 94 81 74 64 56 47 48 46 50 49 48 56 72 77 78 78 77 77 77 75 76 78
23 25 36 51 64 66 65 66 70 80 70 63 59 53 54 57 62 89 81 77 84 98 96 85 73 60 55 49 58 58 56 56 61 74 77 78 79 78 76 74 75 77 80
26 22 32 46 54 60 58 64 68 66 64 60 61 59 56 58 63 87 95 92 89 100 99 95 71 64 61 52 66 60 64 69 73 78 79 80 78 77 77 75 77 80 76
30 27 29 46 52 56 61 63 66 64 65 66 65 64 68 61 77 89 96 99 100 100 84 93 93 79 66 62 73 64 71 73 75 74 77 81 82 82 79 78 80 80 65
30 32 34 47 52 51 56 57 67 65 72 69 68 71 71 87 89 87 98 99 91 89 84 79 78 82 70 76 74 79 81 72 64 70 77 82 82 82 79 80 82 77 59
32 30 36 41 48 51 51 60 64 77 79 78 71 84 95 94 89 90 91 85 85 90 73 77 83 83 69 74 78 85 82 76 66 64 70 80 81 83 81 83 83 79 52
32 32 36 44 46 49 60 65 68 64 79 78 80 88 98 90 96 100 89 86 81 70 72 62 61 68 75 80 82 81 86 82 83 80 75 77 80 82 82 85 85 78 55
45 51 36 46 56 68 69 76 78 85 91 91 97 99 100 97 95 96 99 96 85 82 57 55 64 59 64 74 81 80 85 85 85 86 84 80 78 77 70 74 82 83 72
49 56 52 52 70 77 80 85 90 93 90 88 96 92 96 90 96 98 100 91 98 99 84 82 69 68 76 76 84 87 82 82 88 84 83 78 72 65 70 83 80 86 78

GFSSE_850_rhum_117.txt.gz
RH
73 79 78 83 73 62 63 74 72 76 77 73 77 74 67 66 74 44 32 29 42 30 63 83 80 82 67 60 68 70 56 70 74 68 61 71 62 78 78 80 78 84 80
75 81 79 74 78 75 63 62 64 67 66 65 85 69 66 66 71 44 40 31 49 57 50 51 90 78 60 65 43 38 44 62 66 76 74 78 74 69 75 80 82 77 48
80 72 74 70 71 75 72 67 65 65 65 63 72 63 59 69 70 50 55 60 96 99 68 86 90 61 66 46 35 35 38 48 60 62 71 76 82 81 76 71 60 41 34
85 83 80 67 64 69 71 67 67 66 58 58 56 58 59 70 65 62 73 89 94 95 77 82 42 51 37 34 31 32 37 43 56 73 60 54 63 56 47 36 33 33 36
83 86 86 72 65 71 67 67 66 68 65 60 58 56 65 74 64 85 84 85 80 85 51 31 31 33 34 34 33 30 29 34 43 50 44 40 36 36 34 35 37 40 43
79 75 80 71 68 68 67 64 63 66 62 62 65 76 79 79 69 83 85 83 73 46 30 26 32 39 42 41 40 37 33 31 32 34 34 35 35 36 37 40 43 46 45
81 66 66 67 69 70 64 59 58 58 59 61 67 70 68 81 81 82 86 82 60 29 24 29 36 42 42 39 37 36 33 32 33 34 35 36 37 39 41 45 49 47 44
90 75 62 84 68 68 68 60 53 51 52 55 62 69 67 76 85 83 80 80 50 27 28 31 36 40 40 38 38 37 33 33 34 36 37 38 40 42 45 50 50 50 54
84 93 88 72 61 59 55 54 54 54 52 55 57 65 73 75 84 86 82 79 46 29 30 32 33 34 38 40 40 40 37 34 37 38 39 41 42 45 49 53 55 58 60
76 79 94 91 81 58 59 64 64 60 56 60 68 66 72 82 86 87 81 76 59 28 32 32 32 32 36 39 43 45 44 43 40 41 42 44 46 51 56 58 59 61 64
79 76 80 89 90 82 72 72 78 71 56 49 62 68 74 82 84 90 90 73 69 27 29 30 32 33 37 38 41 44 48 48 49 49 47 46 47 52 57 62 63 65 68
81 80 73 79 81 87 84 88 86 74 60 45 67 69 75 74 84 84 94 86 66 47 28 30 34 37 38 38 40 40 43 45 49 53 56 54 52 55 60 66 70 71 71
62 77 79 74 72 72 75 77 78 78 75 65 57 72 73 70 82 83 92 97 85 62 35 33 37 40 39 38 39 42 42 43 46 49 53 56 63 62 65 72 75 73 72
32 56 72 78 73 71 72 74 78 81 75 74 72 73 75 73 79 87 90 95 94 72 56 36 38 39 43 43 40 41 44 45 47 50 59 61 64 69 70 76 78 67 75
23 37 54 66 72 72 73 70 76 80 77 75 76 83 81 71 73 84 92 88 97 89 59 46 39 44 46 45 47 44 40 42 48 54 60 68 70 72 78 74 76 70 65
18 24 38 53 66 76 75 72 78 77 80 80 81 72 78 70 68 73 85 92 99 92 80 66 44 46 48 50 47 45 42 42 48 54 58 66 74 79 76 74 72 71 73
17 20 26 40 62 74 76 76 77 76 79 81 78 74 74 80 76 76 79 77 80 90 89 90 72 57 54 54 45 43 48 52 53 56 60 68 75 78 82 79 78 78 74
28 18 24 32 56 71 79 80 78 79 78 78 77 72 74 73 73 71 80 82 84 92 83 92 83 82 68 58 54 46 49 54 55 54 59 71 76 77 78 78 80 78 74
36 24 24 27 42 69 72 80 84 86 86 82 74 74 64 60 61 63 67 82 91 91 92 93 85 93 79 68 59 55 48 57 53 52 59 72 77 78 79 78 76 75 76
38 27 26 25 30 52 72 72 77 85 83 80 78 76 62 59 56 56 56 66 94 96 90 97 92 58 72 75 70 66 56 60 63 62 69 77 78 79 79 78 77 76 78
38 33 26 27 26 37 56 76 75 68 64 64 66 63 61 60 59 59 58 65 69 96 99 100 100 86 78 78 81 71 64 64 60 60 73 76 80 80 77 80 81 78 80
40 37 29 29 25 30 57 63 62 55 54 54 58 58 66 66 60 66 67 66 81 100 100 100 100 87 85 80 82 82 86 66 57 56 65 74 73 80 81 80 83 79 82
48 44 35 30 28 28 52 59 64 68 68 64 58 59 63 67 64 73 94 88 90 92 95 99 98 82 84 71 77 80 86 81 65 58 54 60 65 72 78 71 77 83 86
44 44 38 32 31 32 51 58 72 60 59 50 58 68 70 76 89 99 97 90 89 96 96 100 88 78 75 59 88 88 83 83 82 74 72 71 66 73 78 78 74 70 76
40 33 32 33 34 37 45 51 71 74 71 69 77 77 81 83 89 89 99 92 95 93 84 97 98 77 77 76 60 68 80 72 90 84 84 77 72 68 73 72 69 66 73
53 47 46 48 37 40 46 54 73 70 74 78 90 89 84 87 95 98 100 100 98 99 77 75 80 75 67 62 58 58 76 76 78 76 76 75 74 77 74 72 71 78 71

GFSSE_850_rhum_120.txt.gz
RH
91 100 94 76 66 69 68 78 79 75 77 77 79 75 65 67 71 41 28 32 50 80 82 80 83 74 76 80 78 58 85 82 59 67 73 76 80 79 76 83 98 81 43
98 99 91 85 71 66 68 73 75 75 74 70 79 76 68 66 67 41 31 32 47 72 82 78 80 77 49 60 62 47 59 59 71 67 68 78 74 74 80 81 80 42 34
98 99 86 86 76 66 60 62 71 71 66 64 76 85 68 66 66 48 40 50 48 42 50 82 79 80 63 40 36 38 55 60 68 69 84 100 84 80 74 69 45 34 34
99 98 100 81 74 75 71 64 62 60 64 60 69 59 64 69 67 59 57 89 96 80 69 87 69 54 36 31 31 36 41 51 62 71 86 87 94 56 43 35 33 36 38
97 89 99 77 73 75 72 70 65 64 62 56 54 54 60 69 74 74 80 95 95 81 58 57 36 33 32 30 31 33 38 45 55 66 82 87 87 35 34 37 41 44 44
96 97 89 76 73 75 70 69 64 64 64 64 62 59 66 72 77 88 85 91 84 66 36 24 34 35 36 34 34 31 31 34 41 58 80 36 73 36 39 42 46 45 42
93 97 92 76 74 76 74 73 68 68 66 63 67 74 80 81 78 88 87 84 78 56 34 28 36 43 42 40 39 36 33 32 39 38 44 55 42 39 43 47 47 44 50
94 90 100 72 75 74 75 73 69 67 66 62 66 70 76 79 81 82 86 87 81 41 28 31 40 45 44 41 39 37 34 34 41 47 45 73 41 44 48 52 49 53 57
85 93 90 88 69 71 71 70 69 66 63 63 63 67 76 82 83 85 89 84 73 30 28 32 40 43 45 44 44 40 36 37 63 64 52 76 43 47 52 54 55 56 59
84 84 91 94 86 73 67 59 54 55 61 56 63 67 72 82 83 88 90 88 82 32 31 32 38 40 44 48 48 46 42 38 57 40 51 69 46 51 56 58 60 62 65
82 85 86 93 90 93 83 79 60 62 62 64 59 70 71 81 89 87 92 84 81 49 31 33 34 38 43 47 50 52 50 70 64 62 56 45 48 52 58 63 64 65 66
75 81 81 84 90 85 82 75 76 77 79 67 66 92 80 99 100 99 89 89 84 76 30 33 34 35 39 72 51 50 55 79 74 74 78 53 51 53 58 64 67 68 67
43 66 77 77 76 82 81 81 87 89 85 75 91 96 99 96 95 85 84 92 91 79 50 30 31 34 44 84 86 83 84 86 79 73 60 54 55 60 61 69 76 72 74
24 43 61 74 75 74 74 71 85 80 79 82 74 91 93 97 91 87 85 88 93 85 72 74 74 75 77 47 56 63 76 68 81 74 64 56 59 65 71 70 77 79 65
13 28 42 58 74 77 74 71 75 72 79 79 82 96 94 98 98 93 82 88 88 92 91 76 83 85 53 42 46 47 61 67 74 75 66 56 61 67 70 73 74 74 65
12 14 25 36 54 69 75 73 74 70 74 81 76 83 93 93 88 84 89 92 94 83 93 91 64 79 46 52 53 55 51 59 57 58 64 68 60 68 72 72 70 72 70
34 18 14 22 33 51 66 76 77 74 77 80 78 73 75 82 87 93 84 90 94 95 90 88 83 64 58 78 56 61 55 47 57 64 69 76 74 68 76 78 76 77 77
33 31 22 15 23 35 57 68 79 78 85 84 85 83 75 72 78 83 80 86 87 89 92 90 87 89 74 54 76 68 54 60 65 72 68 78 80 72 76 76 78 79 79
36 34 33 24 20 28 47 70 83 80 84 87 85 83 77 72 72 72 72 71 83 80 90 94 92 85 82 62 44 71 54 55 56 70 68 72 66 70 77 76 78 78 75
41 39 40 36 23 28 36 70 91 85 82 86 84 83 80 76 73 63 59 62 61 76 88 93 96 92 93 70 59 60 64 53 58 57 76 68 72 66 73 75 75 75 76
44 39 43 36 28 27 49 68 81 91 84 82 82 77 77 74 73 62 60 60 61 72 84 95 96 99 98 90 85 74 68 62 58 56 67 66 71 68 73 75 76 77 78
39 42 44 36 32 29 43 54 76 80 82 80 73 64 63 69 66 61 60 64 74 90 99 99 99 99 100 96 67 62 70 72 72 64 65 65 53 66 69 66 74 76 71
39 38 38 35 32 33 51 40 67 96 84 73 62 56 54 54 57 60 61 65 77 88 98 99 97 99 97 96 92 78 89 78 72 66 66 66 59 64 68 70 72 72 69
41 39 43 42 41 37 36 73 58 96 91 72 61 57 50 56 60 60 60 70 87 98 99 99 99 100 98 99 96 75 81 80 82 76 54 62 68 74 63 66 68 71 72
48 45 35 38 46 43 34 59 64 65 82 98 92 67 69 65 66 67 73 92 99 97 100 100 100 98 100 100 98 100 84 85 89 83 66 67 75 76 60 70 73 74 71
52 48 34 33 35 34 33 61 78 54 76 78 61 69 72 74 78 76 82 96 98 99 99 100 99 98 99 100 98 96 82 78 70 66 75 71 72 69 74 74 75 72 81

GFSSE_850_rhum_123.txt.gz
RH
93 96 92 73 69 75 75 77 79 78 78 78 75 70 66 64 67 39 28 28 71 84 76 82 83 84 86 79 55 86 81 50 74 65 80 80 77 78 84 98 94 39 31
94 95 92 75 65 64 67 77 78 76 76 74 76 78 64 66 64 40 32 32 68 84 81 85 84 61 83 70 52 70 74 46 53 60 73 77 77 74 77 86 47 32 32
96 97 88 82 68 64 63 66 70 73 75 73 75 78 61 63 64 46 38 34 35 70 81 74 83 72 53 53 38 54 54 67 70 81 90 94 76 71 64 52 33 34 37
98 97 98 86 72 63 60 59 62 63 63 63 69 79 63 62 66 54 53 73 54 42 52 83 77 52 44 35 36 43 55 59 69 83 85 85 94 50 36 33 36 39 39
96 98 95 85 76 77 72 64 61 60 62 61 62 79 58 66 70 62 75 95 91 81 61 71 51 34 32 35 38 41 47 63 67 86 85 88 92 37 36 39 42 43 39
98 98 98 90 78 80 79 74 67 65 66 62 62 64 64 78 84 75 86 95 96 78 42 34 32 34 32 32 33 37 43 53 62 85 87 69 80 37 42 46 47 42 45
99 98 94 83 77 78 79 76 71 67 67 70 67 66 77 81 83 89 87 88 83 69 38 29 32 38 41 39 39 36 33 39 75 78 79 85 40 41 46 50 47 49 57
96 99 95 82 73 73 79 77 75 70 70 74 75 72 78 81 80 83 90 90 82 63 36 30 37 41 41 43 40 37 35 34 62 73 81 91 43 43 48 51 53 55 59
98 95 93 94 74 75 74 75 76 75 70 66 66 70 76 82 79 82 88 92 86 53 36 30 38 42 42 41 43 41 36 37 66 74 79 85 45 45 51 54 56 58 61
85 90 99 98 99 95 83 69 67 66 64 62 59 56 61 76 78 80 90 91 87 65 33 34 38 41 40 41 45 46 41 39 66 65 77 81 46 45 51 56 58 60 65
79 84 82 93 96 97 94 90 70 56 54 60 62 63 64 65 84 82 87 88 90 80 33 35 39 41 39 42 43 46 48 57 72 74 75 57 44 46 50 57 62 63 65
50 70 83 90 87 94 97 94 88 71 62 64 63 65 65 93 87 96 93 91 90 85 57 34 38 39 38 50 46 45 48 79 78 77 79 67 51 48 49 55 61 65 68
20 42 65 79 87 86 92 98 99 97 94 96 93 94 92 85 80 94 92 85 93 86 74 33 33 35 36 60 80 80 73 80 79 78 80 69 56 54 55 56 63 75 70
17 16 35 60 73 81 80 93 99 94 94 99 96 89 86 82 83 90 86 88 92 94 84 71 39 36 55 82 81 80 78 82 79 75 75 68 56 58 62 65 67 78 80
20 9 14 30 58 76 97 98 97 87 97 96 96 95 84 86 86 91 89 88 92 98 99 89 76 69 72 79 84 74 76 74 75 74 73 70 58 60 63 66 68 74 76
38 27 12 13 29 50 87 96 94 88 97 96 84 88 91 97 88 95 94 90 87 88 99 97 88 75 73 86 79 72 72 70 69 68 71 73 70 56 61 66 70 66 71
37 40 39 19 16 26 50 93 100 93 87 96 95 80 91 97 96 95 94 99 87 86 98 98 92 89 82 81 80 75 72 68 65 64 66 73 77 74 57 63 68 69 69
40 41 41 43 29 19 26 61 97 97 90 92 96 94 99 99 100 98 94 95 96 98 92 96 98 93 87 83 79 72 52 55 64 67 69 72 75 81 76 63 66 68 70
44 40 42 44 40 25 19 39 78 73 93 91 95 98 89 99 97 98 97 100 90 94 98 96 92 99 100 92 88 81 70 52 45 53 57 58 70 75 66 73 67 69 72
51 45 44 47 48 48 41 55 77 87 99 97 92 95 92 86 97 95 92 96 96 90 93 99 99 99 98 99 99 96 79 77 78 64 57 51 46 54 68 51 66 64 68
62 58 53 50 50 50 46 54 80 78 98 100 98 96 96 99 83 86 89 77 92 89 92 92 88 90 100 97 100 98 95 90 94 74 60 57 50 43 66 62 72 69 73
64 64 62 58 52 52 48 48 65 85 98 100 99 90 96 97 87 87 82 77 80 90 87 99 98 93 93 97 97 99 99 90 79 65 56 56 52 50 82 86 85 78 78
64 63 57 54 58 56 50 50 60 81 95 95 97 96 98 84 75 80 79 77 63 63 93 94 89 88 95 93 99 99 90 81 64 67 72 70 71 59 70 73 74 76 74
81 65 62 57 57 54 48 51 59 76 91 93 92 95 97 97 84 70 65 64 56 58 90 90 89 94 90 96 93 95 100 89 77 77 79 73 68 55 59 67 68 68 68
93 83 77 70 52 53 59 59 63 67 87 90 93 98 99 95 69 66 64 62 61 72 90 85 91 98 99 97 99 100 99 100 90 99 97 84 70 55 55 52 56 60 53
90 94 86 83 37 41 66 66 65 74 85 88 90 90 100 95 87 59 63 63 73 85 88 96 96 99 100 100 100 100 99 99 99 100 98 84 74 61 58 52 55 67 69